ECMWFNIL_250_spd_000.txt.gz
Wind_Speed
45 46 46 46 46 48 49 49 49 46 45 49 51 50 49 47 44 43 47 50 53 57 59 59 58 57 54 52 55 59 60 59 57 57 56 53 52 50 43 40 41 41
49 48 49 48 47 49 50 51 52 48 44 45 47 49 49 46 44 43 43 47 54 57 57 59 62 62 58 53 55 61 62 58 54 56 57 54 52 50 46 43 42 41
53 51 51 50 49 49 51 52 52 51 49 48 47 49 51 49 47 47 45 44 50 55 56 58 61 63 60 54 54 61 63 60 56 57 57 53 51 50 47 45 43 42
57 55 53 52 51 50 50 52 54 53 52 51 47 46 50 50 49 50 49 48 50 54 56 58 60 62 63 57 54 59 63 62 59 59 58 55 52 50 47 44 43 45
61 59 56 54 53 51 51 52 54 54 54 53 49 48 49 51 51 51 51 54 56 56 57 59 60 62 64 61 55 57 61 63 61 60 60 59 56 52 48 45 46 48
62 61 59 57 55 53 52 52 53 53 54 54 54 53 52 52 54 55 53 55 59 59 56 60 63 63 65 64 59 58 61 65 65 62 62 64 61 55 50 49 51 53
62 61 60 59 57 55 54 53 53 53 54 55 55 54 52 52 54 55 54 53 57 59 57 59 63 65 66 66 63 60 61 66 68 65 64 67 66 61 54 52 55 56
60 59 58 58 57 55 54 53 53 53 53 54 55 53 52 53 54 55 55 52 53 58 59 60 63 65 66 66 64 63 63 66 69 67 66 69 68 63 58 56 57 57
59 58 56 55 55 55 54 53 52 53 53 53 54 54 52 53 55 55 55 53 53 57 58 59 64 66 67 67 65 64 65 67 69 68 67 69 68 63 59 58 59 58
58 57 55 54 53 53 52 52 52 52 52 52 53 53 52 53 56 56 56 54 53 56 57 57 63 67 68 68 66 64 63 66 70 69 67 67 66 63 61 60 60 59
58 56 54 52 51 51 50 50 50 51 51 50 51 52 52 53 55 56 56 54 53 55 56 56 61 66 68 69 69 67 64 64 68 70 69 67 65 63 63 62 61 60
57 55 53 51 49 48 48 47 48 49 49 49 49 50 50 52 54 55 55 54 54 56 57 56 59 65 68 68 70 70 67 66 68 69 70 69 66 65 65 63 62 61
57 54 51 49 47 46 45 45 46 47 48 47 48 48 49 51 54 55 55 54 55 57 59 58 60 65 69 70 70 72 71 68 68 69 69 69 67 67 68 65 63 61
57 53 49 47 45 43 43 43 44 46 46 46 47 47 48 51 54 56 56 56 56 57 59 61 61 65 70 72 72 73 73 71 70 70 70 70 69 67 67 67 65 63
56 52 47 45 43 41 41 42 43 44 44 45 46 46 47 51 55 57 57 57 57 58 59 60 61 63 69 73 74 74 75 74 72 72 72 72 72 71 69 70 70 68
54 51 46 43 41 39 39 40 42 43 43 44 45 47 49 53 56 57 58 57 58 60 60 59 60 62 66 72 74 74 76 79 78 75 73 72 72 72 72 72 73 72
52 50 44 41 40 39 38 39 40 41 43 44 45 48 51 54 56 58 58 57 57 59 60 59 60 60 62 67 73 73 75 78 80 79 76 71 69 69 70 72 72 71
49 48 44 40 39 38 37 37 39 41 42 44 47 50 53 55 57 58 58 57 56 57 60 60 60 59 58 61 68 72 74 75 78 79 77 73 70 67 67 69 69 68
45 45 42 39 37 37 36 36 37 40 42 45 48 52 55 56 57 58 57 56 55 56 59 60 61 61 59 58 62 66 71 74 75 75 74 73 70 67 65 66 67 67
41 41 40 38 36 35 35 35 36 39 43 46 51 54 55 56 57 57 56 55 55 56 58 59 60 61 60 59 60 60 63 68 72 73 74 72 69 67 65 65 67 68
39 38 38 37 35 33 33 34 36 39 43 48 53 55 56 56 57 56 55 54 54 55 56 57 58 60 59 60 61 60 58 61 66 71 73 72 70 69 67 65 66 69
40 37 37 36 34 32 32 33 35 40 45 50 55 57 57 57 57 56 55 54 53 53 54 54 55 56 56 58 61 62 61 59 60 65 69 70 70 71 70 68 65 66
41 38 36 35 33 32 32 33 36 40 46 52 56 59 59 58 57 56 54 53 52 52 52 52 52 51 52 54 57 61 62 59 58 62 66 67 66 68 69 67 64 63
42 37 35 34 33 31 32 34 37 42 47 53 58 59 59 58 57 55 54 52 51 50 50 50 49 48 48 48 51 56 59 59 59 62 66 67 66 65 66 65 63 63
43 37 34 33 32 31 32 35 38 43 48 53 58 59 59 58 58 56 54 52 50 49 48 48 46 45 45 45 46 49 53 57 61 63 65 68 68 67 67 65 64 64
43 37 33 32 31 31 33 35 40 44 47 52 57 59 59 59 59 58 57 54 51 49 48 48 46 44 44 44 42 44 49 55 61 63 65 70 73 71 69 67 65 65

ECMWFNIL_250_spd_003.txt.gz
Wind_Speed
51 52 52 53 54 54 54 54 55 54 54 55 56 58 59 58 56 56 55 53 52 51 50 49 51 53 56 58 59 60 61 61 61 61 58 54 53 51 50 50 48 45
53 54 55 56 56 56 56 55 55 55 55 54 55 57 59 59 58 57 56 55 54 54 54 53 52 53 56 58 58 59 61 62 61 60 58 55 54 53 52 53 51 48
56 57 57 58 58 58 57 56 56 55 55 54 54 55 57 59 59 57 55 55 54 55 57 58 56 56 57 58 59 59 60 62 63 61 57 55 55 56 55 55 54 51
59 60 60 60 61 60 59 58 56 56 55 54 53 53 54 56 58 58 56 54 54 54 57 59 58 58 60 60 61 62 62 64 65 64 60 57 57 58 58 57 55 54
61 62 63 63 62 62 61 60 57 56 55 54 52 52 53 54 55 56 55 54 54 54 56 57 57 58 60 62 63 64 65 66 67 66 62 59 58 59 60 59 57 55
62 63 64 64 64 63 62 61 58 56 54 53 52 51 51 53 54 54 54 54 55 56 56 57 58 58 59 61 63 65 65 66 67 67 64 62 61 60 61 61 60 57
63 64 64 64 64 63 62 61 58 56 54 53 52 51 50 50 52 53 53 54 55 56 57 57 58 59 59 59 60 63 66 66 66 65 65 65 63 62 62 63 62 60
64 65 65 65 64 63 62 61 58 55 53 51 50 50 49 48 50 52 53 54 54 56 56 57 57 57 59 59 58 60 64 66 67 66 66 67 66 64 63 64 64 62
66 67 66 66 64 63 61 60 58 54 52 51 49 47 47 47 48 50 53 54 54 55 56 57 57 56 56 58 59 59 60 62 65 67 68 69 68 66 64 64 64 62
68 69 68 67 65 63 61 59 57 54 51 50 48 45 44 45 47 49 52 53 54 55 56 57 58 58 57 57 58 59 59 59 61 66 69 70 69 67 65 64 64 62
70 70 70 68 66 63 61 59 57 53 50 49 48 45 43 43 45 47 49 52 53 54 55 57 58 59 59 58 58 60 61 60 60 63 66 68 69 69 66 65 65 64
71 72 71 69 66 63 60 58 56 53 50 47 46 45 42 41 44 45 47 49 51 53 54 56 58 59 59 58 59 60 62 62 62 63 65 67 69 69 67 66 67 66
73 72 71 69 66 63 60 57 54 52 49 46 45 44 42 40 41 43 44 46 49 51 53 55 57 59 59 59 59 59 61 62 64 65 67 68 69 69 68 67 68 67
74 73 71 68 65 62 60 56 53 51 48 44 42 42 41 40 39 40 41 43 45 48 51 53 56 58 59 59 59 60 61 63 64 66 68 70 71 70 68 68 68 67
76 74 71 67 63 60 58 56 52 49 46 42 40 40 40 39 38 38 39 40 42 46 48 51 55 57 58 59 59 60 62 62 64 66 68 71 74 73 70 68 68 67
77 74 70 66 61 58 56 55 51 47 45 41 39 39 39 38 37 37 37 37 40 43 46 50 54 57 58 58 59 61 62 62 63 65 67 70 74 75 72 69 68 67
77 73 68 64 60 56 53 52 50 46 43 41 39 39 39 37 36 35 34 35 38 41 45 49 53 55 56 58 59 61 61 61 62 64 65 68 73 75 72 70 68 67
77 72 67 62 59 56 51 49 48 46 43 41 39 38 38 36 35 34 33 33 36 40 44 47 51 53 55 56 59 60 60 60 62 63 64 66 71 73 72 70 68 67
77 72 65 61 58 55 51 48 45 44 43 41 39 38 37 36 35 34 32 33 36 39 43 46 49 51 53 55 57 58 59 59 60 62 63 65 69 72 72 71 69 68
76 72 65 60 57 54 51 47 44 42 41 41 40 38 36 35 35 34 32 33 36 40 43 46 48 50 52 53 55 56 56 57 59 60 61 64 67 71 73 72 70 69
75 71 66 61 57 54 50 47 44 42 40 40 40 37 35 35 35 34 32 34 38 41 43 45 47 49 50 51 52 53 54 55 57 59 60 62 65 69 73 74 72 70
74 70 65 61 58 53 49 46 44 42 39 39 39 37 34 34 36 34 33 35 39 42 43 45 47 48 49 50 51 51 52 53 55 57 57 59 63 68 72 75 74 71
72 68 64 61 57 53 48 44 42 41 38 37 38 37 34 34 36 36 34 36 40 43 43 45 46 48 49 50 50 51 51 52 53 54 54 55 59 64 70 74 75 73
71 66 63 59 56 52 48 44 41 40 38 36 36 36 35 34 36 38 36 36 40 44 45 46 47 48 49 50 51 52 53 54 55 54 52 52 55 59 65 70 73 74
69 64 61 58 55 52 48 44 41 39 37 35 34 35 35 34 36 39 39 37 39 45 47 48 47 47 48 49 50 52 53 55 56 55 52 51 52 55 60 66 71 74
67 62 59 57 54 50 47 44 41 38 36 34 33 33 35 35 36 39 41 39 39 43 48 49 49 47 47 49 49 50 51 52 52 53 52 48 49 54 57 61 67 73

ECMWFNIL_250_spd_006.txt.gz
Wind_Speed
54 55 56 57 58 58 58 59 59 59 59 59 59 59 58 58 58 58 59 59 59 58 58 57 57 57 58 60 61 60 61 60 58 55 53 53 54 56 56 56 56 57
56 57 59 60 61 62 62 62 62 61 60 59 59 59 58 57 57 57 58 59 60 59 59 58 58 58 59 60 61 60 60 60 59 57 56 55 56 58 58 57 57 58
57 59 60 62 63 64 65 65 65 64 62 60 59 59 58 57 56 56 56 58 59 60 59 59 58 59 58 59 60 60 59 59 59 59 58 57 57 58 60 59 58 58
59 61 62 63 64 65 66 66 67 66 65 63 60 59 57 56 55 54 54 55 57 59 60 59 58 58 58 58 58 58 58 57 58 58 58 58 58 58 60 60 60 59
62 62 64 65 66 66 67 67 67 67 66 65 62 60 57 55 54 53 52 52 54 57 59 59 58 58 57 57 56 57 58 57 57 57 55 57 58 58 59 60 60 60
63 64 65 66 67 69 69 69 68 67 66 64 63 61 58 55 53 51 50 49 50 53 56 58 58 58 57 56 56 57 58 58 58 57 55 56 57 58 59 60 60 61
64 65 66 67 69 70 70 69 68 67 66 64 63 61 59 56 53 50 48 47 47 49 53 56 57 57 57 56 55 56 58 59 59 58 57 57 58 57 58 59 59 61
66 66 67 68 69 70 71 70 69 68 67 66 64 62 59 55 52 49 46 45 45 46 50 54 56 56 56 56 55 56 58 59 59 59 59 60 59 58 57 58 58 59
67 68 68 69 70 71 71 71 70 69 68 68 66 63 59 55 51 48 45 43 44 44 46 51 55 56 55 55 55 56 57 59 59 58 59 61 61 60 59 58 57 57
68 69 69 70 70 71 72 72 71 70 70 69 67 63 59 54 50 46 42 41 42 43 44 47 52 55 55 54 54 56 57 59 59 58 59 61 63 63 62 61 59 58
70 70 70 71 71 71 72 73 73 72 72 70 67 63 59 54 49 44 40 39 40 41 41 44 49 53 54 54 55 57 59 60 60 59 59 61 63 64 64 63 62 62
71 72 71 71 72 72 73 74 74 74 73 71 67 62 57 53 48 44 39 37 37 38 40 42 46 50 53 55 56 58 60 61 62 62 61 61 62 64 65 64 64 64
73 73 72 73 73 74 74 75 76 75 73 71 67 62 56 51 47 43 39 35 34 35 38 40 43 47 52 55 57 59 61 62 63 63 62 62 63 64 65 64 63 64
74 74 74 74 74 75 76 76 77 76 74 71 67 62 55 50 46 42 38 34 32 33 35 37 41 45 50 54 57 59 61 63 63 63 62 62 63 64 65 63 62 62
75 75 75 75 76 76 77 77 77 76 74 70 66 61 55 49 46 42 37 33 31 31 33 35 38 41 47 52 56 58 61 63 63 63 62 62 62 63 64 63 60 59
77 77 77 77 77 77 78 79 78 77 74 70 65 60 54 49 44 41 36 32 30 30 32 33 35 38 43 49 53 56 60 62 64 64 63 62 62 63 65 65 62 59
77 78 78 78 78 78 79 79 79 77 74 69 63 58 53 48 43 40 36 32 30 29 30 32 33 35 39 44 49 53 57 60 63 64 63 63 63 63 64 65 63 60
78 79 80 80 79 79 79 80 79 77 74 69 62 56 52 48 43 39 35 32 29 27 28 30 32 34 36 40 44 49 53 57 60 62 63 64 64 63 63 63 63 61
79 80 80 80 80 80 80 80 79 77 73 68 62 55 51 47 42 38 35 32 29 27 27 29 30 31 33 36 40 44 49 53 57 60 62 63 63 64 63 63 62 61
80 80 80 80 80 81 81 80 78 75 72 67 61 54 49 45 40 37 35 32 29 27 26 27 27 28 31 33 36 39 43 48 52 55 58 60 61 62 63 64 63 62
79 80 80 80 80 80 80 79 77 74 70 66 60 53 48 45 39 35 34 32 29 26 25 26 26 27 28 31 33 35 38 42 46 49 53 57 58 59 61 62 62 61
80 80 79 80 80 80 80 78 75 72 68 65 59 52 46 43 38 34 33 32 29 27 25 25 25 25 26 28 30 32 34 37 39 42 46 51 55 56 57 59 60 60
80 80 79 80 80 80 78 76 73 69 66 63 58 51 45 41 37 34 32 31 29 27 25 24 25 26 26 26 28 30 31 32 34 36 41 46 51 53 55 56 57 58
82 81 80 80 80 79 76 73 70 67 64 61 56 49 43 40 36 33 32 31 29 27 24 24 26 27 27 26 26 28 29 29 30 33 36 41 46 49 50 51 53 54
83 82 81 81 80 78 74 70 68 65 62 59 54 48 42 38 34 31 30 30 29 26 24 25 27 29 28 26 26 27 28 28 29 32 34 37 41 45 46 46 46 49
83 83 83 82 80 76 71 68 65 63 60 57 53 47 41 36 33 30 29 29 28 27 25 26 29 30 30 28 27 27 28 29 30 33 35 37 39 42 44 44 43 44

ECMWFNIL_250_spd_009.txt.gz
Wind_Speed
52 53 54 54 55 55 56 57 58 59 59 60 60 60 59 59 60 60 59 58 56 54 53 52 52 53 53 51 50 53 55 54 53 55 57 60 62 61 59 59 57 55
53 54 55 55 56 57 58 59 60 62 62 63 63 62 62 62 61 61 61 60 58 55 53 52 51 51 52 52 52 52 55 57 56 56 57 60 61 58 57 59 59 56
54 55 55 56 57 58 59 60 62 63 64 64 65 65 65 64 64 62 61 59 57 55 54 52 49 49 49 51 53 53 55 57 59 58 59 62 63 60 59 60 59 56
55 55 55 56 58 59 61 62 62 63 64 65 66 66 66 66 65 63 61 59 57 55 53 52 49 47 47 49 52 54 56 58 60 60 60 62 65 65 65 63 61 56
55 56 56 57 59 61 62 63 64 64 65 66 66 67 67 67 66 64 62 60 58 56 54 51 49 47 46 48 51 54 56 58 60 61 61 61 63 66 66 65 62 59
56 56 57 59 60 62 64 65 65 66 66 66 67 67 68 67 67 65 64 61 59 57 55 51 48 47 45 46 50 53 56 59 60 61 61 61 62 64 66 66 63 60
57 57 58 60 62 64 65 66 67 67 68 68 68 68 68 67 66 65 64 63 61 59 57 53 49 46 45 45 48 52 56 58 60 62 61 61 61 63 65 66 64 61
57 58 59 61 63 65 66 68 68 69 69 69 69 69 68 67 66 66 65 64 62 59 57 54 50 46 45 44 46 50 54 58 60 61 61 60 61 62 64 65 64 62
58 59 60 62 63 65 67 68 69 70 70 70 70 69 69 68 67 66 66 65 64 60 57 54 50 47 44 44 45 47 52 56 58 60 60 60 60 62 63 64 63 62
58 60 61 63 64 66 68 69 69 70 71 71 71 70 70 69 69 68 67 66 65 61 57 54 50 46 44 43 44 46 49 54 57 58 59 60 61 61 62 63 63 62
59 61 63 64 65 67 68 69 70 71 72 72 71 71 71 71 70 69 68 68 66 61 56 53 49 45 43 42 42 44 47 51 55 57 58 59 60 61 62 63 63 63
59 61 63 65 66 67 68 69 71 72 72 73 73 72 72 72 71 70 70 69 67 61 55 51 47 43 42 41 41 43 45 49 52 55 57 59 60 61 63 64 64 63
60 62 64 66 67 68 69 70 72 73 73 74 74 74 74 73 73 72 71 70 67 61 54 50 46 42 40 40 40 42 44 47 50 53 56 58 61 62 63 65 65 64
61 62 65 67 69 70 70 71 72 73 74 75 76 75 75 75 74 73 72 71 67 60 54 49 44 40 39 38 39 40 42 44 48 52 55 58 61 62 63 65 66 66
61 63 66 68 70 71 72 72 73 74 75 76 77 77 76 76 75 74 73 71 67 59 53 48 43 38 37 37 38 39 40 42 46 51 54 57 61 62 64 65 66 67
63 65 67 70 72 73 73 74 75 75 76 77 78 78 77 77 76 75 73 70 66 58 52 47 41 37 35 35 36 37 38 40 43 48 53 56 60 62 64 65 66 67
65 67 69 72 73 74 75 75 76 77 77 78 78 79 78 77 76 75 72 69 64 56 50 46 40 35 33 34 34 35 36 38 41 46 51 55 58 62 63 64 66 67
67 69 71 74 75 76 77 78 78 78 79 79 79 79 79 77 76 74 72 68 61 54 49 44 39 34 31 32 33 34 35 37 40 44 48 53 57 61 63 64 65 66
69 72 74 76 77 79 79 80 80 80 80 80 80 80 79 78 76 74 70 65 59 52 47 42 37 33 30 30 31 33 34 36 39 42 46 50 54 59 62 63 64 66
72 74 76 78 80 81 82 82 82 82 81 81 80 80 79 78 75 72 68 63 56 50 46 40 36 31 28 29 30 32 33 35 38 40 43 46 51 56 60 62 64 65
75 78 79 80 82 83 83 84 84 83 82 81 81 80 79 77 74 70 65 60 53 48 44 39 34 30 27 27 29 31 33 34 35 37 39 42 47 53 57 60 62 64
79 81 82 83 83 84 85 85 85 84 84 83 81 80 78 76 72 66 62 57 50 46 43 37 32 28 26 27 28 30 31 32 33 35 36 38 43 49 53 56 59 62
81 83 84 85 85 86 86 86 86 85 85 83 82 79 77 73 68 63 58 53 47 44 41 35 31 27 25 26 28 28 29 29 30 33 34 34 38 43 48 51 55 59
83 84 85 86 87 88 88 88 87 87 85 83 81 78 74 70 64 59 55 49 45 42 38 33 29 26 25 26 27 27 28 28 29 31 31 30 32 37 42 47 51 55
84 86 87 88 89 89 90 90 89 87 85 82 79 75 71 66 61 56 51 46 42 39 35 31 27 24 24 26 27 27 27 27 28 30 28 27 28 31 36 43 47 51
86 87 88 89 90 91 91 91 89 87 84 80 76 72 68 63 57 53 48 42 39 36 32 29 26 24 24 27 28 28 27 26 28 29 28 26 26 26 30 37 42 45

ECMWFNIL_250_spd_012.txt.gz
Wind_Speed
48 49 49 49 50 50 50 50 50 51 51 52 52 53 54 55 56 57 57 58 58 58 56 54 51 49 48 47 46 46 45 44 44 46 48 48 49 51 55 59 62 64
50 50 50 50 50 51 51 51 51 52 52 53 53 54 55 57 58 59 60 60 60 60 59 57 54 52 50 48 46 46 45 44 44 46 48 50 50 52 55 59 62 64
50 51 51 51 51 51 51 52 52 52 53 53 54 55 57 58 60 61 62 62 62 61 60 59 57 55 51 48 47 47 46 44 44 45 47 51 53 54 57 59 62 65
51 52 52 52 52 52 52 52 52 53 53 53 55 56 58 60 61 63 63 64 63 62 61 60 59 57 54 49 48 48 47 44 44 44 46 50 54 56 58 60 61 64
52 52 52 52 52 52 53 53 53 53 53 54 55 57 59 61 62 64 65 65 65 64 63 61 60 59 56 52 49 49 49 46 43 43 45 49 53 57 59 61 63 64
53 53 53 53 53 53 53 53 53 53 53 54 56 58 60 61 63 65 66 66 66 65 64 62 60 59 57 54 51 51 51 48 44 42 44 47 52 58 60 62 65 66
53 53 53 53 53 54 54 54 54 53 54 55 57 59 61 62 64 65 66 67 66 66 65 63 61 59 57 54 52 53 52 50 46 43 43 45 50 56 61 63 66 67
54 53 53 54 54 54 54 54 54 54 55 56 58 60 62 63 64 66 66 66 66 66 65 64 63 60 58 55 53 53 53 51 47 44 42 44 48 54 60 64 66 68
54 54 54 54 54 54 54 54 54 55 56 58 59 61 63 64 65 66 66 66 66 66 66 65 64 62 59 56 55 55 53 51 48 45 42 42 46 52 58 63 66 68
55 55 54 54 55 55 55 54 54 56 58 59 61 63 64 65 66 66 67 67 67 66 66 66 65 64 61 58 56 56 54 51 48 44 42 41 44 49 55 61 65 68
56 55 55 55 55 55 55 54 55 56 59 61 63 64 65 66 66 67 68 68 68 67 67 67 66 65 63 60 58 57 55 52 49 44 41 40 42 47 52 58 62 67
56 56 55 55 56 56 55 55 56 58 60 62 64 66 67 67 67 68 69 69 69 69 68 68 67 66 64 61 60 58 55 52 49 45 40 39 40 44 50 55 59 64
56 56 56 56 56 56 56 57 58 59 61 63 65 67 68 69 69 69 70 70 71 71 70 69 67 66 64 62 61 59 55 51 48 45 40 38 39 42 47 52 56 61
57 56 56 56 56 56 57 59 60 61 63 64 66 68 69 71 71 72 72 72 72 72 71 69 68 66 64 62 61 58 54 50 47 44 40 37 37 40 44 49 53 58
58 58 57 57 57 57 59 60 61 63 64 66 68 69 71 73 74 74 75 74 73 73 71 70 68 67 64 62 59 56 52 47 44 42 39 37 36 38 42 46 50 55
59 59 58 58 58 59 60 62 63 64 66 68 69 71 73 75 76 76 77 76 75 73 72 70 68 67 64 60 56 53 49 45 42 39 38 36 36 36 39 44 48 52
60 60 59 59 60 61 62 63 65 66 68 69 71 74 75 77 78 78 78 77 76 74 72 70 69 67 63 58 53 50 46 43 39 37 36 36 35 35 37 41 45 50
61 60 60 60 61 63 64 65 67 68 70 72 74 77 78 79 79 80 80 79 77 75 72 70 69 66 60 54 49 46 43 39 37 35 35 35 35 34 36 39 43 47
61 60 61 62 63 65 66 67 68 70 72 75 77 79 80 80 81 81 81 80 78 76 73 70 68 64 56 49 46 43 39 36 34 33 34 34 34 34 35 38 41 45
61 61 62 63 65 67 67 68 70 72 74 77 79 81 82 82 83 83 82 81 79 76 73 70 66 60 51 45 43 40 36 34 31 31 32 33 34 34 35 37 39 43
62 63 64 65 66 68 69 70 72 74 76 79 81 82 83 84 84 84 83 81 79 77 73 68 63 55 47 42 40 37 33 31 30 30 31 33 34 34 34 35 38 41
64 64 65 66 67 69 70 72 74 76 79 81 82 82 84 86 86 85 83 82 79 76 71 65 58 50 44 40 38 34 31 29 29 29 31 33 34 33 32 34 36 39
65 65 66 67 69 71 72 74 77 79 81 82 82 83 86 87 86 85 84 81 78 74 69 62 54 46 41 38 36 32 29 28 29 29 31 33 33 32 31 32 35 38
66 66 67 68 70 72 75 77 79 81 82 82 83 85 87 88 87 86 83 80 76 71 65 58 49 43 39 36 34 30 28 28 29 30 31 32 32 31 31 32 33 35
66 67 69 70 72 74 77 79 81 82 83 83 84 87 88 88 88 86 82 78 73 68 61 53 46 41 37 34 32 29 27 28 29 30 30 30 30 31 31 31 32 33
67 69 70 72 74 76 79 80 81 83 83 84 86 89 89 88 87 85 81 76 70 64 57 49 43 38 34 32 30 28 27 28 29 30 29 29 30 30 29 29 29 29

ECMWFNIL_250_spd_015.txt.gz
Wind_Speed
51 51 51 51 51 51 51 51 50 49 49 49 48 48 47 46 44 44 44 43 43 43 43 44 45 46 46 46 46 45 44 42 41 41 42 43 42 41 42 44 46 50
53 52 52 52 52 52 52 51 51 50 50 49 49 48 47 46 45 45 44 44 44 44 45 47 48 48 49 49 49 48 47 45 43 42 42 44 44 42 42 44 47 49
54 53 53 53 52 52 52 52 52 52 51 50 49 48 48 47 46 45 45 45 46 46 48 49 50 51 51 51 51 51 50 48 46 44 43 44 44 43 43 44 47 49
55 54 54 54 54 53 53 53 53 53 52 52 51 49 49 48 47 47 46 47 47 49 50 52 53 53 54 54 53 53 52 50 48 46 45 45 45 44 44 44 45 48
57 56 56 55 55 54 54 54 53 54 54 53 52 51 50 49 49 48 48 48 49 50 52 53 55 56 56 56 56 55 53 52 50 48 46 45 46 45 44 43 44 47
59 58 57 57 56 56 55 55 55 55 55 54 54 53 51 50 50 50 50 50 51 52 53 55 57 58 59 59 58 57 55 53 51 49 47 46 46 46 45 44 44 46
60 60 59 59 58 57 56 56 56 56 55 55 54 54 53 52 51 52 52 52 52 54 56 57 59 60 61 61 60 59 57 55 53 51 49 47 46 47 46 45 44 44
62 62 61 60 59 58 57 57 56 57 56 56 55 55 54 54 53 53 54 54 55 56 58 60 61 62 62 62 62 61 59 57 55 53 51 48 47 47 47 46 44 44
64 64 63 61 60 59 58 57 57 57 57 56 56 56 55 55 55 55 55 56 57 58 60 62 63 63 63 63 62 62 61 60 58 55 53 50 48 47 47 46 45 43
66 65 64 63 61 60 59 59 58 57 56 57 57 57 57 57 57 56 57 58 59 61 62 65 66 65 65 64 63 63 63 62 59 57 54 52 49 47 46 46 45 43
67 66 65 64 63 61 60 60 59 58 57 57 58 58 59 59 59 58 58 59 61 62 64 66 68 68 67 66 65 64 64 63 60 58 55 52 50 48 46 45 44 43
68 68 66 65 64 63 62 61 61 59 58 58 58 58 60 60 61 61 60 61 62 64 65 66 68 70 70 70 68 66 66 65 62 59 56 52 50 48 46 44 42 42
69 69 68 67 65 64 63 62 62 61 60 60 59 59 60 60 61 62 62 62 63 65 66 67 68 70 71 71 70 68 67 66 62 58 55 52 50 47 45 44 41 41
71 70 69 68 66 65 64 63 63 62 62 61 61 61 61 61 62 63 63 64 65 66 67 68 69 70 72 72 70 69 68 66 61 57 54 52 49 46 44 43 41 39
73 72 70 69 68 67 66 64 64 63 62 62 61 61 61 62 62 63 64 65 66 67 68 69 70 72 73 73 72 70 67 64 60 55 53 51 48 44 42 42 40 38
74 73 72 71 70 68 67 66 65 64 63 62 61 61 61 62 62 63 64 65 67 68 69 69 70 73 74 73 72 70 66 62 57 53 51 48 45 42 41 40 39 37
76 74 73 73 71 70 68 67 66 65 63 62 61 61 62 62 63 64 65 66 68 69 69 70 71 73 74 72 70 68 64 59 55 51 48 45 42 40 39 39 38 36
77 76 75 74 73 71 69 67 66 64 63 62 62 63 63 63 64 65 66 68 69 70 71 72 73 74 74 72 69 66 62 57 52 48 45 42 39 37 37 38 36 35
78 76 76 75 74 72 70 67 65 64 62 62 63 64 64 64 65 66 68 70 70 72 73 74 75 75 74 71 68 64 59 54 50 46 41 38 37 36 35 36 35 33
78 77 77 77 75 73 70 67 65 64 63 63 63 64 64 65 66 68 70 71 72 74 76 76 76 76 74 71 67 62 57 52 47 42 38 36 35 34 34 34 33 32
78 78 78 77 75 72 69 66 65 64 64 64 64 64 65 66 68 69 70 71 73 76 78 78 78 76 74 70 66 60 55 49 44 39 35 33 33 33 33 33 32 31
79 78 78 77 74 71 69 67 65 65 64 65 65 65 66 68 69 70 71 72 75 77 79 81 81 78 73 69 64 58 52 47 41 36 32 30 30 31 32 32 30 29
79 78 78 76 74 71 68 67 66 65 66 67 67 67 68 70 70 70 71 74 77 79 80 81 81 79 75 69 63 56 50 45 39 34 30 28 29 30 31 31 29 27
79 78 77 75 73 70 67 66 66 67 67 68 69 69 70 71 70 71 73 76 79 82 83 81 79 78 75 69 63 56 49 44 39 34 30 28 28 29 30 30 27 25
81 78 76 73 71 68 67 66 67 69 69 69 70 71 71 70 71 73 77 79 81 83 83 80 77 76 74 69 62 56 49 43 38 34 31 28 27 28 30 29 26 24
81 78 74 71 70 68 66 66 67 70 70 71 72 73 71 70 73 77 80 81 82 82 80 78 77 75 73 68 61 55 49 42 37 33 30 28 27 28 30 28 25 24

ECMWFNIL_250_spd_018.txt.gz
Wind_Speed
54 56 57 58 60 60 61 61 60 60 59 58 57 55 54 52 50 48 47 45 44 43 42 42 42 42 41 40 39 39 39 39 39 38 38 40 41 41 42 43 45 47
55 56 58 60 61 62 63 63 62 62 61 60 59 58 57 55 53 51 49 48 46 45 44 43 42 43 42 41 41 41 41 41 41 41 41 40 42 43 44 45 46 47
56 57 59 61 62 63 64 64 64 64 63 62 61 60 59 58 56 54 52 50 49 47 46 45 44 43 43 43 43 43 43 43 43 44 43 42 44 46 47 48 48 47
57 58 60 62 63 65 66 66 66 65 65 64 63 62 62 60 58 56 55 53 51 50 49 47 46 45 45 45 45 45 45 45 45 45 45 45 46 48 50 50 50 49
60 60 62 63 65 66 67 67 67 67 67 66 65 64 63 62 60 58 57 55 54 53 51 49 48 47 47 48 48 48 48 48 47 47 47 48 49 50 52 52 51 50
62 62 63 65 66 68 68 69 69 69 68 67 66 65 64 63 61 60 58 57 55 54 53 51 49 49 48 49 50 51 51 51 51 50 50 51 52 53 54 53 52 51
64 64 65 67 68 69 70 71 71 71 71 70 68 66 65 63 62 61 59 58 56 55 54 52 51 50 50 50 52 53 53 54 54 54 54 54 54 55 56 54 52 51
65 66 68 68 70 71 72 73 73 73 72 71 70 68 66 64 63 61 60 59 57 56 55 54 53 52 52 52 53 55 56 56 56 57 56 55 55 57 57 56 52 50
67 68 70 70 72 73 74 75 75 75 74 72 71 70 68 66 64 63 61 60 59 58 56 55 54 54 53 54 55 56 57 58 58 58 58 58 58 58 58 57 54 51
69 70 71 72 73 74 75 76 76 76 76 73 71 69 68 66 65 63 62 61 60 58 57 56 55 54 54 55 55 57 59 60 59 60 61 61 58 57 58 57 55 53
72 72 73 73 75 76 77 78 78 78 77 75 72 70 68 67 65 64 63 61 60 58 56 55 54 54 55 55 55 56 58 60 61 61 64 64 61 58 58 57 55 54
74 74 74 74 76 77 78 79 79 79 78 76 74 71 69 67 65 64 62 60 59 56 55 53 53 54 55 55 55 56 58 60 61 62 65 67 67 65 62 60 57 55
75 74 74 75 77 78 80 80 80 81 80 78 75 73 70 68 66 64 62 60 58 56 54 53 53 55 56 55 56 57 58 60 61 62 65 67 67 67 64 61 59 56
75 74 75 76 78 80 81 82 82 82 81 79 77 74 71 70 67 64 62 60 59 57 55 54 55 56 57 57 57 58 58 59 60 62 64 65 65 64 62 60 57 55
77 76 77 78 81 83 83 84 84 83 82 80 77 75 73 71 68 66 63 61 60 58 56 56 57 58 59 58 58 58 58 60 62 63 63 63 62 61 59 56 54 52
79 79 79 81 84 85 86 86 86 85 84 81 79 77 74 71 68 66 64 61 59 58 57 57 58 60 61 61 60 60 61 63 64 64 63 62 60 58 55 51 49 48
81 81 81 83 86 87 88 88 87 87 85 82 80 76 72 69 67 64 62 61 59 59 58 58 59 61 62 62 62 63 66 67 65 64 63 61 59 56 52 48 45 44
82 82 83 85 87 88 89 89 89 88 86 83 79 75 71 69 66 62 62 62 61 60 60 59 60 62 63 62 63 67 70 69 67 65 63 61 58 54 50 45 42 41
83 83 85 86 87 89 90 91 91 89 86 82 78 73 70 69 65 63 64 63 61 61 61 60 61 63 63 63 66 70 71 70 68 66 63 60 56 51 47 43 40 39
84 85 86 87 88 89 90 92 92 90 86 81 77 72 69 66 64 64 65 63 61 62 63 63 63 63 63 66 69 71 71 70 69 66 63 60 55 49 45 41 38 37
85 87 88 89 89 89 91 92 92 90 85 79 75 71 67 64 64 65 66 63 61 63 65 65 65 65 66 68 70 71 71 71 70 67 64 60 55 49 44 40 37 36
87 89 90 91 91 91 92 92 91 89 84 77 73 71 67 65 65 66 66 63 63 66 68 67 67 67 68 70 71 71 71 71 70 68 65 60 56 51 45 40 37 35
88 90 92 93 93 92 92 92 91 88 81 75 72 70 67 65 67 67 66 65 65 68 70 69 70 71 71 71 71 72 72 71 71 69 64 59 55 51 46 41 36 34
89 92 94 94 94 94 94 92 90 85 79 74 72 69 67 66 68 69 68 67 68 71 71 70 72 74 73 73 74 74 73 72 72 69 63 58 55 51 46 40 35 33
91 93 94 95 96 95 94 92 88 82 76 73 70 68 67 67 69 71 70 70 72 74 73 73 75 76 76 76 77 76 74 73 72 69 62 57 54 50 45 39 34 32
93 94 95 96 96 96 94 90 82 74 71 71 69 67 67 69 72 73 72 72 74 75 73 75 78 79 78 78 78 78 77 75 73 69 61 56 54 50 44 38 32 30

ECMWFNIL_250_spd_021.txt.gz
Wind_Speed
52 53 54 56 53 50 54 58 58 59 60 60 62 64 65 66 67 67 67 67 66 64 62 59 57 54 51 48 45 43 42 40 41 41 41 42 43 43 44 45 45 44
54 55 57 60 54 48 54 60 61 62 62 62 64 65 67 68 69 69 69 69 68 67 65 62 60 57 53 50 47 45 43 42 41 41 41 41 43 44 44 45 45 45
55 56 59 62 54 47 53 62 63 65 65 64 66 67 69 70 71 72 72 72 71 69 67 65 62 59 56 53 49 46 44 43 42 41 41 41 42 43 44 45 45 45
57 58 60 62 54 49 55 62 65 67 67 67 68 69 71 72 73 74 75 75 74 72 70 67 64 61 57 54 50 47 44 42 42 41 41 41 42 43 44 45 45 46
58 59 61 63 57 53 56 61 67 69 68 69 69 71 73 74 75 76 77 78 77 75 73 70 66 63 59 55 50 47 44 42 41 41 41 41 41 42 43 44 45 46
60 61 64 65 59 54 55 62 68 70 70 71 71 72 74 75 77 78 79 80 79 78 76 72 69 65 60 55 51 47 45 42 40 40 40 40 41 42 43 43 45 46
61 63 66 63 55 53 57 63 70 71 71 72 73 74 76 78 79 80 81 82 81 80 78 74 71 66 60 55 51 48 45 43 41 40 40 40 41 42 42 43 44 46
62 65 66 59 54 56 61 66 72 72 72 74 74 76 78 80 82 83 84 85 84 83 80 75 71 66 60 54 50 48 45 43 41 41 42 42 42 42 43 44 45 46
63 66 67 60 57 60 64 69 73 73 73 74 75 77 80 81 84 85 86 87 86 84 80 75 70 65 60 55 50 47 44 42 41 42 42 42 43 43 43 45 46 47
64 69 68 61 60 63 67 72 74 73 75 76 76 78 80 82 84 85 85 86 86 84 81 75 69 65 60 54 49 45 43 42 42 42 43 42 43 43 44 45 48 50
66 69 65 61 63 65 69 74 75 74 76 76 77 79 81 83 85 86 87 87 86 84 80 74 68 64 60 53 48 46 45 44 44 43 43 43 44 44 44 46 49 52
67 67 63 62 65 68 72 76 76 76 77 77 78 81 83 85 87 88 89 89 86 84 79 73 67 63 59 53 49 48 47 46 45 44 44 45 45 45 45 48 51 53
67 66 64 66 69 71 74 77 77 77 78 79 80 83 85 87 89 91 92 91 88 85 79 72 67 63 59 54 51 50 48 47 46 46 46 46 46 47 48 51 52 53
67 65 65 68 72 73 75 77 77 77 79 80 81 84 87 88 91 93 94 94 91 87 79 71 66 63 60 56 53 52 50 49 48 48 49 49 49 50 52 53 54 54
65 62 65 71 74 74 76 78 77 77 80 81 82 86 88 90 94 95 94 93 90 84 76 68 64 63 61 58 55 54 53 52 51 51 51 52 53 54 55 55 56 56
60 62 69 74 75 75 78 79 76 77 82 81 83 88 90 91 95 93 91 90 86 78 70 65 63 62 62 60 57 56 56 55 53 54 54 54 56 57 57 57 56 56
62 68 73 75 75 78 80 76 74 79 83 82 85 90 91 93 93 92 91 88 80 71 66 64 63 63 63 62 61 60 59 57 56 56 57 57 58 60 59 58 57 55
69 74 75 75 77 79 77 73 76 81 82 82 87 92 93 94 93 93 92 85 75 68 66 65 64 64 64 64 63 62 62 60 60 60 59 59 61 62 62 60 58 55
75 75 74 75 77 76 74 75 78 81 81 83 89 94 96 97 95 94 90 81 72 70 70 70 68 66 65 64 64 64 64 62 63 63 61 62 65 65 63 62 59 56
75 74 73 75 76 76 76 78 80 81 82 85 90 96 99 98 93 89 84 78 73 73 74 73 70 67 66 65 65 63 61 61 65 65 63 65 68 67 65 63 60 57
74 73 73 74 75 77 77 78 80 81 83 87 93 98 97 93 88 84 82 78 74 72 72 71 70 69 68 65 62 59 59 63 69 69 67 68 69 67 65 63 60 57
73 73 73 74 76 77 77 78 80 82 85 90 95 94 89 85 85 86 84 78 72 68 68 71 72 69 66 62 59 59 63 71 75 74 72 72 71 68 66 64 59 56
74 75 73 74 77 77 76 79 81 84 88 91 91 86 80 80 87 90 85 76 72 71 71 73 73 68 64 64 66 69 74 79 81 79 78 77 74 71 67 63 59 56
75 74 72 74 77 76 77 80 84 87 88 86 82 78 76 80 88 90 81 73 74 76 77 77 75 71 71 74 77 81 85 86 86 85 83 80 76 71 67 62 58 55
75 73 72 75 76 75 77 82 85 83 79 76 76 75 74 77 82 82 78 76 78 81 82 81 79 78 79 81 85 89 91 91 90 87 84 80 75 70 66 62 58 53
73 72 73 76 75 75 79 82 79 72 69 73 79 77 72 73 79 85 88 88 89 89 87 83 81 82 84 87 91 94 94 93 90 86 82 79 73 68 65 62 57 52

ECMWFNIL_250_spd_024.txt.gz
Wind_Speed
42 44 45 46 48 50 52 53 54 55 55 52 52 55 58 61 63 64 65 65 65 66 68 72 76 78 80 79 78 78 74 66 59 52 45 39 36 35 36 38 39 41
45 46 47 48 49 51 53 55 56 56 55 53 54 57 59 61 63 65 67 66 66 68 70 73 77 80 81 81 81 82 78 67 58 52 46 40 36 34 34 35 36 38
46 47 48 50 51 52 54 56 57 58 56 55 57 60 61 62 64 66 68 68 68 70 72 74 79 82 83 84 84 85 80 67 55 51 46 40 36 34 32 32 33 34
48 48 50 52 53 53 55 57 59 60 58 57 60 62 62 64 65 66 70 71 69 71 74 76 80 84 85 87 88 85 78 65 53 48 44 39 35 33 32 30 30 30
49 50 53 55 56 56 57 59 60 62 60 59 61 64 64 65 66 67 71 72 70 72 76 77 81 85 87 89 89 82 73 62 51 46 42 36 34 33 31 29 29 29
50 52 55 57 57 58 58 60 62 64 63 60 62 65 65 66 68 69 72 72 70 73 76 77 81 86 88 90 85 75 67 59 49 43 40 35 33 33 31 30 29 30
52 54 56 57 58 59 60 61 63 65 63 60 63 65 66 68 69 70 73 72 71 74 76 77 81 87 88 86 80 70 63 57 48 42 40 36 34 34 32 31 31 31
55 56 57 58 59 60 61 62 65 66 62 60 63 65 66 69 70 71 74 72 73 77 78 79 83 87 85 80 77 72 64 58 52 46 42 39 36 35 33 33 32 32
58 59 60 60 60 60 62 63 65 65 61 60 64 66 67 70 70 72 74 74 76 78 79 81 84 85 82 77 77 77 66 59 57 52 46 42 38 37 35 34 33 33
59 60 61 60 60 62 63 63 63 63 61 61 64 66 69 71 70 73 75 75 77 78 79 82 83 83 81 76 78 78 68 61 59 54 50 46 42 39 36 35 35 35
60 61 61 61 62 63 63 63 63 63 61 62 65 67 70 71 70 72 75 75 76 78 80 81 81 81 80 78 80 77 68 62 59 55 52 49 45 41 38 37 37 37
60 61 62 63 64 65 64 64 64 62 61 62 66 69 71 71 70 72 74 73 74 78 79 77 79 82 81 81 84 78 69 67 64 60 55 50 46 42 39 37 37 39
62 63 64 65 66 65 65 66 64 61 61 64 67 70 72 72 71 72 73 72 73 76 75 74 78 82 81 84 86 82 77 74 70 66 61 53 48 43 39 38 41 46
64 65 66 66 66 65 66 66 63 61 62 65 68 71 73 73 74 74 72 71 72 72 70 73 79 81 82 85 87 86 84 81 76 71 66 60 53 48 45 47 50 53
65 67 67 65 63 64 65 64 62 62 64 67 70 73 75 75 75 74 71 71 71 68 69 75 79 81 85 88 89 91 91 90 87 83 77 70 63 56 54 54 54 55
66 65 62 59 60 63 64 62 62 64 67 70 73 75 77 77 76 73 71 72 70 67 70 76 78 81 87 88 90 94 96 96 97 94 89 82 74 67 61 57 56 58
64 60 56 56 61 63 61 61 63 67 70 73 74 76 79 79 76 72 72 73 71 69 72 75 76 82 89 89 89 93 97 98 99 98 94 88 80 74 68 63 62 63
61 58 56 58 62 62 61 64 68 70 72 73 74 78 80 79 76 72 72 73 72 72 73 74 79 86 90 89 89 93 98 99 99 99 96 90 82 76 72 68 68 68
59 59 59 61 63 64 66 69 71 71 70 71 75 78 78 76 74 72 72 73 74 74 75 77 84 89 89 88 90 95 99 100 100 100 97 89 82 76 73 72 72 72
61 61 59 62 68 71 71 70 69 69 69 71 76 77 75 73 71 71 72 73 75 77 78 80 85 89 90 90 93 98 102 102 102 100 95 88 81 77 75 75 75 76
60 59 60 68 73 73 71 69 69 69 70 72 76 77 75 73 71 71 70 70 74 79 81 82 86 90 92 93 97 102 104 103 103 99 92 85 80 78 77 77 78 79
57 60 66 73 73 70 69 70 70 70 72 75 77 78 77 74 72 71 69 70 77 82 82 85 90 93 94 96 100 104 104 103 102 97 89 84 80 79 79 80 80 80
59 67 74 74 71 70 71 71 71 72 75 76 76 77 78 75 73 71 72 75 80 83 84 90 94 97 98 101 104 105 105 103 101 95 88 84 82 82 82 83 83 82
68 73 75 74 73 73 72 72 74 76 78 77 76 77 78 77 74 74 76 79 83 87 92 95 98 100 103 105 107 107 106 104 100 93 88 85 84 85 85 85 85 83
73 74 75 77 76 74 73 75 76 76 77 76 76 78 80 80 79 78 79 82 88 95 99 100 101 104 106 107 108 108 106 104 99 93 88 86 86 86 87 87 87 84
74 74 76 77 75 74 75 75 75 74 73 74 76 79 81 81 81 82 85 89 96 100 101 102 104 106 108 110 110 108 107 104 98 92 89 87 86 87 89 89 88 84

ECMWFNIL_250_spd_027.txt.gz
Wind_Speed
43 43 44 44 45 45 46 46 47 48 50 51 51 52 52 54 56 56 55 54 54 57 58 59 60 60 60 62 63 64 66 68 71 72 66 59 55 53 50 47 42 38
44 45 45 46 47 47 47 47 48 50 51 52 52 53 53 54 56 56 56 55 54 56 59 59 61 61 60 61 63 65 66 67 71 71 67 63 61 57 54 52 47 42
46 47 47 48 49 49 49 49 50 51 52 53 54 55 55 56 57 56 56 56 54 56 59 59 61 62 61 61 64 66 67 68 69 70 70 69 65 60 56 54 51 47
48 49 49 50 51 51 52 52 52 53 54 55 56 57 57 58 57 57 57 57 55 56 58 59 61 62 61 62 65 67 67 68 69 70 71 71 68 63 58 54 53 50
50 50 51 52 53 54 54 55 54 55 56 57 58 58 59 59 59 58 58 57 56 56 58 59 61 63 62 63 66 68 67 67 70 72 73 73 71 66 61 58 56 53
52 53 53 54 55 56 56 56 56 57 58 58 59 60 60 61 60 58 57 57 56 56 58 60 62 64 64 66 68 69 68 68 70 73 74 75 74 71 66 63 62 60
54 55 56 57 58 58 58 58 58 59 60 60 60 61 62 63 60 57 58 57 56 56 58 61 63 64 66 69 70 70 68 68 70 73 74 75 77 78 74 68 67 69
56 56 58 59 59 59 59 60 60 61 61 61 62 63 64 62 58 57 59 58 57 58 59 62 63 64 67 69 70 69 69 69 71 74 76 76 78 81 81 76 76 79
56 57 59 60 60 60 61 61 62 62 61 62 63 63 64 60 55 58 60 58 59 61 62 63 64 66 68 69 68 68 69 70 72 75 78 78 79 82 83 82 81 84
57 59 60 60 61 61 61 61 62 62 62 63 63 63 62 58 55 59 60 59 62 65 64 63 64 67 69 69 68 67 69 71 73 76 78 77 80 83 85 84 84 85
58 61 60 61 62 61 60 60 62 63 65 65 63 62 61 57 57 60 61 62 66 67 64 62 64 68 69 68 68 68 70 73 74 77 78 77 80 84 87 87 86 89
61 62 61 62 62 60 60 61 63 65 67 65 63 61 59 56 57 61 64 67 69 66 63 62 65 68 68 68 68 70 72 74 76 79 78 76 80 84 88 89 88 91
63 63 64 64 62 61 61 62 64 66 67 64 61 59 56 54 57 63 68 70 68 65 63 63 65 68 68 68 69 72 73 75 78 80 78 78 82 85 89 91 92 94
64 65 66 65 62 62 62 63 65 67 65 62 59 57 55 55 58 66 70 68 65 64 63 63 65 67 68 69 71 73 74 76 79 80 80 81 84 88 91 94 96 97
66 67 66 63 63 63 63 63 65 64 61 59 57 56 55 56 61 68 69 66 64 64 63 63 66 68 68 69 71 73 74 77 80 81 83 85 88 91 95 97 98 99
66 65 63 63 64 64 62 60 59 59 57 55 54 55 56 59 65 69 68 68 69 68 65 65 67 68 70 70 71 72 75 79 82 83 84 87 91 94 97 98 99 99
58 62 64 64 64 61 58 57 56 55 54 52 53 56 58 62 66 68 70 72 72 70 67 67 68 69 70 70 70 72 76 80 83 84 87 91 94 96 98 99 100 101
55 62 64 63 62 60 58 57 57 55 53 53 56 58 60 64 67 69 72 73 70 68 69 69 69 70 70 70 71 72 76 80 84 88 92 95 97 98 100 101 102 102
52 58 62 67 71 68 59 56 58 57 54 56 59 61 64 67 70 71 73 71 68 69 71 73 73 72 72 72 73 74 78 83 88 93 96 98 99 101 102 102 103 104
52 58 66 72 73 64 54 54 57 57 58 61 65 67 69 71 72 73 73 70 70 72 74 75 75 75 76 77 77 79 84 90 94 97 98 101 102 102 102 103 104 105
58 61 66 68 64 57 55 57 57 59 63 66 69 72 74 74 74 74 72 71 72 74 76 78 79 81 82 81 82 86 91 95 97 99 101 103 103 102 103 105 106 106
59 63 67 67 64 63 64 63 62 64 66 67 72 77 78 76 75 74 72 71 73 76 79 80 82 84 85 86 89 92 95 97 99 101 103 103 103 103 105 107 107 106
57 59 62 63 64 67 68 67 65 67 69 72 79 83 79 76 75 74 72 72 74 78 82 83 85 88 90 92 94 95 96 98 101 103 103 103 104 106 107 109 108 104
55 56 57 58 58 59 62 64 67 71 74 78 83 83 78 76 76 76 75 74 77 81 85 87 90 94 96 97 98 99 100 102 104 103 104 105 106 108 110 109 104 96
55 56 55 54 56 60 65 70 73 77 80 83 84 83 81 80 80 79 78 78 80 85 88 91 95 98 100 102 103 104 104 105 104 104 105 107 109 111 110 103 93 86
54 57 58 59 63 68 70 73 76 79 82 84 84 84 84 83 81 80 79 81 85 89 93 96 100 103 105 107 107 106 106 106 105 106 107 109 111 109 101 91 85 84

ECMWFNIL_250_spd_030.txt.gz
Wind_Speed
41 41 41 42 42 43 44 43 44 44 45 45 46 47 48 49 50 51 52 52 52 51 51 52 48 44 45 47 48 50 52 51 50 49 50 50 50 51 52 53 56 59
43 43 44 44 45 46 45 44 45 45 44 45 47 48 49 50 51 52 53 53 53 52 52 52 48 44 46 48 50 52 53 52 50 49 50 50 50 51 52 53 55 58
46 46 46 46 47 46 44 45 47 45 44 46 48 49 50 51 52 53 54 54 54 53 54 53 48 45 47 50 52 55 54 52 50 49 50 51 52 53 53 53 54 56
48 48 48 48 48 47 46 49 48 44 45 49 50 50 51 52 54 54 55 55 54 55 55 52 48 46 47 51 55 56 55 53 51 50 51 52 53 54 54 54 55 57
50 49 49 50 50 48 48 50 49 47 49 52 52 52 53 55 55 56 56 55 55 56 54 51 49 47 48 52 56 58 56 54 54 52 52 54 56 56 55 55 55 58
50 51 52 52 50 49 50 53 53 51 53 55 54 54 56 56 56 57 58 57 57 55 51 49 49 48 48 53 57 58 57 56 55 54 54 56 58 58 56 55 56 58
51 52 53 53 51 51 53 55 55 54 56 57 56 56 57 57 57 59 60 58 55 50 48 48 49 48 50 54 59 59 58 59 58 56 56 57 59 59 58 57 58 59
51 52 53 53 53 54 55 56 56 56 57 58 58 57 56 55 56 59 59 55 51 47 46 48 48 48 50 55 59 59 60 61 60 57 56 58 59 60 59 59 60 61
52 53 55 55 56 56 56 57 57 57 59 60 58 55 52 52 55 59 58 53 49 48 48 48 49 49 51 55 58 59 61 62 60 57 56 58 60 61 60 60 62 63
54 55 57 58 57 57 58 59 59 60 61 59 55 52 50 49 55 61 60 54 51 50 49 50 51 52 54 57 60 62 63 63 62 60 60 61 62 62 61 62 64 65
56 58 59 58 57 57 57 57 56 58 58 56 54 53 50 51 58 62 59 55 53 52 51 51 53 55 57 60 63 65 66 66 65 64 64 65 65 64 64 65 66 68
60 62 60 56 55 55 52 51 52 54 55 56 57 56 52 55 62 63 59 57 54 51 51 53 54 57 60 63 65 67 67 68 69 68 68 68 68 68 68 68 69 72
61 58 52 49 51 51 48 49 51 52 55 57 58 57 57 61 65 62 59 58 55 52 53 54 55 59 64 66 67 68 69 71 72 72 72 72 71 71 71 72 74 77
53 48 46 50 51 51 50 52 55 55 56 58 57 59 63 66 65 61 57 57 56 56 57 57 58 63 68 69 69 69 71 73 75 76 76 75 73 74 76 77 80 82
45 46 52 56 56 55 55 57 60 58 56 57 58 62 65 65 63 61 60 59 58 59 60 60 62 66 70 71 69 71 74 77 79 79 79 78 77 78 81 84 86 87
47 50 54 57 58 58 58 60 61 58 56 58 60 61 61 60 60 60 60 60 62 63 63 62 64 68 72 72 72 75 78 80 81 81 81 81 81 83 86 89 91 91
49 53 55 56 59 61 60 60 59 57 58 59 57 55 57 59 61 61 59 60 63 64 63 63 65 70 73 74 76 79 81 81 82 82 82 83 84 86 91 94 96 97
47 53 55 56 59 59 57 57 56 56 56 55 53 54 57 60 62 63 62 62 62 61 61 64 68 72 75 77 79 81 82 82 82 82 82 83 85 89 95 98 100 102
42 47 49 52 53 52 54 57 58 56 55 53 52 53 56 59 64 66 65 64 63 63 64 68 72 75 77 79 81 82 82 82 82 82 82 83 87 93 98 101 103 104
43 49 51 52 52 53 57 60 59 58 56 53 53 55 59 65 68 70 69 67 67 67 69 72 75 77 79 80 81 82 82 83 83 83 82 84 91 99 102 103 104 105
46 52 55 58 59 61 62 61 61 63 60 56 56 59 64 68 70 71 70 70 69 70 73 77 79 79 79 80 81 83 84 85 85 84 84 89 97 103 104 104 104 105
47 52 55 58 62 65 66 67 67 66 63 60 60 62 64 66 68 69 71 71 72 74 77 79 80 79 80 81 84 85 86 86 86 86 88 94 101 104 103 103 106 107
49 54 56 57 61 66 68 67 63 61 62 62 62 63 65 67 69 72 74 75 76 78 79 79 80 81 82 84 85 86 86 87 87 89 93 99 102 101 101 104 107 106
50 54 57 58 59 59 60 60 59 59 60 61 63 66 69 72 73 76 77 79 80 80 80 80 81 83 84 84 85 87 88 90 91 94 97 99 99 99 100 103 104 102
53 55 59 60 61 62 61 61 62 62 63 66 69 72 74 75 77 79 82 84 84 83 82 82 82 83 84 85 87 90 93 93 94 95 95 95 96 98 99 99 98 97
61 61 61 62 66 68 63 55 56 62 68 72 73 74 76 79 81 83 85 85 84 82 81 81 82 83 86 89 92 94 93 92 92 92 92 94 96 97 96 95 94 95

ECMWFNIL_250_spd_033.txt.gz
Wind_Speed
39 39 39 39 40 40 40 41 41 42 42 42 42 44 46 45 45 44 44 45 47 45 42 41 42 42 40 37 36 37 39 39 38 39 41 43 45 46 47 47 45 44
39 40 39 39 40 40 41 41 42 42 43 43 44 45 47 47 47 46 45 46 45 39 37 40 41 40 38 37 38 39 40 40 41 41 42 44 46 47 49 49 47 46
40 40 40 40 41 41 42 42 42 43 44 44 45 47 48 48 47 45 44 43 39 33 34 39 40 39 39 39 41 42 41 42 43 43 43 46 47 49 51 51 50 50
40 41 41 41 42 43 43 44 44 45 46 47 48 48 45 43 43 41 39 38 37 34 35 39 41 42 42 41 42 43 43 43 44 43 45 47 48 50 52 53 52 52
42 42 42 43 44 45 46 46 46 47 48 48 45 40 38 40 42 41 39 40 42 40 38 40 42 42 42 43 44 44 44 44 44 45 47 48 49 51 53 54 54 54
43 44 44 45 46 47 48 48 48 48 46 41 37 35 37 42 42 41 42 44 45 45 43 43 43 43 43 45 45 44 44 45 45 47 49 50 52 53 55 56 56 56
45 46 47 48 49 51 51 50 47 42 37 35 35 37 39 40 39 41 45 48 49 49 46 45 47 48 48 48 45 44 44 45 46 48 50 53 54 55 57 58 57 58
47 48 50 52 53 52 49 44 40 37 35 37 38 38 39 39 40 43 49 52 53 50 47 48 51 52 52 50 47 45 45 46 47 49 51 54 56 57 59 59 58 60
48 50 52 53 52 47 41 36 35 36 38 40 41 42 42 43 45 48 53 55 53 50 49 51 52 53 53 52 49 47 47 48 49 50 51 54 56 59 60 60 60 64
46 49 51 48 43 41 39 37 38 41 45 46 48 49 49 48 49 51 54 56 54 52 51 51 51 53 53 52 49 48 49 50 50 50 51 54 57 59 60 61 64 67
44 47 48 46 45 47 49 49 49 50 49 48 49 50 50 50 49 50 52 53 53 52 49 48 51 53 52 51 50 50 51 51 50 49 51 55 57 59 62 65 67 69
46 47 49 51 54 57 57 56 55 53 50 48 49 50 50 50 49 49 50 50 48 48 45 46 51 53 52 53 54 54 55 55 54 53 55 59 61 63 66 68 69 71
50 50 53 56 57 57 56 56 54 52 51 52 52 52 52 51 49 49 49 47 45 44 46 49 53 55 56 58 59 59 59 58 59 60 61 64 66 68 70 71 71 74
52 52 55 58 58 57 56 56 53 50 51 53 53 54 54 53 53 53 52 50 48 50 54 57 58 60 62 63 62 61 61 61 63 64 66 68 70 71 72 73 75 77
51 48 49 52 54 53 52 52 50 48 48 50 51 53 54 55 55 56 57 58 59 60 62 63 62 63 65 64 63 62 63 64 66 67 69 71 72 73 75 76 77 79
48 43 43 48 51 51 52 54 55 53 52 53 54 57 58 59 60 62 64 65 64 63 64 64 64 64 64 64 63 64 65 67 69 70 71 73 75 76 78 78 78 78
47 43 44 50 54 56 58 60 62 61 61 62 63 64 64 64 65 67 69 69 66 66 67 67 66 66 65 65 65 66 67 69 70 73 75 76 77 77 78 77 77 76
50 48 48 51 54 56 58 60 61 61 62 64 65 66 67 67 68 69 70 70 69 69 69 69 68 67 67 66 66 67 69 71 73 75 76 77 77 77 76 76 76 77
52 51 50 51 53 55 56 57 59 60 61 63 65 66 68 70 71 72 72 72 72 70 69 68 67 66 65 66 67 68 70 72 74 76 76 77 77 76 75 75 77 80
53 54 53 53 54 56 56 56 58 59 61 64 66 68 69 70 70 71 71 71 70 68 67 67 66 65 65 67 69 71 73 74 75 76 77 77 77 76 76 77 80 82
56 57 57 56 56 58 59 59 60 62 63 66 68 70 70 70 70 70 70 69 69 69 69 71 71 70 69 70 73 75 77 77 77 77 77 77 77 76 77 79 80 82
60 60 60 60 60 60 60 60 61 62 64 66 68 70 72 73 72 71 71 70 72 74 76 77 78 76 74 75 77 79 78 77 77 77 76 74 75 75 77 80 81 82
62 63 62 63 63 62 62 62 62 63 64 65 66 68 70 72 73 73 73 73 74 77 80 82 82 80 79 80 81 81 79 77 77 75 71 69 72 75 78 81 81 81
65 66 66 67 66 65 66 65 64 65 66 65 66 68 70 71 72 74 75 76 76 77 78 79 80 81 81 82 82 80 77 76 76 73 69 70 75 79 80 81 80 80
68 68 69 70 69 68 67 67 67 68 69 68 68 70 72 74 74 75 75 76 75 74 74 74 76 79 80 79 78 76 76 76 76 75 74 76 80 82 82 82 81 80
69 70 70 70 70 70 69 69 68 67 67 68 69 71 74 76 76 74 71 69 69 70 71 72 73 74 74 73 74 76 77 77 77 77 78 81 83 84 84 83 83 83

ECMWFNIL_250_spd_036.txt.gz
Wind_Speed
32 32 33 34 34 35 35 36 36 38 39 40 41 42 42 43 40 32 27 28 31 32 31 30 32 34 37 40 42 43 41 38 37 38 40 42 41 40 41 43 44 46
33 33 34 35 36 36 36 37 38 40 41 43 44 44 44 41 35 28 28 31 32 32 32 32 35 38 40 42 43 43 43 41 41 43 44 44 42 42 42 44 45 46
34 34 35 37 37 38 38 39 40 42 44 45 43 42 39 34 30 29 32 33 32 33 34 36 39 42 43 44 44 44 44 44 45 47 47 47 45 45 45 46 47 47
36 36 37 38 39 40 41 41 42 43 45 45 40 35 31 29 31 35 37 37 37 37 38 39 41 43 45 45 45 46 46 47 49 50 50 48 48 48 49 49 47 46
38 38 39 40 41 42 42 42 42 44 47 44 36 30 30 34 39 42 42 42 42 42 43 43 42 44 46 46 45 47 48 49 51 53 53 51 51 53 53 50 46 45
40 41 41 42 42 43 43 43 44 46 47 44 37 36 40 45 46 46 45 43 43 45 45 45 43 45 47 46 45 46 48 50 53 55 55 54 55 56 53 50 46 45
43 43 43 43 44 44 44 45 45 44 44 44 43 45 49 51 50 48 47 44 43 45 46 46 47 47 48 46 45 45 47 51 56 57 56 56 56 55 53 51 49 48
45 45 45 45 46 45 45 46 46 44 44 46 48 50 52 52 51 49 48 45 45 46 48 49 49 49 47 46 46 47 50 54 57 59 58 57 56 55 54 53 52 50
47 46 46 47 49 48 47 48 49 49 48 48 49 50 50 50 49 48 48 47 47 48 50 51 50 49 47 47 49 49 51 55 59 60 60 58 57 57 56 55 53 52
49 48 48 49 50 50 51 51 50 49 48 48 49 49 48 49 47 45 46 47 48 50 51 51 51 50 48 49 51 50 52 57 61 61 61 61 60 59 57 55 55 55
52 51 51 52 53 54 54 51 47 47 49 51 51 50 49 49 46 45 46 48 49 50 50 51 51 51 52 53 53 52 55 60 62 62 62 62 61 59 58 57 57 57
54 54 54 56 57 57 55 51 49 51 54 54 54 53 53 54 53 53 54 54 54 53 53 54 54 56 57 55 52 53 59 62 63 63 63 62 61 60 60 59 58 59
55 55 57 60 60 59 58 55 53 55 55 54 54 54 55 57 58 59 60 60 59 59 58 58 59 59 59 57 56 59 63 64 64 64 63 62 62 62 61 60 60 61
56 56 58 61 63 62 61 58 56 55 55 54 53 53 53 55 57 58 59 59 59 59 59 59 59 60 60 60 62 64 64 64 63 63 63 63 63 63 63 63 63 64
58 58 58 60 62 63 61 59 57 55 55 55 54 54 55 56 57 58 59 59 59 59 60 60 61 62 62 63 64 63 62 62 62 62 63 64 64 65 66 66 67 69
59 60 59 58 60 61 60 58 56 54 54 54 55 56 58 59 60 61 61 61 60 61 62 63 64 65 65 65 63 61 60 60 61 63 64 66 67 69 70 72 73 74
60 60 59 57 57 58 59 57 56 55 55 54 55 57 59 60 62 63 61 59 60 62 64 65 66 67 67 65 63 61 61 62 64 67 69 71 72 74 75 76 76 76
61 60 59 57 56 56 57 57 56 56 56 56 58 59 60 62 64 64 62 61 63 65 66 67 68 68 68 67 65 63 63 64 66 68 71 74 75 76 77 76 76 75
62 60 58 57 55 55 56 56 56 56 57 58 59 60 63 64 65 66 65 65 66 67 68 69 70 69 69 67 66 64 64 65 67 70 72 73 74 75 74 74 74 74
62 60 58 56 55 55 56 56 57 58 59 60 61 63 64 62 64 67 63 61 64 66 67 69 69 69 69 69 69 68 68 70 71 71 72 72 72 72 72 73 73 73
62 60 58 56 56 56 57 57 59 60 61 62 63 63 61 59 63 65 59 59 64 66 67 69 69 68 69 69 70 71 71 72 72 71 70 70 70 71 72 73 73 75
62 60 58 57 57 58 58 60 61 62 64 65 64 64 63 60 60 61 59 61 65 66 67 68 67 67 68 68 69 70 71 71 70 68 68 68 70 72 73 74 75 77
62 60 59 58 58 59 61 62 63 64 66 68 67 68 67 60 56 58 61 63 66 67 67 67 67 68 68 68 69 70 69 68 67 66 68 70 71 73 75 76 78 79
62 61 60 59 60 61 62 64 65 66 68 70 70 70 69 64 61 62 63 65 68 68 66 67 68 68 67 67 68 68 67 66 66 66 68 70 72 74 77 79 80 81
64 63 62 61 62 64 65 66 68 69 70 72 73 72 69 67 67 67 66 67 68 65 65 67 66 65 65 66 67 68 68 66 66 68 70 72 75 78 79 80 81 83
66 65 65 64 65 66 67 69 70 71 72 73 73 72 70 70 69 67 66 65 63 63 64 62 59 60 63 65 67 69 69 68 68 71 75 77 79 80 80 82 85 87

ECMWFNIL_250_spd_039.txt.gz
Wind_Speed
29 30 30 31 31 32 33 34 34 35 36 37 37 38 39 39 38 36 33 29 29 34 40 43 44 45 45 44 43 41 41 42 45 49 52 52 51 51 51 51 52 52
30 32 32 32 32 33 34 35 36 36 38 39 40 40 41 42 41 39 36 35 39 45 48 49 48 48 47 47 46 45 43 44 46 49 52 53 52 53 53 54 55 54
32 33 33 33 33 34 35 36 37 38 39 41 41 42 43 45 44 42 40 40 44 47 49 49 49 48 46 46 47 46 45 46 47 49 51 51 52 54 56 57 57 56
35 35 34 34 35 36 37 38 39 39 41 42 44 45 46 46 45 42 41 41 43 45 46 47 48 46 44 44 45 46 46 47 47 48 48 49 51 55 58 59 59 58
36 36 35 36 37 38 39 40 40 41 42 44 45 46 47 46 43 42 41 43 45 45 45 46 46 45 45 46 48 48 47 48 48 48 48 47 50 56 60 60 60 59
38 37 37 38 39 40 41 42 42 43 43 45 46 48 48 48 46 46 46 47 48 47 46 47 47 47 49 51 52 51 50 50 50 49 48 47 50 57 61 61 61 59
39 39 39 40 42 42 43 44 44 44 45 46 48 49 50 50 49 49 48 47 47 47 47 48 49 49 51 53 54 53 53 52 52 51 50 48 51 57 60 60 61 60
41 41 42 43 44 45 45 46 46 47 47 48 50 51 52 51 50 49 48 47 46 46 47 48 50 50 52 53 53 53 53 53 53 53 52 51 53 56 57 59 61 62
43 44 44 45 46 46 46 48 48 48 49 50 51 53 53 52 51 50 49 47 46 46 47 48 49 50 51 52 53 53 54 53 53 52 51 51 52 54 56 60 62 63
45 46 46 47 48 48 49 50 50 50 51 51 53 55 55 54 52 51 49 47 46 46 46 47 48 50 51 52 53 54 55 54 52 50 48 50 53 55 57 59 60 59
48 48 49 49 49 49 51 52 53 53 53 53 54 56 56 55 53 51 49 48 47 46 47 48 50 52 53 54 55 56 55 55 54 52 52 53 55 56 56 56 56 57
50 51 51 51 51 51 52 54 54 55 55 56 56 56 57 56 54 52 50 49 48 48 49 50 52 53 54 55 57 57 57 57 56 55 55 55 55 54 54 53 54 56
53 53 54 53 53 53 54 55 56 57 57 58 57 57 57 56 54 53 51 50 50 50 51 53 54 56 57 57 56 57 59 59 58 57 56 55 55 55 55 55 57 60
55 56 56 56 56 56 56 57 58 58 59 59 58 57 57 56 55 53 52 52 52 53 54 56 57 57 57 56 56 60 62 60 57 56 57 58 58 59 59 59 60 62
57 58 58 59 59 59 58 58 59 60 60 59 59 57 56 56 55 54 54 54 54 55 56 57 57 57 57 58 61 63 62 57 54 57 60 61 62 63 63 63 64 65
59 59 60 60 61 61 61 61 61 61 61 60 59 58 56 56 55 55 55 55 55 57 58 58 59 58 58 61 62 61 57 54 56 61 64 65 67 68 67 67 66 66
61 61 61 61 61 62 62 63 63 63 62 61 60 58 57 57 56 55 55 56 57 59 59 60 61 60 60 61 60 58 56 57 61 66 67 69 71 70 69 68 67 66
64 64 64 63 62 62 63 64 64 64 63 62 60 58 58 57 57 56 56 57 59 60 61 63 63 62 61 60 58 58 60 62 66 69 70 71 71 69 68 67 66 66
66 66 66 65 65 64 64 64 64 64 63 61 60 59 58 58 58 58 58 59 61 62 64 64 63 61 59 57 58 60 63 65 68 70 70 71 70 68 66 65 64 65
68 67 67 67 66 66 66 65 65 64 63 62 60 59 59 59 59 60 61 62 62 62 65 65 61 59 58 59 61 63 65 67 69 69 69 69 68 66 65 64 64 65
69 69 68 68 67 67 67 67 66 65 64 62 61 60 60 60 61 61 62 63 62 63 65 63 59 59 63 64 64 64 65 67 68 68 68 67 66 64 64 64 65 66
71 70 70 69 68 68 68 68 67 66 65 64 62 61 60 61 63 63 64 65 64 63 62 59 59 63 66 65 66 66 65 66 67 67 66 64 62 62 64 65 67 68
73 72 71 70 69 69 69 68 67 67 66 65 64 63 62 62 64 65 65 66 66 65 65 63 62 64 64 64 66 66 64 65 66 64 60 59 60 62 65 67 69 72
75 74 73 72 71 70 69 68 68 67 66 66 66 65 64 64 65 67 67 66 67 68 67 62 59 62 66 66 66 64 63 63 60 57 57 58 60 64 69 71 74 75
78 76 75 74 72 71 70 69 69 68 68 67 67 66 66 65 66 68 69 68 69 68 64 60 61 67 70 68 65 65 64 59 52 50 56 61 64 68 72 75 77 78
80 78 76 74 73 72 71 70 70 69 68 68 68 68 68 68 67 69 70 71 71 68 65 65 69 71 70 68 69 70 67 58 50 50 55 60 65 70 73 76 79 81

ECMWFNIL_250_spd_042.txt.gz
Wind_Speed
26 27 27 28 28 28 30 31 32 33 34 35 36 38 38 38 39 40 41 42 43 43 43 43 43 43 43 42 42 42 42 41 41 42 43 44 44 45 44 42 40 41
28 28 29 29 29 30 31 32 33 34 35 36 38 39 40 40 41 42 43 44 45 46 46 46 46 46 45 44 43 42 42 42 43 43 44 45 45 46 46 45 42 41
29 29 30 30 31 31 32 33 34 35 36 37 39 40 41 42 43 44 45 46 48 48 47 47 47 47 47 46 45 43 43 43 43 45 45 46 47 47 47 47 45 44
31 31 32 32 33 33 34 35 35 36 37 39 40 41 43 43 44 45 46 48 49 50 49 48 47 47 46 46 45 45 45 44 45 46 48 48 49 49 49 47 46 47
33 34 34 35 35 36 36 36 37 38 39 40 41 43 44 45 46 46 47 48 50 51 50 49 47 47 46 45 45 45 45 46 47 48 49 51 52 52 51 49 48 49
35 36 37 37 38 38 38 38 39 40 41 42 43 44 45 46 47 48 48 49 51 51 52 50 48 47 46 45 44 44 45 47 49 50 51 53 54 53 52 51 51 51
38 39 39 40 40 40 40 40 41 42 43 44 46 46 47 48 49 50 51 51 51 52 52 51 49 48 46 45 44 44 45 46 49 51 52 53 52 51 52 54 54 53
41 41 41 42 42 42 42 42 43 43 45 46 48 48 49 50 51 51 52 53 54 53 53 52 51 49 47 46 46 46 46 48 50 51 53 54 52 51 54 54 53 50
43 44 44 44 44 44 44 44 45 46 46 48 49 50 51 52 53 53 54 55 56 56 55 53 52 50 48 47 48 48 49 50 52 53 54 54 52 53 54 52 50 48
46 46 46 46 46 46 46 46 47 48 48 49 50 52 52 53 54 55 55 56 56 57 56 55 53 51 49 49 50 51 51 52 54 55 55 54 53 54 54 52 50 49
48 48 48 48 48 48 48 48 49 50 50 50 51 52 54 54 55 56 57 57 57 57 57 55 53 51 51 51 52 53 54 55 57 57 58 57 55 54 54 53 52 51
50 50 50 50 50 50 50 50 51 52 52 52 52 53 54 56 56 57 58 59 58 58 57 55 52 51 52 52 53 54 56 58 59 59 60 58 54 53 54 54 54 53
52 52 52 52 53 53 53 52 52 53 54 54 54 53 55 57 58 59 59 60 59 58 57 56 52 51 52 53 54 56 58 60 61 61 60 58 55 55 56 56 56 56
54 54 54 54 55 55 55 55 55 55 56 57 57 56 56 57 59 61 61 60 59 59 58 55 53 52 54 54 55 57 59 60 61 62 61 59 58 58 57 57 58 58
56 56 57 57 57 57 57 57 57 57 58 59 59 59 58 59 61 62 62 61 60 60 58 56 55 55 55 56 57 58 59 60 62 62 62 61 61 60 58 59 60 60
58 59 59 59 59 60 59 59 59 59 60 61 62 62 61 61 62 64 64 63 61 60 59 58 58 57 57 57 58 59 59 61 62 62 62 62 62 60 59 61 62 62
60 61 61 61 61 62 62 62 62 61 61 62 64 65 64 63 63 63 64 64 62 61 60 59 59 59 58 58 58 57 58 61 62 62 61 61 60 59 61 64 64 63
63 63 63 63 63 63 64 64 64 63 63 64 65 66 65 64 63 62 63 64 63 62 61 60 60 59 59 59 57 56 58 60 60 59 59 58 58 60 64 66 64 63
65 65 65 65 65 65 66 66 66 65 65 66 67 67 66 65 64 63 63 62 63 63 61 60 60 60 60 58 55 56 60 59 57 56 56 58 59 62 65 65 64 64
67 67 67 67 67 67 68 68 68 67 67 68 68 67 67 67 66 65 64 63 62 62 62 61 61 61 60 56 54 58 62 60 56 53 55 59 61 63 63 64 65 66
69 69 69 69 69 70 71 71 70 70 69 69 69 68 68 69 68 67 66 64 63 62 62 62 61 61 60 55 55 59 62 61 57 54 55 59 62 64 64 62 64 65
70 71 71 71 71 72 74 74 74 73 72 70 69 68 68 69 69 69 67 66 64 63 63 62 62 63 61 54 54 59 61 61 59 56 58 63 65 65 63 61 63 63
71 72 73 73 74 75 76 77 76 76 74 72 70 68 68 68 70 69 68 67 67 65 63 62 63 65 61 56 58 62 62 62 62 60 63 66 64 61 60 62 64 63
72 73 75 76 77 78 79 79 79 78 76 75 72 70 69 68 69 69 68 68 68 67 65 64 65 67 65 64 65 66 64 66 67 65 64 63 59 57 60 64 66 64
73 75 76 78 79 81 81 81 81 79 77 76 74 73 72 69 68 69 68 68 69 68 67 66 67 69 69 69 68 66 66 69 68 63 59 57 56 59 64 68 68 67
76 77 78 79 80 81 80 80 79 78 77 77 77 76 73 71 69 69 69 69 69 70 69 69 69 71 72 71 70 69 69 71 67 59 56 57 61 64 68 70 71 68

ECMWFNIL_250_spd_045.txt.gz
Wind_Speed
22 22 22 23 24 25 26 27 28 28 29 31 32 32 33 34 35 35 37 38 38 39 41 42 42 43 44 45 45 45 44 43 42 40 39 38 39 40 41 42 43 44
23 23 24 25 26 27 28 28 29 30 31 32 33 34 35 36 36 37 38 39 40 41 42 44 44 45 46 46 46 46 45 43 42 40 39 39 40 41 42 44 45 46
25 25 26 27 28 29 30 30 31 32 32 33 34 35 36 37 38 39 39 40 41 43 44 45 46 46 47 47 47 46 45 43 41 40 40 40 41 42 43 45 46 47
27 27 28 29 30 31 31 32 33 34 34 35 36 37 38 39 40 41 41 42 43 44 45 46 47 48 48 48 48 47 45 43 41 40 40 41 42 43 44 45 47 48
29 29 30 31 32 33 33 34 34 35 36 37 38 38 39 40 41 42 43 44 45 45 47 47 48 49 49 49 49 47 46 44 42 41 41 42 43 44 45 47 48 49
32 32 32 33 34 35 35 36 36 37 38 39 40 41 41 42 42 43 44 46 46 47 48 49 49 50 50 51 50 49 47 45 43 42 43 43 44 45 47 48 49 50
34 35 35 36 36 37 37 37 38 39 40 40 41 43 43 44 45 45 46 47 48 49 50 50 51 51 52 52 51 50 49 46 44 43 43 44 45 46 48 49 50 51
36 37 38 38 39 39 39 39 40 41 42 42 43 44 45 46 47 47 48 48 49 50 51 52 52 52 53 52 52 51 50 48 45 43 43 44 46 47 48 49 50 51
39 39 40 40 41 41 41 41 41 42 44 44 45 46 47 48 49 49 50 50 51 51 52 53 53 53 53 53 53 51 49 48 47 44 43 44 46 48 50 49 50 52
42 42 42 42 43 43 42 43 43 44 45 47 47 48 49 49 50 51 51 51 52 52 53 54 54 54 54 54 53 51 50 49 48 46 45 46 48 50 50 49 50 54
45 45 45 45 45 45 44 45 45 46 47 48 49 50 51 51 52 52 53 53 53 53 54 54 55 54 55 55 53 51 50 49 48 49 50 51 51 52 51 49 51 55
48 48 47 47 47 46 46 47 48 48 48 49 50 52 53 54 54 53 54 53 53 54 55 55 55 55 54 55 54 52 50 50 50 52 54 53 51 51 52 51 53 56
50 50 50 49 49 48 48 49 50 51 51 50 51 53 55 56 56 55 55 54 54 54 55 56 57 56 55 56 56 54 51 52 53 53 54 53 52 52 54 55 56 57
53 52 52 51 50 50 50 51 52 53 53 52 52 54 56 58 58 57 56 56 55 55 56 57 57 57 56 56 57 56 54 54 54 53 53 52 52 54 56 57 58 59
55 54 53 52 52 52 52 53 54 55 56 56 55 55 57 58 59 59 58 57 56 55 56 57 57 56 55 55 57 57 56 55 54 53 54 53 53 55 56 58 61 62
57 56 55 54 54 54 54 55 55 57 58 58 57 58 59 60 61 61 60 59 57 56 57 58 57 55 54 55 56 57 56 56 55 56 56 54 54 57 59 61 63 63
59 57 56 56 56 56 56 57 57 58 59 58 59 62 62 62 63 63 63 62 61 59 59 59 58 57 56 56 57 57 57 58 58 57 55 53 54 58 60 61 62 62
61 59 58 58 58 59 59 59 59 60 60 60 62 64 64 64 64 64 65 65 64 63 63 62 62 60 58 58 58 57 58 59 57 55 53 52 55 59 61 63 63 63
63 61 61 60 60 61 62 62 62 62 62 63 64 65 65 66 66 66 66 66 66 66 65 65 64 62 60 60 58 57 59 58 54 53 52 53 57 62 65 65 65 65
65 64 63 63 62 63 64 64 64 64 65 65 66 66 67 68 68 68 67 67 66 66 66 66 66 64 62 61 58 58 58 53 50 51 51 53 60 67 67 66 66 67
67 66 65 64 64 64 65 66 67 67 67 67 68 68 69 70 70 69 69 68 67 67 66 66 66 65 63 61 59 56 53 49 50 53 54 58 66 70 68 67 67 66
69 68 66 65 65 65 66 68 69 68 68 68 69 70 71 71 72 72 71 70 69 68 67 66 67 66 64 62 58 53 48 50 55 57 60 66 70 69 68 68 67 67
71 70 68 67 66 66 67 69 69 69 70 70 71 72 73 74 74 74 73 72 71 70 68 68 68 67 65 62 59 55 53 56 59 61 64 68 68 68 69 68 67 67
73 72 71 70 68 68 68 69 70 72 73 74 74 75 76 77 77 77 76 76 74 72 70 69 68 67 66 64 62 61 60 61 63 64 66 67 67 68 68 67 67 66
76 75 74 72 71 70 70 70 71 74 75 75 75 77 78 79 79 78 78 77 76 74 72 70 68 67 66 65 64 65 65 65 66 67 67 68 69 69 68 68 67 66
78 77 76 74 73 72 72 72 73 75 75 75 76 77 78 79 78 78 77 77 76 75 73 71 69 68 67 67 67 67 68 68 69 69 69 70 70 69 69 69 69 67

ECMWFNIL_250_spd_048.txt.gz
Wind_Speed
16 17 18 18 19 20 21 21 21 22 23 24 26 27 29 30 31 32 33 34 36 37 38 39 39 39 39 39 39 40 40 41 41 41 41 40 40 39 38 36 35 36
18 18 19 20 20 22 23 23 23 24 25 26 27 28 30 31 32 33 34 35 36 38 39 40 41 41 41 40 41 41 41 42 42 43 43 42 42 41 40 38 37 37
19 20 21 22 23 24 25 25 25 26 26 27 28 30 31 32 33 34 36 36 37 39 40 41 42 42 43 42 42 42 43 44 44 44 44 44 44 43 42 40 39 39
20 21 23 24 25 26 27 27 28 28 28 29 30 31 32 33 34 35 37 38 38 40 41 42 43 43 43 44 44 44 45 46 46 46 46 46 46 45 43 41 40 40
21 22 24 26 27 29 29 30 30 30 30 31 32 33 34 34 35 36 37 38 39 40 42 43 44 43 44 44 45 46 46 47 48 48 48 47 47 46 44 42 41 41
22 23 25 28 29 31 31 32 32 32 33 33 34 35 36 36 37 38 39 39 40 41 42 44 45 45 45 45 46 47 47 48 49 49 49 49 48 46 45 44 43 42
24 25 27 29 31 32 33 34 34 35 35 35 37 38 38 38 39 40 41 41 41 42 44 45 46 47 47 46 47 47 48 49 49 50 51 50 49 48 47 45 44 44
27 28 29 31 33 34 35 36 37 37 37 38 39 39 40 41 41 42 42 43 43 43 44 45 47 48 48 48 48 48 48 49 50 51 51 51 51 49 47 46 45 44
31 31 32 33 35 36 37 38 39 39 40 41 41 41 42 43 43 43 44 44 45 44 44 46 47 48 49 50 50 51 51 51 51 52 52 52 51 49 47 46 45 45
34 34 35 36 37 38 39 40 40 41 42 43 43 43 44 44 45 45 45 46 46 44 45 47 48 48 50 50 52 53 53 53 53 53 53 53 51 49 49 48 47 48
37 38 38 38 39 40 40 41 42 42 43 45 46 46 46 46 46 47 47 47 47 46 47 49 49 49 50 51 53 54 55 56 56 55 54 52 51 50 51 50 50 49
40 40 41 41 41 41 42 42 43 44 45 46 47 48 48 48 49 49 49 49 49 49 49 50 50 50 50 52 54 55 56 57 57 56 54 52 51 51 51 51 51 50
43 43 43 44 43 43 43 43 44 46 47 48 49 49 49 50 51 51 51 51 51 51 51 52 52 52 51 52 53 55 56 57 56 55 53 51 51 50 49 51 53 51
45 45 45 46 46 45 45 45 46 48 49 50 51 51 51 52 53 52 52 53 53 53 53 53 53 54 53 52 54 56 57 57 57 55 51 48 47 47 49 53 54 51
46 47 48 48 47 47 48 48 48 49 50 50 51 52 53 54 54 54 54 54 55 55 54 54 54 54 54 54 54 55 58 58 55 50 44 42 44 48 53 57 58 55
48 49 49 49 49 50 50 49 49 49 50 50 51 54 55 56 56 56 56 57 57 57 56 55 54 55 56 55 53 55 56 53 49 46 45 45 48 54 60 63 63 60
51 51 51 51 51 51 50 49 49 50 50 51 54 56 57 58 58 58 59 59 59 59 58 57 57 59 58 55 54 54 49 45 47 51 53 54 57 60 64 66 64 62
52 51 52 52 53 53 52 51 52 53 54 55 57 57 58 59 60 61 62 62 61 62 62 60 60 61 60 57 54 50 44 48 56 59 58 58 61 64 65 64 63 63
52 52 53 54 54 54 54 54 55 56 57 58 59 59 60 61 62 63 65 64 64 64 64 63 63 63 62 60 54 48 48 56 62 59 57 58 61 63 64 64 64 64
53 54 56 57 57 57 57 57 58 59 59 60 61 61 62 63 64 66 67 66 66 66 66 66 66 66 64 62 58 53 52 56 56 56 58 62 65 65 65 65 65 65
57 58 59 60 60 60 61 61 61 62 62 62 63 63 64 65 66 67 68 69 68 68 68 69 69 68 67 65 62 58 54 51 54 59 63 66 66 64 64 65 65 64
62 61 62 63 64 64 64 65 65 65 65 65 66 65 66 67 67 68 70 71 70 70 71 71 70 69 69 67 65 63 59 56 58 63 64 63 63 63 64 65 65 64
65 65 65 66 67 67 68 69 69 69 68 68 68 67 68 69 69 70 71 72 73 73 73 73 72 71 70 68 67 67 65 63 64 64 63 63 64 65 65 65 64 64
67 68 69 70 70 70 71 72 73 72 72 71 70 69 69 70 70 71 72 73 74 75 74 73 73 72 71 70 69 68 67 67 67 65 64 65 66 65 64 63 64 65
70 71 72 73 73 73 74 76 76 75 75 73 72 71 71 72 72 72 73 73 74 74 73 73 74 73 71 70 69 68 67 67 67 67 67 66 65 62 61 62 64 64
72 73 74 75 76 76 78 79 78 77 77 76 74 73 73 73 74 73 73 73 73 72 72 74 74 72 70 70 68 67 67 68 68 67 66 63 61 61 62 63 64 63

ECMWFNIL_250_spd_051.txt.gz
Wind_Speed
11 9 8 8 9 10 11 13 14 16 17 19 20 22 23 24 25 26 27 29 30 31 32 32 33 34 34 35 36 37 38 39 39 40 40 40 40 40 39 39 39 39
14 13 12 11 11 12 12 13 15 17 18 20 22 23 24 25 26 28 29 30 31 33 33 34 35 35 36 36 38 39 39 40 40 41 41 41 41 41 41 41 41 40
16 16 15 15 14 14 15 15 16 18 20 21 23 24 25 27 28 29 30 32 33 34 35 36 37 37 37 37 39 40 41 41 41 42 43 43 43 43 43 43 43 42
18 18 18 18 18 18 18 17 18 19 21 22 24 25 27 28 29 30 32 33 34 36 37 37 38 39 39 39 41 42 43 42 43 43 44 45 46 46 46 46 45 43
20 19 19 20 20 20 21 20 20 21 23 24 25 26 28 29 31 32 33 34 35 37 38 39 40 40 41 41 42 44 45 44 44 45 46 47 48 49 49 48 46 42
22 21 21 22 22 23 23 24 24 24 25 26 27 28 29 30 32 33 34 35 36 37 39 40 41 42 43 44 44 46 47 46 46 47 49 51 52 53 52 49 44 39
25 25 24 24 25 25 26 27 27 27 28 29 29 30 31 32 33 34 35 36 37 38 40 41 42 44 45 46 47 48 48 48 48 50 53 54 55 56 53 47 40 37
29 29 28 28 28 29 29 30 30 30 31 31 32 32 32 33 34 35 37 38 39 40 40 42 43 45 46 47 48 49 50 50 50 53 55 56 57 58 53 43 36 35
31 31 32 32 32 32 32 32 33 33 33 33 34 34 34 35 35 37 38 39 40 40 41 43 44 45 47 48 49 50 51 52 53 54 56 57 58 58 51 40 36 38
33 33 34 35 35 35 35 34 34 34 34 35 36 36 36 36 37 38 39 40 41 41 42 44 45 46 47 48 49 51 52 53 55 55 56 57 58 56 48 40 40 44
34 34 35 35 36 36 36 36 36 35 36 37 37 38 38 38 39 39 40 40 41 42 44 45 46 47 48 49 50 51 53 54 56 56 56 57 57 54 48 44 46 50
36 36 36 37 38 39 39 38 38 37 37 38 39 40 40 40 40 39 40 41 43 44 46 47 48 48 48 49 50 52 55 56 56 56 57 58 58 54 49 48 51 53
38 38 38 39 40 41 41 41 40 39 40 40 41 42 41 40 40 40 41 43 45 47 49 49 50 49 49 49 50 53 56 57 57 57 58 61 61 56 51 49 50 50
41 40 41 42 42 43 44 43 42 42 42 42 43 43 42 41 42 43 44 46 48 50 51 51 51 50 50 50 51 53 56 58 58 58 61 64 61 53 47 46 49 51
43 43 43 44 45 46 46 45 44 44 43 45 46 44 43 43 44 45 47 48 50 52 53 54 53 52 51 52 53 55 56 58 59 60 64 63 55 47 44 48 53 55
45 46 46 47 47 47 47 47 47 46 46 47 47 45 45 45 46 47 49 50 52 54 55 55 55 53 53 54 56 56 56 57 59 62 64 58 51 48 49 52 55 55
48 47 47 48 48 48 49 49 49 48 48 49 48 47 48 48 49 50 51 52 54 56 57 57 56 55 54 57 58 58 58 57 59 62 61 56 53 52 52 54 56 55
49 48 47 48 49 50 51 51 50 50 51 51 51 50 50 50 51 53 53 53 55 58 59 59 58 56 56 59 60 59 59 59 59 61 59 57 57 55 53 54 55 54
51 49 49 50 52 52 52 52 53 53 53 54 54 54 54 54 55 55 54 55 57 59 61 62 60 57 57 60 61 61 61 61 61 60 57 57 58 54 53 54 52 54
53 53 53 54 54 54 53 53 54 56 56 56 57 58 58 59 59 58 58 59 59 61 63 63 62 59 58 60 60 61 62 63 62 59 57 57 56 52 52 52 52 59
56 56 57 57 57 56 55 55 56 58 60 60 60 61 62 62 62 61 61 61 61 63 64 64 63 61 59 59 59 59 61 62 60 58 55 52 50 53 54 52 56 67
59 60 60 60 60 58 57 57 59 61 63 64 65 64 64 65 65 65 64 64 64 65 66 66 65 63 61 59 57 58 59 57 52 52 53 51 52 57 57 56 63 73
63 63 63 63 62 61 60 60 62 64 66 68 69 68 67 67 67 67 66 66 67 68 67 67 66 64 62 60 57 56 57 52 46 45 47 50 53 55 57 62 70 73
68 67 65 64 63 63 63 64 65 67 69 71 71 71 71 70 69 69 69 69 70 70 69 68 67 65 63 60 59 56 54 50 47 44 43 46 48 52 60 68 71 70
71 69 68 66 65 66 67 68 68 70 71 72 73 74 74 73 71 71 71 72 72 72 71 70 68 65 63 62 60 57 52 49 51 52 50 51 52 57 64 68 67 67
74 72 71 70 69 69 70 70 71 73 74 74 75 76 76 75 73 74 74 74 74 74 74 72 69 66 65 63 61 58 52 48 51 55 54 54 57 61 63 63 64 65

ECMWFNIL_250_spd_054.txt.gz
Wind_Speed
12 11 11 10 10 11 11 12 13 13 13 13 13 13 13 14 16 18 19 21 22 23 23 25 26 27 29 30 32 33 35 36 37 38 39 39 40 41 42 42 42 39
14 13 13 13 12 13 13 14 15 15 15 16 16 16 16 16 17 19 20 22 23 24 24 25 26 28 29 30 32 34 35 37 38 39 40 41 42 43 44 43 43 42
17 15 15 15 15 15 15 15 16 17 17 18 18 18 19 19 19 21 22 23 24 25 26 26 27 28 29 31 33 35 36 37 38 40 41 42 44 45 46 46 46 46
20 19 18 17 16 16 16 17 17 18 19 20 20 21 21 21 22 23 24 25 26 27 27 28 29 29 30 31 33 35 37 38 39 41 42 44 45 47 48 48 49 50
23 22 20 19 19 18 19 18 18 19 21 22 23 24 24 24 24 24 26 27 28 29 29 30 30 31 31 32 34 36 39 40 41 43 44 45 47 48 50 51 51 52
25 24 23 22 21 21 21 20 20 22 23 24 25 26 26 27 26 27 28 29 30 31 31 31 31 32 32 33 35 38 40 42 43 44 45 46 47 49 51 52 53 54
27 27 26 25 24 24 24 23 23 25 26 28 28 28 28 29 28 29 29 31 33 33 34 33 32 32 34 35 36 39 41 43 44 45 46 47 48 50 52 53 54 55
29 29 28 28 27 27 27 27 26 27 28 30 30 30 30 30 30 31 31 32 34 36 36 35 34 34 35 37 38 40 42 43 44 46 47 47 48 50 52 53 54 55
32 32 31 30 30 30 30 29 28 28 30 31 31 31 31 31 32 33 33 34 36 37 38 37 36 36 37 39 40 41 43 44 45 47 48 48 49 50 52 53 54 54
35 35 34 34 34 33 32 30 30 30 31 31 32 32 33 33 34 35 35 36 38 39 40 39 38 39 39 40 41 42 44 45 45 48 49 50 50 51 52 52 53 54
37 37 37 37 36 35 33 32 32 32 33 33 33 33 34 35 36 37 37 38 40 41 42 41 41 41 41 41 42 44 45 45 46 48 50 51 52 52 52 53 53 53
38 38 38 37 37 35 34 34 34 35 35 35 34 35 36 37 38 39 39 40 41 43 44 43 43 43 43 43 43 45 46 46 47 49 51 52 53 53 53 54 54 52
38 38 38 38 37 37 37 37 37 38 38 38 37 37 38 39 39 40 40 42 43 44 45 45 45 45 45 44 45 46 47 47 48 50 52 53 54 55 55 54 54 51
39 39 39 39 39 39 39 40 40 40 40 40 39 39 40 40 40 41 42 44 45 45 46 46 47 47 47 46 46 47 47 47 49 51 53 54 55 57 56 56 54 49
41 41 42 42 42 42 42 42 42 42 42 42 42 42 42 42 42 42 44 45 46 46 47 48 50 50 51 51 50 49 49 48 49 52 54 55 56 57 58 58 53 46
44 44 44 44 44 45 45 45 45 45 45 45 44 44 44 44 43 44 46 47 47 48 49 50 51 53 54 55 54 52 51 50 50 51 53 55 58 58 58 55 49 44
47 47 47 47 48 48 48 48 48 47 47 47 47 46 46 46 46 46 48 49 49 49 51 52 53 54 56 57 57 55 54 52 52 52 53 57 59 58 56 54 49 47
49 50 50 51 51 50 50 50 49 50 50 50 49 48 47 47 48 49 50 51 51 52 53 54 55 57 58 59 59 58 57 55 54 53 54 58 60 58 56 55 53 51
52 52 53 53 52 52 52 51 51 52 53 53 52 51 50 50 51 51 52 53 54 55 55 56 58 59 61 61 61 61 60 58 56 55 55 59 61 61 59 55 53 51
55 54 55 55 54 53 53 54 54 55 56 56 55 54 52 52 52 54 55 56 56 57 58 58 60 62 63 63 63 64 62 60 59 58 58 60 63 63 61 57 55 51
58 58 58 58 57 56 56 56 57 58 58 58 58 57 57 55 55 56 58 59 59 59 60 61 63 65 65 65 66 66 65 62 61 61 62 63 65 65 63 60 55 50
62 62 62 62 61 60 59 59 60 60 60 60 60 60 60 60 59 60 61 62 62 62 62 64 65 67 67 68 68 69 68 65 62 63 65 66 67 67 64 61 56 51
65 65 66 66 65 63 62 62 63 63 62 62 63 63 63 64 64 64 64 64 65 65 66 67 68 68 69 70 71 71 72 68 65 64 65 66 67 65 61 58 55 53
69 69 70 70 69 67 65 65 66 66 66 65 65 66 67 67 68 68 67 67 67 68 69 70 71 70 70 71 73 74 73 71 67 66 66 66 66 63 58 54 52 52
74 73 72 72 72 71 69 69 69 70 69 69 68 68 70 71 71 71 70 70 70 70 71 73 73 72 72 73 75 75 75 73 69 67 68 69 67 63 58 54 53 53
76 76 75 75 75 74 73 72 72 72 72 72 72 71 72 73 73 73 72 72 73 73 73 75 75 74 75 76 77 77 77 74 70 69 70 70 67 62 58 55 54 55

ECMWFNIL_250_spd_057.txt.gz
Wind_Speed
14 13 13 13 12 12 12 12 12 11 11 11 11 11 11 12 13 14 15 16 16 17 18 20 21 23 24 25 26 26 26 28 30 32 33 34 35 36 37 39 40 41
16 15 15 14 14 14 14 14 14 13 13 13 13 13 12 13 15 16 17 18 18 19 20 21 23 24 25 26 27 27 28 29 31 33 34 36 37 38 38 39 41 42
18 17 17 16 16 16 16 16 15 15 15 15 16 15 14 15 17 18 20 21 21 21 22 23 24 25 26 27 28 28 29 31 32 34 36 37 38 39 40 41 42 43
21 20 20 19 19 18 18 17 17 16 16 17 17 18 18 18 20 21 22 23 23 23 24 25 26 27 28 28 29 29 30 32 33 34 36 38 40 41 42 43 44 45
24 23 22 21 21 20 20 19 18 18 18 18 19 21 21 22 22 23 24 25 25 25 25 27 28 29 29 29 30 31 32 33 34 35 37 39 41 42 44 45 46 47
26 25 24 24 23 23 23 21 20 20 20 20 22 24 24 24 24 25 26 26 26 26 27 29 30 31 31 31 32 32 33 34 35 36 37 39 41 43 45 47 47 48
29 28 27 26 26 26 25 23 22 22 23 23 25 26 26 26 26 26 27 27 28 28 29 30 32 33 33 33 34 34 34 35 36 37 38 39 42 44 46 48 49 49
31 31 30 29 29 28 27 25 25 25 26 27 28 28 28 28 27 28 28 28 29 30 31 32 34 35 35 35 36 36 36 36 37 38 40 42 44 45 46 48 49 50
33 33 32 32 31 30 30 29 28 28 29 30 31 30 30 29 29 29 30 30 31 32 33 34 35 36 36 37 37 38 37 37 39 41 42 44 45 46 47 48 50 51
34 34 34 34 33 33 33 32 32 32 32 33 33 32 31 30 30 31 31 32 33 34 36 36 36 37 38 39 39 39 39 39 40 42 43 44 46 47 48 49 50 51
35 35 35 35 35 35 35 34 35 35 35 35 35 33 32 32 32 32 33 34 35 36 38 38 38 39 39 40 41 41 41 41 41 42 43 44 46 49 49 50 50 52
36 36 36 36 36 36 36 36 36 36 36 36 35 34 34 33 33 33 34 36 37 38 39 40 40 40 41 41 42 43 43 43 43 44 44 45 47 49 51 51 51 52
37 37 37 37 38 38 38 38 37 36 36 36 35 35 35 35 34 34 36 37 39 40 40 41 41 42 42 43 44 45 45 45 45 46 47 47 48 50 52 52 52 52
40 39 39 39 40 40 40 39 38 37 37 37 37 37 37 36 36 37 38 39 41 41 41 42 43 44 44 44 46 47 47 47 48 49 49 49 50 52 53 53 53 53
41 41 41 41 42 42 42 41 40 39 39 39 39 39 38 38 38 39 40 41 42 43 43 43 45 46 46 46 48 49 49 49 50 51 52 52 52 53 54 54 55 55
41 42 42 42 43 43 43 43 42 41 41 41 41 41 41 40 41 42 42 43 43 44 45 45 46 47 48 48 49 51 50 51 53 54 55 55 55 55 55 55 55 56
44 44 43 44 44 44 44 44 44 44 44 44 44 44 43 43 44 44 44 44 45 45 47 47 48 49 49 50 52 53 53 53 55 56 57 57 57 57 57 56 56 57
47 47 46 46 46 46 46 46 46 46 47 47 47 46 45 46 46 46 46 46 46 47 48 49 50 51 51 53 54 55 55 55 56 58 59 60 59 59 59 58 57 57
50 50 49 49 49 48 48 48 48 49 50 50 49 48 48 48 48 48 48 48 49 50 51 51 52 53 54 55 57 57 57 57 58 59 61 61 62 62 61 60 59 59
53 53 53 52 51 50 50 50 51 51 52 52 51 51 50 51 50 50 51 51 52 52 53 54 55 57 57 58 59 60 60 59 60 61 62 62 64 64 63 62 61 61
56 57 56 55 54 53 52 52 53 54 54 54 54 54 53 53 53 54 54 54 54 55 55 57 58 59 60 61 61 62 62 61 62 63 63 64 66 66 65 64 63 63
61 61 60 59 58 56 55 55 56 57 57 57 57 57 57 57 57 57 57 57 57 58 58 60 61 62 62 63 63 64 64 63 64 65 65 66 68 68 66 65 64 64
64 64 63 63 62 60 59 59 59 60 60 60 60 60 60 60 60 61 61 61 61 62 62 63 63 64 65 66 66 66 66 66 66 67 67 68 70 70 68 66 65 65
66 66 66 66 65 64 64 63 63 63 63 63 62 62 63 63 64 64 64 65 65 66 66 66 66 67 68 69 69 68 68 68 68 69 70 71 71 71 69 67 66 65
69 69 69 68 68 67 68 68 68 67 66 66 66 66 67 67 67 67 68 68 69 69 69 69 69 69 70 71 72 71 71 70 70 70 71 72 72 71 70 68 66 63
71 71 71 72 71 71 71 72 72 71 70 69 69 69 70 71 71 70 71 71 72 72 72 72 71 71 72 74 74 73 72 70 70 70 72 72 72 71 70 68 64 61

ECMWFNIL_250_spd_060.txt.gz
Wind_Speed
14 13 12 11 10 9 8 8 7 6 6 6 7 7 7 7 8 8 9 11 12 14 15 16 16 17 18 20 21 23 25 26 27 27 27 28 29 32 35 36 37 38
16 15 15 14 12 12 12 11 10 9 8 9 9 9 9 9 10 11 12 14 15 16 17 17 17 17 18 19 21 23 25 26 27 27 27 27 28 32 34 35 36 37
19 18 17 16 15 15 15 14 12 11 11 11 11 11 11 11 11 13 15 17 18 18 19 19 19 19 19 20 21 23 25 26 27 28 28 28 29 31 32 33 35 37
22 20 19 18 18 18 17 16 14 13 13 13 13 13 13 14 14 15 17 19 20 20 21 21 22 22 21 21 22 23 25 26 27 28 29 30 30 31 31 33 35 36
25 23 22 21 20 20 19 18 17 16 16 16 17 17 17 17 18 19 20 22 22 22 22 23 24 24 24 23 23 24 26 27 27 28 29 31 32 32 32 34 36 37
28 27 25 23 23 23 22 20 20 20 20 20 20 20 21 21 21 22 23 24 25 24 24 24 25 26 26 25 25 26 27 28 28 29 30 32 33 33 34 35 37 38
30 29 28 26 26 25 24 23 22 22 23 23 24 24 24 24 24 25 26 27 28 27 26 26 27 28 28 27 27 28 28 29 29 29 31 33 34 35 36 36 37 39
31 31 30 29 28 27 26 25 24 25 25 27 27 26 26 27 27 27 28 29 30 29 28 28 28 29 29 28 29 29 30 30 31 31 32 34 35 36 37 37 38 39
32 33 32 31 30 29 28 27 27 27 28 29 30 29 29 29 29 30 31 32 31 30 30 30 30 31 30 30 30 31 31 31 32 33 33 35 36 37 38 39 40 41
32 33 32 32 32 31 31 30 30 30 31 31 32 32 32 32 32 33 34 33 32 31 31 31 31 32 32 32 33 33 32 32 33 34 35 36 37 38 39 40 41 42
31 32 32 32 32 32 32 32 32 33 33 33 33 33 33 34 34 34 34 34 32 31 32 33 33 33 33 34 35 35 34 34 35 36 37 38 39 40 41 41 42 43
32 32 32 31 32 33 33 33 34 34 34 34 34 34 34 35 35 35 35 34 32 32 33 34 35 35 35 36 36 37 36 36 36 38 39 40 41 42 43 43 44 45
34 33 32 32 33 34 34 35 35 35 35 35 35 35 35 35 35 35 35 34 34 34 35 36 37 37 37 37 38 38 39 39 39 39 41 42 43 45 45 46 46 46
35 34 34 34 35 36 36 36 36 36 36 36 36 36 37 37 37 36 36 36 36 36 36 37 38 40 40 39 38 40 41 41 41 41 42 44 45 47 47 47 48 48
37 36 37 37 38 38 38 38 39 39 38 38 38 38 38 38 38 38 38 38 38 38 38 38 40 42 42 40 40 41 43 44 44 44 45 46 47 49 50 50 50 50
39 40 40 40 41 40 40 40 40 40 40 40 39 39 39 39 39 40 40 40 40 40 40 41 41 42 43 42 42 43 44 45 46 47 47 48 50 51 52 53 53 53
42 42 42 42 42 41 41 41 40 40 41 41 41 41 40 40 41 42 42 42 42 42 43 43 43 43 44 44 44 45 46 47 48 49 50 51 53 54 54 55 56 56
43 43 43 43 43 42 42 42 42 42 43 43 42 42 42 43 44 44 43 44 44 44 45 45 45 45 46 47 47 48 48 49 50 51 52 54 55 57 57 58 58 59
45 45 45 45 45 44 44 44 44 45 45 45 45 44 45 46 46 45 45 46 46 47 47 47 48 49 49 50 51 51 51 52 52 54 55 57 58 59 60 61 61 62
47 48 47 47 47 46 46 46 47 47 48 48 47 47 47 48 48 48 48 49 49 49 50 50 51 53 53 54 54 54 55 55 55 57 58 60 61 62 62 63 64 64
50 50 50 50 49 49 48 48 49 50 51 51 50 50 50 51 51 52 52 52 52 52 52 53 55 56 57 58 58 58 58 57 58 60 62 63 64 65 65 65 66 67
53 53 53 53 53 52 51 52 52 53 54 54 54 54 54 54 55 56 56 56 56 56 56 57 58 60 61 61 61 61 61 61 62 63 64 65 66 67 67 68 69 69
57 57 57 56 56 56 56 57 57 57 57 57 57 57 57 58 59 59 60 60 61 61 61 61 62 63 64 65 66 65 64 64 65 65 66 67 68 69 70 71 71 71
59 59 60 60 60 60 61 61 61 61 61 60 60 60 61 61 62 63 63 64 64 65 64 64 65 66 68 69 70 69 68 68 68 69 69 69 70 71 72 71 71 70
61 62 62 63 63 64 64 64 65 65 64 64 64 64 65 65 65 66 67 68 68 68 68 68 69 69 70 71 72 73 73 72 72 71 71 70 71 71 71 70 69 68
58 59 60 61 62 63 64 64 65 66 66 66 66 66 66 67 67 67 68 69 69 69 68 68 69 69 69 70 71 71 72 72 71 70 69 68 67 67 67 67 66 64

ECMWFNIL_250_spd_063.txt.gz
Wind_Speed
14 13 12 11 10 9 8 8 8 7 7 7 7 6 7 7 7 8 9 9 9 11 14 15 15 15 16 17 18 19 20 21 21 21 21 21 21 22 23 24 26 27
15 14 13 12 11 10 10 10 9 8 8 8 8 8 8 8 8 9 10 11 12 13 15 17 17 17 17 18 19 20 21 22 23 23 23 23 23 23 23 24 26 27
17 16 15 14 13 13 12 11 10 10 9 9 10 10 9 9 10 10 11 13 14 15 16 18 19 19 18 19 19 20 22 23 24 24 24 24 24 24 24 25 26 27
19 18 17 16 15 15 14 13 12 12 12 12 12 12 12 12 12 13 14 15 16 17 18 20 21 22 21 20 21 22 23 24 24 25 26 26 25 26 26 26 26 27
21 20 19 19 18 18 17 16 15 15 15 15 16 16 16 16 16 17 18 18 19 20 21 22 23 24 23 22 22 23 24 25 25 25 27 27 27 27 28 28 28 29
24 23 22 22 22 22 21 20 19 18 18 18 19 20 20 20 20 20 21 21 22 22 23 24 25 26 26 24 23 24 25 26 26 27 27 28 29 28 29 29 30 30
26 26 25 26 26 26 25 23 22 22 21 22 22 22 23 23 23 23 24 24 25 25 25 26 28 28 28 27 25 24 25 27 28 29 29 30 30 30 30 30 31 32
28 28 28 27 27 27 27 26 25 25 25 26 26 25 25 25 25 26 26 27 27 27 28 28 30 30 30 28 27 26 26 27 29 31 31 31 32 32 32 32 33 34
29 29 29 28 29 28 28 27 27 27 28 29 29 28 28 28 27 28 29 29 29 30 30 30 31 31 31 30 29 28 28 29 31 32 33 33 33 34 35 35 35 35
30 30 30 30 29 28 27 27 28 29 30 30 31 31 31 31 30 30 31 30 31 31 31 31 32 32 32 31 30 30 30 30 32 34 35 36 35 36 37 37 37 38
32 31 31 30 28 27 27 28 29 30 31 31 31 31 32 33 32 32 32 32 32 32 32 32 32 33 33 32 32 33 33 33 34 35 37 38 37 37 38 40 40 40
33 32 31 30 28 28 28 28 29 30 30 31 31 32 33 33 33 33 33 33 33 33 33 33 33 34 34 34 34 34 35 36 36 37 38 39 39 39 40 42 43 43
34 33 32 31 30 30 30 30 30 31 31 31 32 33 34 34 34 34 34 34 34 34 35 35 35 36 36 36 36 36 37 38 39 39 39 40 41 41 42 44 45 45
36 34 33 32 32 32 32 32 32 32 33 33 33 34 34 35 35 35 35 36 36 36 36 36 36 37 38 38 37 38 39 40 41 42 41 42 43 44 45 46 48 49
35 34 33 33 34 34 34 34 34 34 35 35 35 35 36 36 37 38 38 38 38 38 38 38 38 38 39 39 40 40 40 41 42 43 44 45 45 46 47 49 50 51
36 35 35 35 36 37 37 36 36 37 37 37 37 38 38 39 40 40 40 40 39 39 39 39 39 40 40 41 41 42 42 43 44 45 46 47 48 49 50 51 52 54
37 36 36 38 39 39 39 39 39 39 39 40 40 40 41 41 42 41 41 40 40 40 40 41 41 41 42 42 43 44 45 45 46 47 49 50 51 52 53 54 55 55
38 38 38 40 40 41 40 40 41 41 42 42 42 42 42 42 42 41 41 41 42 42 43 43 43 44 44 44 45 46 47 48 49 50 52 53 54 55 56 57 58 58
40 41 42 43 42 42 42 42 43 43 43 43 43 43 43 43 43 43 43 43 44 44 45 45 46 46 47 47 48 48 49 51 52 54 55 56 57 58 59 60 61 62
43 44 45 45 44 44 44 44 44 44 44 44 44 44 44 44 44 45 45 45 46 47 47 48 49 49 50 51 51 52 53 54 55 57 59 60 61 61 62 63 64 65
45 46 46 45 45 45 45 46 46 46 47 46 46 46 47 47 47 48 48 48 48 49 50 51 52 53 54 54 55 56 56 57 58 59 61 63 65 65 65 66 66 66
47 47 47 47 47 47 48 49 49 49 49 49 49 49 50 51 51 51 51 51 52 53 53 55 55 56 57 58 59 60 60 61 62 62 63 65 67 67 67 67 66 66
49 49 49 49 49 50 51 52 51 51 51 52 52 53 54 54 55 55 55 56 56 57 57 58 58 59 60 62 63 64 64 64 65 65 65 65 66 65 65 64 63 62
52 52 53 53 53 54 55 55 54 54 55 55 56 56 56 57 58 58 59 60 60 61 61 61 61 62 62 63 64 65 65 64 64 63 61 60 59 59 58 57 57 57
56 56 56 57 57 58 58 58 57 58 58 58 59 59 59 59 60 61 61 62 62 61 60 60 59 58 57 58 58 58 58 58 57 55 54 53 53 52 52 51 50 51
56 56 56 56 57 57 57 57 57 57 57 57 57 57 56 56 56 55 55 55 56 55 53 52 52 51 49 50 51 52 52 52 52 51 51 51 49 49 49 47 47 47

ECMWFNIL_250_spd_066.txt.gz
Wind_Speed
18 17 16 16 15 14 13 13 13 11 10 9 8 7 7 6 5 6 7 7 7 8 10 12 13 15 17 19 19 19 19 19 20 20 20 19 19 19 20 21 23 24
18 17 17 16 15 14 13 13 12 11 10 9 9 8 8 7 7 7 8 8 8 9 10 12 14 15 17 19 20 21 20 20 20 21 21 20 20 21 21 22 23 24
19 18 17 16 15 14 14 13 12 11 10 10 10 9 9 8 8 9 9 10 10 11 12 13 15 16 17 19 21 22 22 21 21 21 21 22 22 22 22 22 23 24
20 19 18 17 16 15 14 13 12 12 12 11 11 11 10 10 10 11 11 11 12 13 14 15 16 17 19 20 22 24 24 23 22 22 22 23 23 23 24 24 24 25
21 20 19 18 17 16 15 14 13 14 14 13 13 12 12 12 12 13 14 14 15 15 17 18 18 19 20 21 23 24 25 25 24 24 24 24 25 25 25 25 26 26
23 22 20 19 18 18 17 17 16 16 15 15 16 16 16 16 16 16 16 17 17 18 19 20 21 22 22 23 24 25 26 26 26 25 25 26 27 27 27 28 28 28
24 23 22 21 21 21 21 19 18 18 18 19 20 20 20 20 20 19 19 20 20 21 21 22 23 24 25 25 25 26 26 26 27 27 27 28 28 29 30 30 30 30
27 26 25 25 25 24 23 22 21 21 22 22 23 23 24 23 23 23 23 23 23 23 24 24 25 26 26 27 26 27 28 27 27 28 29 30 30 31 32 32 32 33
30 30 29 28 28 27 26 25 25 24 25 25 26 26 26 25 25 25 25 25 25 25 25 26 26 26 27 28 28 28 29 29 29 29 30 32 32 33 33 34 35 35
33 33 32 31 30 29 28 27 26 27 27 28 28 28 27 27 27 26 26 26 26 26 27 26 26 27 28 29 30 30 30 31 31 31 31 33 34 35 35 36 37 38
33 33 33 32 31 30 28 28 28 29 29 29 29 29 29 29 28 28 28 28 28 28 27 27 27 28 29 30 31 32 32 33 33 33 33 34 35 37 38 38 39 40
33 33 32 31 31 30 29 29 30 31 31 31 30 30 30 30 30 30 30 29 28 28 28 28 29 30 31 32 33 34 34 34 35 35 35 35 36 38 39 40 41 42
33 33 32 31 31 31 30 31 32 33 33 32 32 32 32 32 31 31 31 30 29 29 29 30 31 32 33 34 35 36 35 35 35 36 37 38 38 39 40 42 43 44
35 34 33 32 32 32 32 33 33 34 34 33 33 33 32 33 32 32 32 31 30 30 31 32 33 34 35 36 36 36 36 36 36 38 39 40 41 41 42 44 45 47
36 35 34 34 34 34 34 33 34 34 34 34 34 33 33 33 33 33 32 32 32 32 33 34 36 36 36 36 36 37 37 38 38 39 41 42 43 44 45 46 48 49
36 35 35 36 36 36 35 34 34 35 35 35 34 34 34 34 34 34 34 33 34 35 36 36 37 37 37 37 38 38 39 40 41 42 43 44 45 47 48 49 51 52
37 37 37 37 38 37 36 35 35 36 36 36 36 35 35 35 36 35 35 35 36 36 37 38 38 38 39 39 40 41 41 43 44 45 46 47 48 50 51 52 53 55
39 38 38 39 39 38 37 36 37 38 38 38 37 36 36 36 36 36 36 37 37 38 39 39 40 41 42 42 43 43 44 45 47 48 49 50 51 53 54 56 57 58
40 39 39 40 40 39 38 38 38 39 38 37 37 37 36 37 37 37 38 39 40 41 41 42 43 44 44 45 45 46 46 48 49 51 52 54 55 57 58 59 60 61
41 41 41 41 41 41 40 39 38 38 38 37 37 37 38 38 39 40 40 42 42 43 44 45 46 47 47 48 48 49 50 51 52 54 56 57 59 61 62 63 63 63
42 41 41 42 42 41 40 40 39 38 38 38 39 39 40 41 42 42 43 44 45 45 47 48 48 49 51 51 52 53 53 54 56 57 58 60 62 63 64 63 62 60
41 41 41 41 41 40 40 40 40 40 40 41 41 42 43 43 44 44 45 46 47 47 49 50 52 53 54 55 56 56 56 57 59 59 60 61 61 60 59 57 55 54
41 40 41 41 41 41 41 41 42 42 43 43 44 44 44 45 46 46 47 48 49 50 52 54 55 56 57 59 59 60 60 59 59 58 57 55 54 53 52 50 49 49
42 42 43 43 43 43 44 44 44 45 45 45 46 46 47 48 48 49 50 52 53 54 56 57 58 59 60 60 60 60 58 56 54 52 50 49 48 48 47 47 47 47
45 45 45 46 46 46 46 47 47 47 48 48 49 50 50 51 52 54 55 56 56 57 58 58 58 57 56 56 55 54 52 51 49 48 47 46 46 46 46 46 46 46
47 48 48 48 48 49 49 49 50 50 51 52 52 53 54 55 56 56 56 56 56 55 54 53 52 51 50 49 48 48 48 47 46 46 46 45 44 45 45 46 46 45

ECMWFNIL_250_spd_069.txt.gz
Wind_Speed
23 22 22 21 19 18 17 16 16 14 12 10 9 9 9 7 6 5 5 5 5 5 5 7 8 10 11 13 15 16 17 18 18 17 17 17 17 18 18 19 19 20
24 23 22 21 20 19 18 18 17 15 12 11 11 11 10 8 7 6 6 7 7 7 7 8 10 11 12 13 15 16 17 18 19 19 18 18 18 19 20 20 21 21
25 24 23 21 20 20 20 18 17 15 13 13 13 12 10 8 8 8 8 9 9 9 10 10 11 12 13 14 15 17 18 19 20 20 20 20 20 20 21 22 22 23
25 24 22 22 21 21 20 18 16 15 14 14 13 13 11 10 10 11 11 11 11 11 12 13 13 13 14 15 16 18 19 20 20 20 21 21 21 21 22 23 24 24
25 24 23 22 22 21 19 18 17 16 15 15 14 13 12 12 13 13 13 13 14 14 14 14 15 15 15 16 17 18 19 20 21 22 22 22 23 23 24 25 26 26
26 25 24 23 22 21 20 19 18 18 17 17 16 15 14 15 15 15 15 15 16 16 16 16 17 17 17 18 18 19 20 21 22 23 23 24 24 25 26 26 27 27
27 26 25 24 23 23 22 21 21 20 19 18 17 16 17 17 17 17 18 18 19 19 19 19 19 20 20 20 20 21 21 22 22 23 25 26 26 27 27 27 28 28
28 27 27 26 26 25 24 23 22 21 20 19 18 18 19 19 19 19 20 20 21 21 22 22 22 22 22 22 22 22 23 23 23 24 26 28 29 29 28 28 29 30
30 30 29 28 28 27 25 24 23 22 21 20 20 21 21 21 21 22 22 22 23 23 24 24 24 25 25 24 24 24 25 25 25 26 28 29 30 30 30 30 31 32
33 32 31 30 28 27 26 25 24 24 23 22 23 23 23 23 23 24 24 24 25 25 26 26 26 27 27 26 26 26 26 27 28 29 29 30 30 30 31 32 33 34
34 33 31 29 28 27 26 25 25 25 25 24 25 25 24 25 25 25 26 26 26 27 27 28 28 28 28 28 27 27 28 29 30 31 31 31 31 31 32 34 35 37
36 34 31 30 28 28 27 28 28 27 27 26 26 26 26 26 27 27 27 28 28 28 28 29 29 29 28 28 28 29 29 31 32 33 33 32 33 34 35 36 37 39
37 34 32 31 30 30 30 31 30 29 28 28 27 27 28 28 28 29 29 28 28 29 30 29 29 30 30 30 30 31 32 33 34 34 35 35 35 36 38 39 40 41
37 35 33 32 32 32 33 32 31 30 29 28 28 29 30 30 30 30 30 30 30 30 30 31 30 30 31 31 32 33 34 35 35 36 37 38 38 39 40 41 42 44
37 35 34 33 33 33 33 32 31 30 30 30 30 31 31 32 31 31 31 31 31 31 31 32 32 32 32 33 34 35 36 37 37 38 39 40 41 42 43 44 46 47
37 36 35 34 34 33 33 32 32 32 33 33 33 32 32 33 33 32 32 32 32 32 32 32 33 33 34 34 35 37 38 38 39 40 41 42 43 44 45 47 49 50
37 37 36 35 35 35 34 34 34 35 35 35 34 33 33 34 34 34 33 33 33 34 34 34 35 35 35 36 37 38 39 40 41 42 43 44 45 47 48 50 52 53
38 37 37 37 37 37 36 36 36 36 36 35 34 34 34 34 34 34 34 34 35 35 36 36 36 36 37 37 38 39 40 42 43 44 45 47 48 50 51 53 55 56
38 38 38 38 38 37 37 37 37 37 36 35 35 34 35 35 34 35 36 36 36 36 37 37 37 38 38 39 39 41 42 44 45 47 48 49 51 53 55 56 57 58
39 38 38 38 38 38 37 37 37 37 36 35 35 35 35 36 36 37 37 37 38 38 38 38 38 39 40 40 41 42 44 46 48 50 52 53 55 56 57 58 58 57
39 38 38 38 38 38 38 38 37 37 36 36 36 36 37 37 38 38 38 38 39 39 40 40 40 41 42 43 43 44 46 48 50 53 55 56 57 58 57 56 54 52
38 38 37 37 37 38 38 38 37 37 37 37 37 38 38 39 39 39 39 39 40 41 41 41 42 43 44 45 46 47 49 51 53 55 57 57 56 55 52 51 49 48
38 37 37 38 38 38 39 38 38 38 38 38 39 39 39 39 39 39 39 40 41 42 43 44 45 46 47 48 49 51 52 54 55 55 55 54 52 49 47 47 46 46
38 38 39 39 40 40 39 39 39 39 39 39 39 39 39 39 39 40 41 42 43 44 45 46 47 49 50 51 53 53 54 54 52 50 49 47 45 44 44 44 44 44
40 40 40 41 40 40 39 39 39 39 40 40 40 40 40 41 42 43 43 44 45 47 48 49 50 52 53 53 54 53 51 49 46 45 43 41 40 41 41 41 41 41
41 41 41 41 40 40 40 40 41 41 41 41 42 42 43 43 44 45 46 47 49 50 51 52 52 53 52 51 50 47 44 42 41 41 40 39 39 40 40 40 40 40

ECMWFNIL_250_spd_075.txt.gz
Wind_Speed
28 28 27 26 25 24 23 22 20 18 17 16 15 14 13 12 11 11 11 10 9 8 7 7 6 6 6 7 9 11 12 14 15 16 17 18 19 19 20 21 22 23
28 28 27 26 26 25 24 22 20 19 19 18 17 16 15 14 13 12 12 11 10 10 9 9 8 8 8 9 11 12 13 14 15 17 18 19 19 19 19 21 23 24
28 28 27 26 26 25 24 23 21 21 20 19 18 18 17 16 15 14 13 13 12 11 11 10 10 9 10 11 13 14 15 15 16 17 18 19 20 20 20 22 23 24
29 28 27 26 26 26 25 24 23 22 21 21 20 19 19 18 17 16 15 14 13 13 12 12 11 11 12 13 14 15 16 17 18 18 19 20 20 21 21 23 24 25
29 28 27 27 27 27 26 25 23 23 23 22 22 21 20 19 18 17 17 16 15 14 14 13 13 13 14 15 16 17 18 19 19 20 20 21 21 21 22 23 25 26
31 30 29 29 28 28 27 26 25 24 24 24 23 22 21 21 20 19 18 18 17 16 15 15 15 15 16 17 18 18 19 19 20 21 22 22 21 21 22 23 25 27
32 31 30 29 28 28 27 27 26 26 25 25 25 23 22 22 22 20 19 18 18 17 17 16 16 17 18 19 20 20 20 20 21 21 22 22 22 22 22 24 25 27
32 31 30 29 28 28 28 28 27 27 27 26 25 24 23 23 23 22 20 19 19 19 18 18 18 18 19 21 21 22 22 22 22 22 23 23 22 22 23 24 26 27
32 31 30 29 29 29 29 29 29 29 29 28 27 26 25 24 23 23 21 21 21 20 20 20 20 20 21 21 22 23 23 23 24 24 23 23 23 23 24 26 27 28
34 33 31 30 30 30 31 31 31 31 30 29 28 27 26 25 24 23 23 23 23 22 22 22 22 23 23 23 23 24 24 24 24 24 24 24 23 23 25 27 28 29
36 35 33 31 31 31 32 33 33 33 31 30 30 28 27 26 25 25 24 24 24 24 24 24 25 25 25 25 25 25 25 25 24 25 24 24 25 25 26 28 29 30
39 37 35 33 33 33 34 34 33 32 31 31 30 29 28 27 27 26 26 26 26 26 26 26 27 27 27 27 27 26 25 25 25 25 25 25 26 27 28 29 30 31
40 39 37 36 35 35 35 35 34 33 32 31 30 30 29 29 28 28 28 27 27 28 28 28 29 29 29 29 28 27 26 26 26 25 25 25 27 28 29 30 31 31
40 40 39 38 37 37 37 36 35 34 33 32 32 31 31 30 30 30 29 29 29 30 30 30 31 31 30 30 29 28 27 27 26 26 27 27 28 29 30 30 31 32
39 40 41 41 40 40 40 38 36 35 34 34 33 32 32 31 31 31 31 30 31 32 32 32 32 31 31 30 29 29 28 28 27 27 28 28 29 30 30 31 32 33
39 41 43 43 43 43 41 39 38 36 36 35 34 34 33 33 33 32 32 32 33 33 34 33 32 31 30 30 29 29 29 29 29 29 29 29 30 31 31 32 33 34
41 42 44 45 46 45 43 41 40 39 38 37 36 35 35 34 34 33 33 33 34 34 34 33 32 31 30 30 29 29 30 30 30 30 30 30 30 31 32 33 35 37
44 44 44 46 47 47 45 43 42 41 40 39 38 37 35 35 35 34 34 34 34 34 33 32 31 31 31 30 30 30 31 31 32 32 31 31 31 32 33 34 36 39
45 45 46 47 47 48 47 46 45 44 42 41 39 37 37 37 36 35 34 34 34 33 32 31 31 31 31 31 31 31 32 33 33 32 32 32 32 33 35 36 38 40
43 45 46 47 47 48 48 48 48 46 44 42 40 39 38 38 36 35 35 34 34 33 32 32 32 32 32 32 32 33 33 34 33 32 32 33 34 35 37 39 40 39
40 42 44 45 47 47 48 49 49 47 45 42 41 40 40 38 37 36 36 35 33 33 34 34 33 32 33 33 33 34 34 33 33 33 33 34 35 37 39 40 40 37
37 38 40 42 44 46 47 48 48 46 44 42 41 41 40 39 39 37 36 34 34 35 35 35 33 33 33 34 35 35 34 33 33 34 34 36 37 39 41 41 38 32
34 35 36 38 41 43 45 46 46 45 43 41 40 39 39 39 39 37 36 35 36 37 36 35 34 34 34 35 35 35 34 34 35 35 36 37 39 41 41 39 34 29
31 31 33 35 37 40 42 43 44 43 42 41 40 39 38 39 38 37 37 37 37 37 36 35 34 34 35 35 35 35 35 35 36 37 37 39 41 42 40 35 30 26
29 29 30 32 35 37 39 40 42 42 42 41 41 40 39 39 39 39 39 39 38 37 36 35 35 35 35 35 35 36 37 37 38 38 39 41 42 40 37 32 28 25
29 29 29 31 33 35 36 37 39 40 41 42 42 41 41 40 41 41 40 40 38 37 35 35 35 35 36 36 36 37 38 38 39 40 41 42 41 38 34 29 26 24

ECMWFNIL_250_spd_078.txt.gz
Wind_Speed
30 28 26 25 23 22 21 20 18 18 17 16 14 13 11 10 9 8 8 8 8 7 6 6 5 6 7 8 10 12 14 15 16 17 18 19 20 20 19 19 20 21
31 29 28 27 26 25 23 21 20 19 18 17 15 14 12 11 10 10 9 9 9 9 8 8 7 7 8 9 10 12 13 15 16 17 18 19 20 20 19 19 19 21
32 31 29 29 28 26 24 23 21 20 19 18 16 15 14 13 12 11 11 11 11 10 10 9 9 9 10 10 11 12 13 15 16 18 19 20 20 20 20 19 19 20
32 31 30 30 29 28 26 25 24 23 21 19 18 17 15 14 13 13 12 12 12 12 11 10 10 11 11 12 13 13 15 16 17 19 20 20 21 21 20 19 19 20
31 31 31 30 30 30 29 27 26 25 23 22 20 18 17 16 15 14 14 13 13 13 12 12 12 12 13 13 14 15 16 18 19 20 20 21 21 21 20 20 20 20
31 31 31 31 32 32 31 29 27 26 25 24 22 21 19 18 17 16 16 15 14 14 13 13 13 13 14 14 14 15 17 19 20 21 21 21 21 21 21 20 20 21
32 31 31 32 33 33 32 30 29 28 27 26 24 23 21 19 19 18 18 17 16 15 15 14 14 14 15 15 15 16 18 19 21 22 22 22 22 21 21 21 21 22
31 31 31 31 32 33 32 32 31 30 29 27 26 24 23 21 21 20 20 19 17 16 16 16 15 15 15 16 16 17 19 20 21 22 23 23 22 22 22 22 22 23
31 31 31 31 31 32 33 32 32 31 30 29 28 26 25 24 22 22 21 20 19 18 17 17 16 16 17 17 17 18 20 21 22 23 24 23 23 22 22 22 23 24
33 33 32 31 31 32 33 33 32 32 32 30 29 28 27 25 24 23 22 21 20 19 19 18 17 17 18 18 18 19 21 22 23 24 24 24 23 23 23 23 24 25
35 36 35 32 31 31 33 33 33 33 32 31 31 29 28 27 25 24 23 22 22 21 20 19 19 19 18 19 19 21 22 23 24 24 24 23 23 24 24 24 24 25
36 37 36 34 31 31 33 34 34 34 33 32 31 30 29 28 26 25 24 24 23 22 21 20 20 20 19 20 20 21 23 24 25 24 24 24 24 24 24 25 25 25
37 38 37 34 32 32 33 34 35 34 33 32 31 30 30 29 28 26 26 25 24 23 22 22 21 21 21 21 21 22 24 24 25 24 24 24 25 25 25 25 25 26
37 37 36 35 34 34 35 36 36 35 34 33 32 32 31 30 28 28 27 26 25 23 23 23 22 22 22 22 23 24 24 24 24 24 25 25 26 26 26 26 26 26
37 37 37 36 36 37 38 38 37 36 34 34 33 32 31 30 29 29 28 27 25 25 25 24 23 23 23 23 24 25 25 24 23 24 25 26 26 26 27 27 26 26
37 37 38 38 39 39 39 39 38 37 36 35 33 32 32 31 31 30 29 27 26 26 26 25 24 24 24 25 25 25 24 23 23 24 25 26 26 27 27 27 26 27
38 38 39 40 40 40 40 40 40 39 37 36 35 34 33 32 32 32 30 28 28 27 27 26 25 25 26 26 26 26 24 24 24 25 25 26 26 27 27 26 26 27
39 39 40 41 41 41 41 41 41 41 39 38 37 36 34 34 34 33 32 30 30 29 28 27 26 27 27 27 26 26 25 25 26 25 26 27 27 27 27 26 26 27
40 40 41 41 41 42 42 42 43 43 42 41 39 38 37 37 36 35 34 32 31 30 29 28 28 28 28 28 27 27 27 27 27 26 27 27 27 28 27 26 27 28
39 41 42 42 42 42 43 44 44 44 44 42 41 40 40 39 38 37 35 34 32 32 31 30 29 29 29 30 29 29 29 28 28 27 27 28 28 28 27 26 28 29
38 39 41 42 43 43 44 45 46 45 45 44 43 43 42 41 40 38 37 36 34 34 33 32 31 31 31 32 31 31 30 30 29 29 29 29 29 28 27 27 29 30
37 38 39 40 42 43 44 45 46 46 46 45 44 44 44 43 42 40 39 38 37 37 36 35 33 33 33 33 33 32 32 31 31 30 30 30 29 29 28 29 30 31
37 36 36 37 39 41 42 43 44 44 45 45 45 45 45 45 44 42 41 40 40 40 39 37 35 35 35 34 34 33 33 33 33 31 31 31 30 29 29 30 31 33
37 36 35 35 36 38 39 39 40 41 42 43 45 45 46 45 44 43 43 42 42 42 40 38 37 37 36 35 34 35 34 34 34 32 32 31 30 30 30 31 32 34
37 36 35 34 34 34 35 36 37 38 39 40 42 44 45 45 44 44 44 43 43 42 40 38 37 37 36 35 36 36 36 36 35 33 33 32 31 31 32 32 33 35
37 37 35 34 33 32 32 33 34 35 36 38 40 41 42 43 44 44 44 44 43 41 40 39 38 38 37 36 37 38 38 36 35 34 33 32 32 33 33 33 35 36

ECMWFNIL_250_spd_081.txt.gz
Wind_Speed
28 26 24 23 22 20 19 18 17 15 14 13 12 10 9 8 7 6 5 4 4 4 3 3 4 5 6 7 9 11 12 14 16 18 19 20 20 20 20 20 20 19
30 28 27 25 24 22 21 20 18 17 16 15 14 13 12 11 9 8 7 6 6 5 5 5 5 5 6 7 8 10 12 14 16 18 19 20 20 21 21 21 20 20
31 31 29 28 26 24 23 22 20 20 19 17 16 15 14 13 11 10 9 8 7 7 7 7 7 6 6 7 8 10 12 13 16 18 19 20 21 21 21 21 20 20
32 31 31 29 28 27 26 24 23 22 21 19 19 18 16 15 14 12 11 10 9 9 8 8 8 8 8 7 8 9 11 13 15 17 19 20 20 20 21 20 20 20
30 31 31 31 31 30 29 27 26 25 23 22 22 20 19 17 16 15 14 12 12 11 10 10 10 10 9 8 8 9 10 12 14 17 18 19 20 20 20 20 20 21
29 30 31 32 32 33 31 30 28 27 26 25 24 22 21 20 18 17 16 15 14 13 12 12 11 11 11 10 9 9 11 12 14 16 17 18 19 19 19 20 20 20
30 30 30 31 33 33 32 31 31 30 29 27 26 25 24 22 21 20 19 18 16 15 14 13 13 13 12 11 10 10 11 12 14 16 17 17 18 18 19 20 20 20
31 30 29 30 31 32 32 32 32 31 31 29 28 27 26 24 24 22 21 20 19 17 15 15 14 14 14 13 11 11 11 13 15 16 17 17 18 18 19 20 20 20
32 32 30 30 30 31 32 32 32 32 32 30 30 29 28 27 26 25 24 22 20 19 17 16 16 15 15 14 13 12 13 14 16 17 17 18 18 18 19 19 19 19
33 33 32 30 29 29 31 31 31 32 32 31 31 30 30 29 28 27 26 24 22 20 19 18 17 16 16 15 14 14 14 15 17 18 18 18 17 18 19 19 19 19
33 35 34 32 30 29 30 30 31 32 31 31 32 32 31 30 29 28 27 26 24 22 21 20 19 18 17 16 15 15 16 17 18 19 20 19 18 19 19 19 19 19
31 35 36 35 32 30 30 30 31 31 31 31 32 31 31 31 30 29 28 27 26 24 23 21 20 19 18 17 17 16 17 17 18 20 21 20 19 19 20 19 19 20
31 34 36 36 34 33 31 31 31 31 30 31 31 31 31 31 30 30 29 29 28 26 24 23 22 21 20 19 18 18 18 18 19 20 21 21 20 21 21 20 20 20
34 34 35 35 34 34 33 33 32 32 31 31 31 31 31 30 30 30 30 30 29 27 25 24 23 22 22 21 20 19 19 19 20 21 22 22 21 21 21 21 20 21
35 35 35 34 34 34 35 35 34 34 33 32 32 31 30 30 30 30 30 30 30 28 26 26 25 24 23 23 22 21 20 20 20 22 22 22 22 22 22 21 21 22
36 36 36 35 34 35 35 36 36 35 35 34 33 31 30 30 30 31 31 30 30 29 27 27 26 24 24 24 24 23 22 22 22 22 23 23 23 23 22 21 21 22
35 36 37 36 36 36 36 36 37 37 36 36 34 32 31 31 31 31 31 31 30 29 28 27 26 25 25 26 25 25 24 24 24 24 24 24 24 24 23 22 22 22
34 35 37 38 37 37 37 37 37 38 38 37 36 35 34 33 33 32 31 31 31 30 29 28 26 26 27 28 27 26 26 26 25 25 26 25 25 24 24 23 23 23
34 35 37 38 38 38 38 37 38 38 38 37 37 36 36 35 35 34 33 32 32 31 30 29 27 28 29 29 29 28 28 28 27 27 27 27 26 25 25 24 24 24
34 35 36 37 38 38 38 39 39 39 38 38 38 38 38 37 37 36 34 34 33 33 32 31 29 29 30 31 31 31 31 31 29 29 29 28 27 26 26 25 25 26
35 35 36 37 37 38 39 40 40 40 39 39 39 39 39 38 38 37 37 36 35 35 34 33 31 31 32 33 33 34 34 33 32 31 30 29 28 28 27 27 26 27
36 35 35 35 36 38 39 40 40 40 40 39 39 40 40 39 39 38 38 37 37 37 36 35 34 34 35 36 36 37 37 35 34 33 32 31 30 29 28 28 28 28
38 36 35 35 35 36 38 39 40 40 39 40 40 41 41 40 39 38 38 38 39 39 39 38 37 37 38 38 39 39 39 37 36 35 34 32 31 29 29 29 29 29
41 38 36 35 35 35 36 37 37 38 39 39 41 41 41 40 39 38 39 40 41 41 41 41 40 40 41 41 41 41 41 39 38 37 35 33 31 30 30 30 30 30
42 40 37 36 35 35 35 35 35 35 36 38 39 40 40 39 39 39 40 41 42 42 43 43 42 42 43 43 43 43 43 41 39 38 36 34 32 31 32 31 31 31
44 41 39 37 36 36 35 34 33 33 34 35 37 38 38 39 39 39 40 41 41 42 42 43 43 43 44 44 44 44 44 42 41 39 37 34 33 33 33 32 32 31

ECMWFNIL_250_spd_084.txt.gz
Wind_Speed
26 24 23 22 20 18 17 15 14 12 11 10 9 7 6 5 4 4 3 3 3 3 3 4 5 6 7 7 8 9 10 11 13 14 15 16 17 18 18 19 19 19
27 26 25 24 22 20 19 18 16 14 14 12 11 10 9 8 7 7 6 5 5 5 5 5 6 7 7 8 8 9 10 11 12 14 15 16 17 17 18 18 18 19
29 29 27 26 24 22 21 20 18 17 16 15 13 13 12 11 11 10 9 8 7 7 6 6 7 7 8 8 8 8 9 10 12 14 15 16 16 17 18 18 18 18
31 31 29 28 26 25 24 23 21 20 19 17 16 16 15 14 13 13 12 11 10 9 9 8 8 8 8 8 8 8 9 10 11 13 14 16 16 17 17 18 18 18
32 32 30 29 28 28 27 25 24 22 21 20 20 19 17 17 16 15 15 14 13 12 11 10 10 10 9 9 9 9 9 9 10 11 13 15 16 17 17 18 18 19
32 32 32 31 31 31 30 28 26 25 24 23 22 21 20 19 18 18 17 16 15 14 13 13 12 12 11 10 9 9 9 9 10 11 13 15 16 17 17 18 18 19
31 32 32 32 33 33 33 31 29 28 27 26 25 24 23 22 21 21 20 19 18 16 15 15 14 14 13 12 11 10 10 10 10 11 12 14 16 17 17 18 18 19
31 32 32 32 33 34 34 33 32 30 30 29 28 26 25 24 24 23 22 21 20 19 17 17 16 16 15 14 13 11 11 11 11 11 12 14 16 17 18 18 18 19
31 32 32 32 32 34 35 35 33 32 32 31 30 28 28 27 26 25 25 24 22 21 20 19 19 18 17 16 15 13 13 12 12 12 12 14 15 17 17 18 18 19
32 33 33 32 32 32 33 34 34 33 33 32 31 31 30 29 28 27 27 26 24 23 22 22 21 20 19 18 17 16 15 14 14 13 13 14 16 17 17 17 18 19
31 33 35 34 33 32 32 33 33 33 33 33 32 32 31 30 30 29 28 27 26 25 24 24 23 22 22 20 19 18 17 16 15 15 14 15 16 17 17 17 18 19
30 32 35 36 35 33 32 32 32 32 32 32 32 32 32 31 31 30 29 27 27 27 26 25 25 24 23 22 21 20 19 18 17 16 16 16 17 18 18 18 18 19
30 32 34 35 34 33 32 32 32 32 31 31 31 31 31 31 31 30 29 28 28 28 28 27 26 25 24 24 23 22 21 20 19 18 17 17 18 19 19 18 18 19
32 32 33 34 33 31 32 33 34 33 32 32 31 31 31 31 30 29 28 28 29 29 28 27 27 26 26 25 25 24 22 22 21 20 19 19 19 19 19 19 19 20
33 32 33 33 33 31 31 33 35 35 34 34 33 32 32 31 30 29 29 29 29 29 29 28 27 26 26 27 26 25 24 23 23 22 21 21 21 20 20 20 20 20
34 33 33 34 34 33 32 33 35 36 36 36 35 34 33 32 31 30 30 30 30 29 29 28 27 26 27 27 27 26 25 25 25 24 23 23 22 22 21 21 21 21
35 34 34 34 35 35 34 34 34 35 37 37 37 37 36 34 33 32 31 30 30 30 29 28 27 27 27 28 28 27 26 26 26 25 24 24 24 23 23 23 22 23
36 36 35 35 35 36 36 36 35 34 36 37 38 38 38 37 35 34 32 31 31 31 30 28 27 27 28 29 28 28 28 28 27 27 26 26 25 24 24 24 24 24
36 37 37 36 36 36 37 37 37 36 37 37 37 38 38 39 38 37 35 33 33 32 31 29 28 28 29 29 29 29 29 29 29 28 27 27 27 26 25 25 25 26
36 37 38 37 36 36 36 38 39 40 39 38 37 37 39 39 39 38 37 36 35 33 32 30 29 29 29 30 30 30 30 31 31 30 29 29 29 28 27 27 27 28
35 37 38 38 37 36 36 37 40 42 41 40 39 39 39 39 38 38 38 38 36 35 34 33 32 31 31 31 31 31 32 33 32 31 31 31 31 30 29 29 29 30
36 38 39 39 38 37 37 37 39 40 41 41 41 40 39 38 37 38 38 38 37 36 35 35 34 33 33 34 34 34 35 35 34 33 33 33 33 32 31 31 31 32
36 38 40 40 39 39 39 38 38 38 38 39 40 40 39 38 38 38 37 36 36 37 36 36 35 35 36 36 37 37 37 37 36 35 35 35 35 34 33 33 33 33
36 38 41 42 41 41 41 40 38 37 36 37 38 39 39 39 38 38 37 37 38 38 37 36 36 37 38 38 39 40 39 39 38 38 38 37 36 36 36 36 35 35
36 38 41 43 44 43 42 41 39 37 36 36 37 38 39 39 39 39 39 39 40 39 38 37 36 37 38 39 40 41 41 41 41 41 40 40 38 38 39 38 38 37
37 38 41 44 45 45 44 43 41 39 37 37 36 37 37 38 39 40 41 41 41 40 39 37 37 38 39 40 41 41 41 41 41 42 42 41 40 40 41 41 39 38

ECMWFNIL_250_spd_090.txt.gz
Wind_Speed
21 21 20 19 18 16 15 13 11 10 9 8 7 7 6 5 4 3 3 3 3 4 5 7 8 9 10 11 11 12 13 13 14 15 16 17 18 20 21 22 23 23
23 22 22 21 20 18 16 14 13 12 11 10 9 8 7 6 5 5 5 5 5 5 6 7 8 9 10 11 11 12 13 13 14 15 16 16 17 18 20 21 22 23
25 25 24 22 21 20 18 17 15 14 13 12 11 10 9 8 8 7 7 7 7 7 8 8 9 10 10 11 12 12 13 14 14 15 15 16 17 17 19 20 21 22
28 27 26 24 23 22 21 20 18 17 16 14 14 13 12 11 10 10 9 9 9 9 9 10 10 11 11 12 12 13 13 14 14 15 15 16 16 17 17 19 20 21
31 30 29 27 26 25 24 22 21 19 18 17 17 16 15 14 13 12 12 11 11 11 11 11 11 12 12 13 13 14 14 14 15 15 15 16 16 16 17 17 19 20
32 32 32 30 29 28 27 25 24 23 21 20 20 19 18 17 16 15 14 13 13 13 12 13 13 13 14 14 15 15 15 15 15 15 16 16 16 17 16 16 17 18
32 32 33 32 32 31 30 29 27 26 24 23 23 22 20 20 19 18 17 16 15 14 14 14 14 15 15 16 16 16 16 16 16 16 16 16 16 17 17 16 16 17
29 31 32 32 33 33 32 31 30 29 28 27 26 24 23 22 21 20 19 18 17 16 16 16 16 16 16 17 17 18 18 17 17 17 17 17 17 17 17 16 16 16
26 29 31 31 32 33 33 33 32 32 31 29 28 27 26 25 24 23 21 20 19 19 18 18 18 18 18 18 18 19 19 19 19 18 18 18 18 18 18 17 16 16
24 28 30 30 31 32 33 34 33 33 33 32 30 29 28 27 26 25 24 23 22 21 20 20 20 20 20 20 20 20 21 21 21 20 20 19 19 19 18 18 17 16
24 27 29 31 31 31 31 32 33 33 34 33 31 31 31 30 29 28 27 25 24 23 22 22 23 22 21 21 22 22 22 23 22 22 21 21 20 20 19 19 19 17
24 26 29 31 31 30 29 30 31 32 32 32 32 31 32 31 31 30 29 28 26 25 25 24 25 24 23 23 23 23 24 24 24 23 23 22 22 21 20 20 20 19
23 26 28 30 31 30 28 29 30 31 31 31 31 31 31 32 31 31 30 29 28 27 27 27 27 26 25 25 24 25 25 25 25 25 24 24 23 22 22 21 21 21
21 23 26 29 30 30 29 28 30 31 31 30 30 30 30 30 30 30 29 29 29 28 28 28 28 28 27 26 26 26 27 27 26 26 25 25 24 23 23 23 22 22
20 21 24 27 30 31 30 29 29 30 31 31 31 31 30 30 30 29 29 29 29 29 29 29 29 29 28 27 27 27 28 28 27 27 26 26 25 24 24 23 23 23
20 21 23 25 28 31 31 30 29 29 30 31 32 32 31 30 30 30 30 30 30 30 30 30 30 29 28 28 28 28 29 29 28 28 27 27 26 25 25 25 24 24
22 21 22 23 26 29 31 31 30 30 30 31 31 32 32 32 32 32 32 31 31 31 31 31 31 30 29 29 29 29 30 29 29 29 28 28 27 26 26 26 26 25
24 23 22 23 25 27 30 32 32 32 32 32 32 32 32 32 33 34 34 33 32 32 32 33 33 32 30 30 30 30 31 30 30 30 29 29 29 28 28 28 27 27
26 24 24 24 25 26 28 31 33 34 34 35 34 33 32 32 33 35 35 35 34 34 35 34 34 33 32 31 31 31 32 32 32 31 30 30 30 30 30 30 29 29
28 26 25 26 26 26 27 29 32 34 36 36 36 35 33 33 34 35 35 36 36 36 36 36 36 36 35 34 33 33 33 34 33 33 32 32 32 31 31 32 31 31
31 28 28 28 28 28 28 28 30 33 35 37 38 37 36 35 35 35 35 36 37 37 37 37 37 37 37 36 35 35 35 35 36 35 34 33 33 33 33 33 33 33
34 31 30 30 30 30 29 29 30 32 34 36 38 39 38 37 36 36 36 37 37 38 38 38 39 39 38 38 37 36 37 38 38 38 37 36 35 34 35 35 35 35
36 34 33 33 32 31 30 29 29 31 33 35 36 38 39 39 39 39 38 36 36 38 40 41 41 41 41 40 38 38 39 40 40 40 39 38 37 37 37 37 37 38
38 36 35 35 35 33 31 30 30 31 32 34 35 37 38 39 40 40 40 38 37 38 40 41 41 43 44 43 41 40 41 42 42 42 41 40 39 39 39 39 39 39
41 39 38 37 37 36 34 33 32 31 32 33 34 36 38 39 39 40 41 41 39 39 39 38 39 41 44 45 44 43 43 43 44 44 43 42 41 40 40 40 40 40
43 41 40 40 39 37 36 35 34 33 33 33 34 35 37 38 39 40 41 42 42 41 40 38 37 38 41 43 44 45 45 45 46 47 46 43 42 42 42 41 40 40

ECMWFNIL_250_spd_093.txt.gz
Wind_Speed
17 18 17 17 16 14 13 11 10 8 7 6 5 4 4 2 1 0 2 3 4 6 7 9 10 11 12 14 15 16 17 17 17 17 17 18 19 20 21 22 23 23
18 18 18 18 17 16 15 13 12 10 9 8 7 6 5 4 3 3 2 3 4 5 7 8 9 10 11 12 13 14 15 16 16 16 16 17 17 18 19 20 21 22
19 19 19 18 18 18 17 16 14 13 11 10 9 9 8 7 6 5 5 4 5 5 6 7 9 9 10 11 12 13 14 14 15 15 16 16 16 17 17 18 19 20
22 21 20 20 20 20 19 18 17 15 14 13 13 12 11 10 9 8 7 7 6 6 7 8 8 9 10 10 11 11 12 13 14 14 15 15 16 16 16 16 17 18
25 24 23 22 22 21 21 20 19 18 17 16 16 14 13 12 11 11 10 9 9 8 8 9 9 9 10 10 11 11 12 12 13 13 14 15 15 15 15 15 15 16
27 26 25 25 24 24 23 22 21 21 19 19 18 17 16 15 14 13 13 12 12 11 11 10 10 10 10 11 11 11 12 12 13 13 13 14 14 15 15 15 14 14
27 27 27 27 26 26 25 25 24 23 22 21 21 20 18 17 17 16 15 15 14 14 14 13 13 12 12 12 12 12 13 13 14 14 14 14 14 14 14 14 14 13
24 27 29 29 28 28 27 28 27 26 25 24 24 22 21 20 19 19 18 17 17 16 16 16 15 15 15 14 14 14 14 14 15 15 15 15 14 14 14 14 14 13
20 25 28 30 30 30 29 29 29 28 28 27 26 25 24 23 22 22 21 20 19 19 18 18 18 18 18 17 17 16 16 16 16 16 16 16 15 15 15 14 14 14
18 20 24 28 30 31 31 31 30 30 30 29 28 28 27 26 25 24 24 22 21 21 21 21 21 21 21 20 19 19 18 18 17 17 17 17 17 16 16 15 15 15
17 18 21 24 27 28 29 31 31 32 32 31 31 30 29 29 28 27 26 25 24 24 23 24 24 24 23 23 22 22 21 20 19 19 19 19 18 18 17 16 16 16
16 18 19 21 23 25 26 29 31 33 33 33 32 32 31 31 31 30 29 28 27 27 26 26 26 26 26 25 25 24 23 23 22 21 21 20 20 20 19 18 17 17
17 17 19 20 22 23 24 26 29 31 32 33 33 33 33 33 33 32 31 30 30 30 29 29 29 29 28 27 26 26 26 25 24 23 23 22 22 21 20 19 19 18
19 18 18 20 22 23 24 25 26 28 30 31 32 33 33 33 33 33 33 32 32 32 31 31 31 30 29 29 27 27 27 27 26 25 24 24 23 23 22 21 20 20
22 20 19 20 21 23 24 25 25 26 27 28 30 31 32 31 32 33 33 33 33 33 32 32 32 31 30 29 28 28 28 28 27 26 25 25 24 24 23 23 22 21
24 23 22 21 21 22 23 24 25 25 25 27 28 29 30 29 30 31 32 32 32 32 32 32 32 31 30 29 29 29 29 29 28 27 27 26 25 25 25 24 23 23
25 25 24 23 22 22 22 23 23 24 25 26 27 28 29 28 28 29 30 31 31 32 32 33 33 32 30 30 29 29 29 30 29 29 28 27 26 26 25 25 25 25
28 27 26 25 24 24 23 22 23 24 25 25 26 27 28 29 29 29 29 30 31 31 32 33 33 32 31 31 30 30 30 30 30 30 29 28 28 27 26 26 26 26
30 29 28 27 27 26 25 24 23 24 24 24 24 26 27 29 31 31 30 30 31 32 32 32 32 32 32 32 32 32 32 32 32 32 31 31 29 28 28 28 28 28
33 31 30 29 29 28 27 26 25 24 24 24 24 24 26 28 30 32 32 32 32 33 33 33 33 32 31 31 32 33 34 34 34 34 34 33 32 31 30 30 30 30
35 33 32 32 31 30 29 28 27 26 25 25 25 24 25 26 28 30 32 32 33 34 34 35 35 33 32 31 32 33 34 36 37 37 36 35 34 33 32 32 32 32
37 35 34 34 33 32 31 30 29 28 26 26 26 26 25 25 26 28 30 31 32 33 35 36 36 35 34 32 32 33 35 37 38 39 39 37 36 34 34 34 34 34
38 36 35 35 35 35 34 32 30 30 29 28 28 27 26 25 25 26 28 30 31 33 34 36 37 37 36 34 33 33 35 38 40 40 41 40 38 36 35 35 36 36
39 37 37 36 37 37 36 34 32 32 31 30 30 29 28 26 25 25 27 28 30 32 33 35 37 38 37 36 35 34 34 36 39 41 41 41 40 38 37 37 38 38
40 39 38 38 38 39 37 35 34 33 33 33 32 32 30 28 27 26 27 27 28 30 32 34 36 37 38 37 37 36 35 36 37 38 39 39 38 35 35 38 39 39
41 40 39 39 40 41 39 37 36 35 35 35 34 34 32 31 29 28 27 27 27 28 29 32 34 36 37 37 37 38 38 37 37 37 37 37 35 32 32 35 36 37

ECMWFNIL_250_spd_096.txt.gz
Wind_Speed
17 17 17 17 16 16 15 15 14 13 12 11 10 8 7 6 5 3 3 2 3 3 5 6 7 8 9 10 11 12 13 14 16 16 16 17 17 17 18 20 21 22
18 18 18 18 17 17 17 17 16 15 13 12 11 10 9 8 6 4 3 1 0 1 3 4 5 6 7 8 10 11 12 13 14 15 15 16 16 16 16 17 18 20
18 19 19 19 19 19 19 18 17 16 15 14 13 12 11 9 8 6 5 4 3 2 2 3 4 6 6 7 9 10 11 12 13 13 14 15 15 15 15 15 15 17
20 19 19 20 20 20 20 19 19 18 17 16 15 14 13 11 10 8 7 6 5 5 4 4 5 6 7 7 8 9 10 11 12 13 13 14 14 14 14 14 14 14
22 21 21 21 21 21 20 20 20 19 19 18 17 16 14 13 12 10 9 9 8 7 7 7 7 7 8 9 9 10 11 12 12 13 13 13 14 14 14 14 13 13
22 23 23 22 22 21 21 21 21 21 20 20 19 17 16 15 14 13 12 12 11 10 10 9 9 9 9 10 11 11 12 13 13 13 14 14 14 14 14 14 13 13
21 22 24 24 24 23 22 22 22 21 22 21 20 19 18 17 17 16 15 14 14 13 12 12 12 12 12 12 13 13 14 14 14 15 15 15 15 14 14 14 14 13
19 22 23 24 25 25 25 24 23 23 23 23 22 21 20 19 19 18 17 17 16 16 15 15 14 14 14 15 15 15 16 16 16 16 16 16 16 16 15 15 15 14
19 21 22 23 23 23 25 26 25 25 25 24 24 24 23 22 21 21 20 19 19 19 18 18 18 17 17 17 18 18 18 18 18 18 18 18 17 16 16 16 16 16
19 19 20 21 21 21 22 25 26 27 26 26 26 26 25 25 24 23 23 22 22 22 22 22 21 21 20 20 20 21 21 20 20 20 20 19 18 18 17 17 17 17
18 19 19 20 20 20 20 22 24 26 26 26 27 27 27 27 26 25 25 25 24 24 25 25 25 24 24 23 23 23 23 23 22 22 21 21 20 19 18 17 17 17
15 17 18 19 20 20 20 21 22 24 25 25 26 26 27 28 28 27 27 27 27 27 27 27 27 27 26 26 26 26 26 25 24 24 23 22 21 21 20 19 18 18
14 14 16 18 19 20 20 20 21 22 23 23 24 25 26 27 28 28 28 28 29 29 29 29 29 29 29 28 28 28 28 27 26 25 24 23 22 21 21 20 19 19
15 15 15 16 17 19 20 20 20 20 21 21 22 23 24 25 26 27 27 28 29 30 30 31 31 30 30 30 29 30 29 28 27 26 25 25 23 22 21 21 20 20
18 17 16 16 16 17 18 19 19 19 19 20 21 22 22 23 24 25 26 27 28 29 29 30 31 30 30 30 29 30 30 29 28 27 26 26 25 24 23 22 21 21
20 19 18 17 16 16 17 18 18 19 18 18 20 21 22 22 23 24 25 25 26 27 27 28 28 29 29 29 29 29 29 29 28 27 27 27 26 25 24 24 23 23
23 22 20 19 18 17 16 17 18 18 18 17 17 18 20 21 22 23 24 24 25 26 27 26 26 27 27 28 28 27 28 28 28 28 28 27 27 27 26 25 25 24
26 24 22 21 20 19 18 17 17 17 18 18 17 16 17 19 21 22 23 23 24 26 27 26 26 26 27 27 27 27 27 27 28 28 28 28 27 27 27 26 26 26
29 27 25 23 22 20 19 19 18 17 17 17 17 17 17 17 18 19 21 22 24 25 26 26 26 27 27 28 28 28 27 28 28 28 29 28 28 27 27 27 27 27
32 30 27 25 23 22 21 20 18 17 17 17 18 18 18 17 16 16 18 20 21 22 24 25 25 26 27 28 28 28 28 29 29 30 30 30 29 28 28 28 28 28
32 30 28 25 24 23 22 21 20 19 18 18 18 19 19 19 17 16 16 17 19 20 21 23 23 24 26 27 28 28 29 29 30 31 32 32 31 30 29 29 30 30
32 30 27 26 24 24 23 22 21 20 20 19 19 20 20 21 20 18 16 16 17 18 19 20 21 22 23 25 26 27 28 29 30 31 32 32 32 31 30 29 29 30
33 30 27 26 25 25 24 23 22 22 21 21 21 21 21 22 22 21 19 18 17 18 18 18 19 20 21 22 23 25 27 28 29 30 31 32 32 32 31 29 27 27
33 30 27 27 27 26 26 25 24 24 23 23 22 22 22 23 23 23 22 20 19 18 18 18 18 18 19 20 20 22 25 27 28 29 30 31 32 32 32 30 28 27
32 30 28 28 28 28 27 27 26 26 25 25 25 24 23 23 24 25 24 23 21 19 19 18 18 18 19 19 19 20 22 24 26 27 28 29 30 30 31 31 31 31
33 30 29 30 31 30 29 29 28 28 28 28 27 26 25 25 25 26 26 25 23 22 20 19 19 19 20 20 19 19 20 22 24 26 27 27 28 29 30 31 32 33

ECMWFNIL_250_spd_099.txt.gz
Wind_Speed
15 14 14 13 13 13 13 12 12 11 10 9 8 6 5 4 3 2 1 1 2 4 5 7 8 9 11 13 14 15 17 17 17 18 18 18 18 18 18 18 18 19
17 16 15 15 14 14 14 13 13 13 12 10 9 7 6 5 4 3 2 2 2 3 5 6 8 9 11 12 13 15 16 17 17 17 18 18 18 18 17 17 17 17
19 18 17 17 17 16 15 15 14 14 13 12 10 9 8 7 6 5 5 4 4 4 5 6 8 9 10 11 13 14 15 16 17 17 17 18 17 17 17 17 16 16
18 19 19 19 18 17 17 16 15 15 14 14 13 12 10 9 9 8 7 6 6 6 6 7 8 9 10 11 12 13 14 15 16 17 17 18 18 17 17 17 16 16
19 19 20 20 19 19 18 17 17 17 16 15 15 14 13 12 11 11 10 9 8 8 8 8 8 9 10 10 11 12 13 14 15 17 17 18 18 18 17 17 16 16
22 21 20 20 19 19 19 19 19 19 18 18 17 16 15 14 14 13 13 12 11 10 10 10 10 10 10 11 12 12 13 14 15 17 17 18 18 18 18 17 17 16
24 23 22 21 19 19 20 20 20 20 20 20 19 18 17 17 16 16 15 14 14 13 12 12 12 12 12 12 13 13 14 15 16 17 18 19 19 19 18 18 17 16
24 24 24 23 22 21 21 21 21 21 21 21 21 20 19 19 18 17 17 17 16 15 15 14 14 14 14 15 15 15 16 16 17 17 18 19 19 19 19 18 18 17
24 24 24 23 23 23 23 22 22 22 22 22 22 22 21 20 20 19 19 19 18 18 17 17 17 17 17 17 17 17 17 18 18 18 19 19 19 19 19 19 18 17
23 23 22 22 22 23 23 23 23 23 23 23 23 23 22 22 22 21 21 21 21 21 20 20 20 19 19 19 19 19 19 19 20 20 20 20 20 20 20 19 18 18
22 21 20 20 20 21 21 22 23 23 23 24 24 24 24 24 24 23 23 23 23 23 23 23 22 22 22 21 21 21 21 21 21 21 21 21 21 20 20 20 19 18
20 20 18 17 17 19 20 21 22 22 22 23 24 24 25 25 25 25 24 24 25 25 25 25 25 24 24 23 23 22 22 22 22 22 22 22 21 21 20 20 19 19
16 17 17 16 16 16 17 19 20 21 21 22 22 23 25 25 25 25 25 25 25 26 26 26 26 25 25 24 24 23 23 22 22 22 21 21 21 21 20 20 20 19
16 15 15 16 16 16 16 15 15 16 18 19 20 22 23 24 24 24 25 25 25 25 25 25 25 25 24 24 24 23 22 21 20 20 20 20 20 20 20 19 19 19
19 18 16 15 15 16 16 15 14 13 13 15 18 19 21 21 22 22 24 25 24 24 23 24 24 23 23 23 22 22 21 20 19 18 18 18 18 18 19 19 19 19
22 21 20 18 17 16 15 15 14 13 12 12 13 15 18 20 21 21 22 22 23 23 22 22 22 22 22 22 22 21 21 20 19 18 18 18 17 17 18 18 18 19
24 23 22 21 20 18 17 16 15 14 13 11 10 11 14 17 19 20 20 20 20 21 22 21 21 20 21 21 21 21 21 20 19 19 19 18 18 18 18 17 18 18
26 25 23 22 21 20 19 17 16 15 14 12 10 9 10 13 17 18 19 19 19 19 19 19 19 19 20 21 21 21 21 21 20 20 20 19 19 19 19 18 18 19
29 27 25 23 22 20 19 19 18 16 14 13 11 9 9 10 13 15 16 17 17 17 16 16 17 18 19 19 19 19 20 20 20 20 21 20 20 20 20 20 20 20
32 29 27 25 23 21 20 18 17 16 15 14 13 12 11 10 10 12 14 16 16 15 14 14 14 15 16 16 17 17 18 18 19 20 20 20 20 20 20 20 20 21
34 32 29 27 25 22 20 18 17 16 16 15 15 14 13 12 11 12 12 13 14 14 14 13 12 12 13 14 14 14 15 16 17 18 18 18 19 19 20 20 21 22
35 33 31 29 27 24 22 20 18 17 17 16 16 16 15 14 13 13 12 13 13 14 15 14 11 11 12 12 12 13 14 15 16 16 17 17 18 18 19 20 21 22
35 33 31 30 29 27 24 21 20 19 18 18 17 17 17 16 15 15 14 15 15 15 15 14 13 12 13 13 12 13 14 15 16 15 16 16 17 17 19 20 21 22
35 33 31 31 32 30 26 22 21 21 21 20 19 18 18 18 18 17 17 17 16 16 16 15 15 15 15 14 14 14 15 16 16 16 16 16 15 16 17 18 19 21
37 34 32 31 32 32 28 24 22 22 23 23 22 21 20 20 20 20 19 19 18 17 17 17 16 16 17 17 16 16 17 17 17 17 17 16 15 15 16 17 18 20
39 36 35 33 32 32 29 25 23 23 25 26 24 23 22 22 22 22 21 20 20 19 19 18 17 17 18 19 18 18 18 18 18 19 18 17 16 15 16 17 17 18

ECMWFNIL_250_spd_102.txt.gz
Wind_Speed
14 12 12 10 9 8 7 6 5 5 4 3 3 2 2 2 3 3 4 5 6 8 9 10 11 13 14 16 17 18 19 20 21 21 21 20 20 19 18 18 17 17
17 16 14 12 11 10 9 8 7 6 5 5 4 3 2 2 2 2 3 4 6 7 8 9 10 12 13 14 15 16 17 18 19 20 20 20 19 18 18 17 16 15
20 19 17 15 14 13 12 11 9 8 7 7 6 5 4 4 4 4 4 4 5 6 7 8 10 10 11 12 13 14 16 17 18 19 19 19 19 18 17 16 15 14
22 21 20 19 18 16 14 13 12 11 10 9 8 7 7 6 6 6 5 5 5 6 7 8 9 10 11 12 13 14 15 16 17 18 19 19 19 18 18 17 15 14
23 23 23 22 20 19 17 16 15 14 14 12 11 10 9 9 8 7 7 7 6 7 7 7 8 9 10 12 12 13 14 15 17 18 18 19 19 19 18 17 16 14
25 24 24 23 22 21 20 19 18 18 17 16 15 13 12 11 10 9 9 8 8 8 8 8 8 9 10 11 12 13 14 15 16 18 18 19 19 19 18 18 16 15
26 25 24 23 22 22 22 22 21 20 19 18 17 16 15 14 13 12 11 10 10 9 9 9 9 10 10 11 12 13 14 15 16 17 19 19 19 19 19 18 17 16
27 26 26 25 24 23 24 23 22 21 21 20 19 18 17 16 15 14 13 12 11 11 11 11 11 11 12 12 13 14 15 16 17 18 18 19 19 19 19 18 17 16
28 28 27 26 26 25 25 24 23 22 22 21 20 20 19 18 18 16 15 14 13 13 13 13 13 13 14 14 15 16 16 17 17 18 18 19 19 19 19 18 18 17
27 28 28 27 27 26 26 24 24 24 23 22 22 21 20 20 20 19 17 16 15 15 15 15 15 15 16 16 17 17 18 18 18 18 18 19 19 19 18 18 17 17
25 25 26 26 26 26 25 25 25 24 24 23 23 22 21 21 21 20 20 19 18 17 17 17 17 17 18 18 18 18 19 19 19 19 19 19 19 18 18 17 17 16
23 23 23 22 23 23 24 24 24 24 24 24 24 23 22 22 21 21 21 20 20 20 19 19 19 19 19 19 19 19 19 19 19 19 19 18 18 17 17 16 16 15
22 21 19 19 19 21 22 23 23 24 24 24 24 23 23 23 22 21 21 21 22 22 22 21 21 20 20 19 19 19 19 19 19 19 19 18 17 17 16 15 15 14
20 19 18 17 17 19 21 23 23 23 22 22 23 23 23 22 21 21 21 22 22 23 23 23 22 21 20 19 19 19 18 18 18 18 18 18 17 17 16 16 15 15
19 18 18 17 17 18 19 20 21 20 19 20 21 20 20 20 20 20 20 20 21 21 22 22 21 20 19 19 18 18 18 18 17 17 17 17 17 17 17 16 16 16
20 20 19 18 18 17 17 17 17 17 17 18 18 18 18 18 18 19 19 18 17 18 19 19 19 18 18 17 17 17 17 17 16 16 17 17 17 17 17 17 17 17
23 22 21 20 19 18 17 16 15 15 16 16 16 15 15 15 15 16 16 15 14 14 15 15 15 15 16 16 15 16 16 15 15 16 16 17 18 18 18 18 18 18
26 24 23 21 20 19 18 16 15 15 14 14 13 12 12 13 14 14 13 12 12 11 11 11 10 12 13 14 14 14 14 15 15 15 16 17 18 18 19 19 19 19
29 27 25 23 22 21 20 19 18 16 14 13 12 11 12 13 14 12 11 11 10 9 8 7 7 9 11 12 12 12 13 14 14 15 16 17 18 18 19 19 19 19
31 29 28 26 25 23 23 22 21 19 16 14 13 13 14 14 13 12 12 11 11 9 7 6 6 8 10 10 10 10 11 13 14 15 16 17 17 17 18 19 19 20
35 33 30 28 27 26 25 24 23 21 19 17 16 16 15 14 14 14 14 13 12 10 9 8 7 7 8 9 9 9 10 11 13 14 15 16 16 16 17 18 18 19
39 37 34 32 30 28 27 26 24 23 21 20 19 18 17 16 15 15 15 14 14 13 12 10 8 7 9 9 9 9 10 11 13 13 14 14 14 14 15 15 16 17
42 40 38 36 34 32 30 27 26 24 22 22 21 20 19 18 18 17 17 17 17 16 14 12 9 10 11 11 10 10 11 12 12 12 13 13 13 13 13 14 14 15
44 43 41 39 37 36 32 28 26 25 24 23 23 22 21 20 20 20 19 19 19 18 16 14 12 12 13 13 12 11 12 13 13 13 13 13 12 12 13 13 14 15
46 45 43 42 40 37 34 30 27 26 25 25 25 24 23 22 22 22 21 21 21 20 18 17 15 15 15 15 13 13 13 13 13 14 14 13 12 13 14 14 15 15
48 47 45 44 42 39 35 32 30 28 28 28 27 26 25 24 24 23 23 23 22 21 21 19 17 17 17 16 15 14 15 14 15 15 14 13 13 13 14 15 15 15

ECMWFNIL_250_spd_105.txt.gz
Wind_Speed
11 9 8 8 8 8 7 6 5 3 2 2 3 4 4 5 6 7 8 9 11 12 13 14 15 16 18 18 19 20 21 22 23 23 22 21 20 19 18 18 17 17
15 13 12 10 10 10 9 8 7 5 4 3 2 2 3 3 3 4 5 7 8 9 11 12 13 14 15 16 17 18 19 21 21 22 22 22 21 20 19 18 17 16
19 17 14 14 14 13 12 11 9 8 6 5 4 2 1 1 1 2 3 4 5 7 8 9 11 12 13 14 15 17 18 19 20 21 22 22 21 20 19 18 17 16
21 19 17 18 18 17 15 13 11 10 9 7 6 5 3 2 1 1 1 2 3 4 5 7 8 9 10 12 13 15 16 18 19 20 21 21 21 20 19 18 17 16
23 21 20 20 20 19 17 15 14 13 11 9 8 7 6 4 3 3 2 2 2 3 4 5 5 6 8 9 11 12 14 16 17 18 19 20 20 20 19 18 17 16
24 23 22 21 21 20 19 18 17 15 13 12 11 9 8 7 6 5 5 4 4 4 4 4 5 5 6 7 9 11 12 14 16 17 18 18 19 19 19 18 17 16
25 24 23 22 21 21 20 20 18 17 15 14 13 11 10 9 8 8 7 7 6 6 6 6 6 6 6 7 8 9 11 13 14 16 17 17 18 18 18 17 16 16
26 25 25 23 23 22 22 21 19 18 17 16 14 14 13 12 11 10 9 9 9 9 9 9 9 9 8 8 8 9 10 11 13 15 16 16 17 17 17 16 16 15
27 27 26 25 24 24 23 22 21 20 18 17 16 16 15 14 13 12 12 11 11 11 12 12 12 12 11 10 10 10 10 11 12 13 15 15 16 16 16 16 15 14
27 27 27 27 26 25 24 23 22 21 20 19 19 18 17 16 16 15 14 14 14 14 14 14 14 14 13 13 12 12 12 12 12 13 13 14 15 15 15 15 15 14
25 27 27 28 27 26 25 24 23 22 21 21 21 20 19 19 18 18 17 17 17 17 16 16 15 15 15 15 14 14 13 13 13 13 13 13 14 14 14 15 14 14
22 25 26 26 27 26 26 25 24 23 23 22 22 21 21 21 21 20 20 19 19 19 18 18 17 17 16 16 15 15 15 15 14 14 13 13 13 13 13 13 13 13
21 22 23 24 25 26 26 26 25 25 24 24 24 23 23 23 22 22 21 21 21 21 20 20 19 18 17 17 16 16 16 16 15 15 14 13 13 12 12 12 12 12
20 20 20 21 23 24 26 27 26 26 26 26 26 26 25 25 24 23 23 23 23 22 21 20 20 19 18 17 16 16 16 16 15 15 14 13 12 11 11 11 10 10
20 19 19 20 21 23 25 27 27 27 27 27 27 27 26 25 24 24 23 23 23 22 21 20 19 18 17 17 16 16 15 15 15 14 14 13 12 11 10 9 9 9
22 22 21 20 21 23 24 26 26 26 26 27 27 26 26 24 23 23 22 22 22 21 20 19 17 16 16 16 15 15 15 14 14 13 13 12 11 10 10 10 9 9
25 24 23 22 23 23 24 25 26 25 25 25 25 25 24 23 22 21 21 20 19 19 19 17 15 14 14 14 14 14 14 13 13 12 11 11 10 10 10 10 10 10
28 27 26 24 24 23 24 24 24 24 24 24 24 24 22 21 21 20 18 17 17 17 16 14 12 11 12 13 13 13 13 13 12 12 11 10 10 10 10 9 9 9
31 29 28 27 25 24 24 23 24 24 24 24 23 22 21 21 21 20 18 16 16 15 14 12 11 11 12 12 12 11 12 12 12 11 11 10 9 8 8 8 8 9
32 31 30 29 28 27 26 25 25 24 24 23 22 22 22 23 21 20 18 17 16 15 13 12 11 11 12 12 12 11 11 11 12 11 10 9 7 6 6 6 7 7
35 34 32 31 30 29 29 29 27 25 23 22 22 22 23 22 21 20 19 18 16 15 14 13 12 12 13 13 12 12 12 12 12 11 9 7 5 4 4 5 5 6
38 36 34 33 32 32 32 31 29 26 24 23 22 22 22 21 21 20 19 18 17 16 15 14 13 13 14 14 13 13 13 13 11 9 7 5 4 3 4 4 5 6
41 39 37 35 34 34 33 32 30 27 25 24 23 23 22 22 21 20 20 19 19 18 17 15 13 13 14 14 14 13 13 12 10 8 7 6 3 3 4 5 5 6
45 42 40 38 36 35 34 32 30 28 26 25 24 23 23 22 22 21 21 21 21 20 18 16 14 14 14 15 14 14 14 13 11 10 9 7 5 5 6 6 6 6
48 46 43 41 39 38 35 33 31 29 27 26 25 24 24 24 23 23 23 23 23 22 21 18 16 15 16 16 14 14 15 14 13 13 11 8 7 8 9 8 7 7
50 49 47 44 42 40 38 36 34 32 30 28 28 27 26 26 26 26 25 25 24 24 23 21 18 17 17 17 16 16 16 16 16 15 13 9 9 10 11 10 9 9

ECMWFNIL_250_spd_108.txt.gz
Wind_Speed
9 7 6 5 4 5 5 5 4 4 4 4 4 5 6 7 8 10 10 11 12 13 14 15 16 17 18 19 20 21 22 23 24 23 22 21 20 19 18 17 17 16
13 11 9 7 6 7 7 7 6 5 5 5 5 5 5 6 6 7 8 9 9 10 11 12 13 14 15 16 18 19 20 21 22 22 22 21 20 19 17 16 16 15
17 15 13 10 10 10 10 9 8 8 8 7 6 5 5 5 5 6 6 6 7 8 9 10 10 11 12 14 15 16 17 18 19 20 20 20 20 19 18 16 15 14
21 19 17 15 14 13 12 12 11 10 10 9 8 7 6 5 4 4 4 5 5 5 6 7 8 8 9 11 12 13 15 16 17 17 18 18 18 17 17 16 15 14
25 23 21 20 17 15 14 14 13 13 12 11 10 9 7 6 4 3 3 3 2 2 3 4 5 6 7 8 9 11 12 13 14 15 15 16 16 16 15 14 14 13
28 27 25 23 21 18 16 16 17 16 15 13 12 11 9 8 6 4 3 2 1 1 1 2 3 4 5 6 7 9 10 11 12 12 13 13 14 14 13 13 12 12
29 29 27 26 23 20 18 19 19 18 16 15 14 13 11 10 8 6 5 4 3 2 2 2 2 3 4 5 6 8 9 10 10 11 11 11 12 12 12 11 11 10
28 29 28 27 25 22 21 20 21 20 18 17 16 15 14 12 10 9 7 6 5 4 4 4 4 4 4 5 6 7 8 9 10 10 10 11 11 11 10 10 9 9
27 28 28 27 26 24 23 22 22 21 20 19 17 17 15 14 13 11 10 9 8 7 7 6 6 6 6 6 6 7 8 9 9 10 11 11 11 10 10 9 8 8
26 27 28 27 26 25 24 23 23 22 21 20 19 18 17 15 14 14 12 12 11 10 10 9 8 8 8 8 7 8 8 9 9 10 11 11 11 11 10 9 8 7
24 25 26 26 26 26 25 25 24 23 22 22 21 20 19 17 16 15 15 14 14 13 13 12 11 11 11 10 10 10 10 10 10 10 10 10 10 10 10 9 8 7
24 25 25 25 25 25 25 25 25 24 23 23 22 21 21 20 18 17 17 16 16 16 15 14 14 13 13 13 13 12 12 12 12 11 11 10 9 9 9 8 8 7
25 25 24 23 23 24 25 26 26 25 24 24 23 23 22 21 20 19 18 18 18 18 17 17 16 16 16 15 15 14 14 14 14 13 12 10 9 8 8 8 7 6
26 25 23 23 23 23 25 26 26 26 25 25 25 24 23 22 21 20 20 20 20 19 19 19 18 18 18 17 17 16 16 15 15 13 12 11 9 8 8 7 7 7
26 25 24 23 23 23 25 25 25 26 26 26 26 25 24 24 23 22 22 21 21 21 21 20 20 19 19 19 18 17 16 16 14 13 12 11 10 9 8 8 8 8
26 25 25 24 25 25 25 25 25 25 26 26 26 26 25 25 24 23 23 22 22 22 22 22 21 20 20 19 19 18 17 15 14 13 12 11 10 10 10 9 9 9
27 26 26 26 26 26 26 26 26 26 26 27 27 26 26 25 24 23 23 22 22 22 22 22 21 19 19 19 18 17 16 15 14 13 12 12 11 11 11 10 10 10
29 28 28 28 27 27 27 27 27 27 27 27 26 26 25 24 23 22 21 21 22 22 22 21 18 17 18 18 17 16 15 14 14 13 13 12 12 11 11 10 9 9
32 31 30 29 28 28 28 27 27 27 27 26 25 24 24 23 23 22 20 20 20 21 20 19 17 17 17 18 17 16 16 15 15 14 13 12 11 10 9 9 8 8
36 34 32 31 30 28 28 28 28 28 27 26 24 24 23 22 21 20 19 19 20 20 19 19 18 18 18 19 18 17 16 16 15 14 13 11 10 9 8 8 7 7
40 38 35 33 32 30 29 29 29 29 27 25 24 23 22 21 20 20 19 19 19 19 19 19 19 19 19 19 19 17 16 16 15 13 11 10 10 9 8 8 7 7
44 41 38 36 34 32 31 30 29 28 26 24 23 22 22 21 20 19 18 17 17 18 18 18 17 17 19 19 18 16 16 15 13 11 9 9 10 9 9 8 8 7
47 44 41 38 36 34 33 31 29 26 24 22 22 22 21 20 19 19 18 17 17 17 17 16 14 15 17 18 17 16 16 15 12 10 10 10 10 10 10 10 9 8
50 47 44 40 38 36 34 31 28 26 23 22 21 21 20 20 19 19 20 19 19 18 18 16 14 14 16 17 17 17 17 16 13 12 11 11 11 11 12 11 10 9
51 50 47 44 40 38 34 30 27 24 23 22 22 21 21 20 20 21 21 21 21 20 20 18 16 16 16 16 17 18 19 17 15 14 12 11 11 12 13 12 12 11
54 52 50 47 43 40 36 31 27 25 23 22 22 23 23 23 22 23 23 23 22 22 22 21 19 18 18 18 18 19 20 19 17 16 13 11 11 13 14 14 12 11

ECMWFNIL_250_spd_111.txt.gz
Wind_Speed
8 5 2 1 1 0 1 2 3 3 4 4 4 4 3 3 4 5 7 9 10 11 13 14 15 17 17 18 18 17 17 16 16 16 15 15 14 14 13 13 12 12
11 8 6 3 2 2 2 2 3 3 3 4 4 4 3 2 2 3 4 6 7 9 10 12 13 14 15 16 16 16 16 15 15 14 14 14 13 13 12 11 11 11
14 12 9 7 6 5 5 4 4 5 5 4 4 4 4 3 1 1 2 3 5 6 8 9 10 11 13 14 14 15 15 14 14 13 12 12 12 11 11 10 10 9
16 15 13 11 10 8 7 7 6 7 7 6 5 5 4 3 3 1 0 2 3 4 6 7 8 9 10 11 12 13 13 13 13 12 12 11 11 10 10 9 9 8
19 18 17 15 14 12 11 10 9 9 9 8 8 7 5 5 4 3 2 1 2 3 4 5 6 8 9 10 10 11 12 12 12 12 11 10 10 9 9 8 8 7
22 21 20 19 17 16 15 14 13 12 12 10 10 9 7 6 6 5 4 3 2 2 3 4 5 6 7 8 9 10 10 11 11 11 11 10 10 9 8 8 7 6
25 24 23 22 21 20 18 17 16 15 14 13 12 11 10 9 7 6 6 5 4 3 3 4 4 5 6 7 7 8 9 9 10 10 10 10 10 9 8 7 6 6
28 27 26 25 24 23 21 20 19 18 17 15 14 13 12 11 9 8 8 6 6 6 5 5 5 5 5 6 7 7 8 9 9 10 10 10 9 8 8 7 6 5
28 29 29 28 26 25 23 22 21 20 19 17 16 15 13 12 11 11 10 9 8 8 7 7 7 7 7 7 7 8 9 9 10 10 10 10 9 8 7 6 6 5
27 28 28 28 27 26 25 24 23 22 21 19 18 17 15 14 13 12 12 11 10 10 10 10 9 9 9 8 8 9 10 10 11 11 11 10 10 9 7 6 5 5
25 25 26 27 26 26 25 25 24 23 22 21 20 19 18 16 15 14 13 13 13 13 13 12 12 11 11 10 10 10 11 11 12 12 11 11 10 10 9 7 6 5
26 26 25 24 24 25 25 25 25 25 24 23 22 21 20 19 17 17 16 15 15 15 15 14 14 13 13 12 12 12 12 12 13 13 12 12 11 11 10 9 8 7
28 27 25 23 23 23 24 25 25 25 24 24 24 23 22 21 20 19 18 18 18 18 17 16 16 15 14 14 14 14 14 14 14 14 13 13 12 11 11 11 10 9
29 28 26 24 23 23 24 25 25 25 25 25 26 25 24 23 22 21 21 21 20 20 19 18 17 16 16 15 15 15 15 15 15 15 14 14 13 12 12 12 12 11
32 31 29 26 24 24 25 26 25 25 25 25 27 27 26 25 24 24 23 23 23 22 21 20 19 18 17 16 16 16 16 15 15 15 15 14 14 14 13 13 14 13
35 32 31 29 27 26 25 26 26 26 25 26 27 27 27 27 26 26 26 25 25 24 23 21 20 18 18 17 17 17 16 15 15 15 15 15 14 14 14 15 15 15
37 34 33 31 30 28 26 26 27 27 27 27 27 28 28 28 27 27 27 26 26 25 24 22 20 18 17 18 17 16 16 15 15 15 15 15 15 15 15 16 16 15
36 37 35 33 32 30 28 26 26 27 28 29 29 29 29 28 28 28 27 26 26 25 24 22 19 18 17 18 17 16 15 15 15 15 15 15 15 15 15 15 15 15
33 37 38 36 33 31 29 27 26 26 28 29 29 29 28 28 28 28 26 25 24 24 23 21 19 18 17 17 16 15 15 15 15 15 15 15 14 14 14 14 14 14
35 37 39 40 36 32 30 29 26 24 24 25 26 26 26 27 26 25 23 22 22 22 21 20 19 18 17 16 16 15 15 15 16 15 15 14 13 12 13 13 13 13
38 37 39 40 38 35 33 30 26 23 20 19 20 20 21 22 21 20 20 21 21 21 20 20 19 17 16 16 17 16 15 15 15 15 13 12 11 11 11 11 12 12
41 40 41 39 38 37 35 30 25 20 15 13 13 14 15 15 15 16 17 18 18 18 19 19 18 16 15 16 17 16 16 15 14 12 11 10 10 11 11 11 11 11
44 42 43 41 39 39 36 33 29 26 22 20 19 18 15 14 15 15 15 16 16 16 17 17 15 14 14 16 17 17 16 14 12 10 10 10 10 10 11 12 12 11
43 40 41 44 44 42 39 38 38 37 36 35 34 34 31 27 24 20 18 18 18 16 16 14 14 14 14 15 17 17 15 13 11 10 10 10 10 10 12 13 13 13
45 40 40 44 49 47 43 42 42 40 39 37 37 38 38 36 33 30 28 26 23 20 19 17 16 15 15 15 16 17 16 14 12 11 11 10 10 11 13 14 15 14
54 49 46 48 51 51 47 45 43 40 38 37 36 36 36 34 33 32 31 29 26 26 26 25 21 18 19 20 19 19 18 16 14 13 11 11 11 13 14 15 15 14

ECMWFNIL_250_spd_114.txt.gz
Wind_Speed
4 2 1 3 4 3 2 2 2 2 2 2 2 3 4 5 6 7 8 9 11 12 14 15 16 17 17 16 15 15 14 13 12 12 11 10 10 10 10 10 10 10
7 6 4 2 2 3 3 2 2 2 2 3 2 3 3 4 5 5 6 7 8 10 11 13 15 16 17 17 16 16 15 14 13 13 12 11 10 10 9 9 9 9
10 9 7 4 3 4 3 2 2 3 3 3 3 3 4 5 5 5 5 6 7 8 9 11 12 14 15 16 16 16 15 14 14 13 13 12 11 10 9 9 8 8
13 11 10 8 6 5 4 4 3 3 4 4 4 4 4 5 6 6 5 6 6 7 7 9 10 11 12 13 14 15 15 15 14 14 13 12 11 11 10 10 9 8
16 14 12 10 9 8 7 6 5 4 5 5 6 5 5 6 7 7 6 6 6 6 6 7 8 9 10 10 11 12 13 14 14 13 13 12 11 11 10 10 9 9
17 17 15 13 11 10 10 9 7 7 6 6 7 7 7 7 7 8 8 7 6 6 6 6 6 7 8 8 9 10 11 12 13 13 12 12 11 11 10 10 9 9
17 18 18 17 15 13 12 11 10 9 8 8 8 8 8 9 9 9 9 9 8 7 6 6 6 6 7 8 8 9 10 10 11 12 12 11 11 10 10 9 9 8
17 18 18 18 18 17 16 14 13 12 11 10 10 10 10 10 10 10 10 10 10 9 8 7 7 7 7 8 8 9 9 10 10 11 11 11 11 10 10 9 9 8
18 18 18 18 19 19 19 18 16 16 14 12 12 12 12 13 13 12 12 11 11 11 11 10 9 9 9 8 8 9 9 9 10 10 10 10 10 10 10 9 9 8
19 18 18 18 19 20 20 20 19 18 17 15 15 15 14 15 15 15 14 13 13 13 13 12 12 11 11 10 10 10 10 10 10 10 10 10 10 10 10 9 9 8
20 18 17 18 18 20 20 21 21 21 20 18 18 17 17 17 17 17 17 16 15 15 15 14 14 14 13 12 11 11 11 11 11 11 11 11 11 10 10 9 9 8
20 19 17 16 17 19 20 21 21 22 21 21 21 20 19 19 19 19 19 19 18 17 17 16 16 16 15 15 14 13 13 13 12 12 12 12 11 11 10 10 9 9
21 18 16 15 17 18 20 21 22 22 23 23 23 23 22 22 22 21 21 21 21 20 19 19 18 18 17 17 16 15 15 15 14 14 13 13 12 12 11 10 10 10
20 18 18 18 17 19 20 21 21 22 23 24 25 25 24 24 24 24 24 24 24 23 22 22 21 20 20 19 18 17 17 17 16 15 15 14 14 13 12 11 11 11
21 18 20 21 21 22 22 21 21 21 23 25 26 27 27 27 27 27 27 27 27 26 25 25 24 23 22 21 20 19 19 19 18 17 16 16 15 15 14 13 12 12
25 21 19 22 26 28 26 21 19 20 22 25 27 29 29 29 29 30 30 29 29 29 28 28 27 26 24 23 22 21 21 20 19 19 18 18 17 16 15 14 13 13
28 26 24 25 31 34 31 25 20 18 22 26 28 30 32 32 32 32 31 31 31 30 29 29 28 26 24 23 23 22 22 21 20 20 20 19 18 17 16 15 13 13
29 30 31 33 35 36 32 31 29 24 23 26 29 30 32 34 34 33 32 32 32 31 31 29 27 25 24 23 23 23 23 22 22 21 21 20 19 18 16 14 13 12
31 31 33 35 36 36 34 35 35 32 30 30 30 31 33 35 35 35 35 33 33 32 32 30 27 25 24 23 23 24 23 23 22 22 22 21 20 18 16 14 13 12
36 33 33 34 35 35 35 37 38 37 38 38 37 37 38 37 36 36 36 35 34 34 33 32 29 26 24 23 23 23 23 23 23 23 23 22 20 18 16 14 13 12
42 40 37 37 38 38 37 39 40 41 42 43 43 42 41 38 35 34 35 36 35 34 33 31 28 25 23 22 22 22 23 23 24 24 24 22 20 18 16 14 13 12
44 44 43 43 43 42 41 41 43 44 44 45 44 42 39 38 36 33 32 33 33 31 29 26 23 20 20 20 20 22 23 23 24 25 24 22 20 18 16 15 14 13
47 47 48 48 47 45 43 44 45 45 45 47 46 43 40 40 40 37 33 32 32 31 30 27 23 20 19 18 18 20 23 24 23 23 22 20 18 17 17 15 14 13
51 51 51 51 51 47 44 45 46 45 46 48 48 47 44 42 42 40 36 33 31 30 30 28 26 24 23 22 21 21 22 23 21 19 19 18 17 17 16 16 15 15
56 54 52 52 53 50 46 45 46 46 46 47 47 47 45 43 43 42 39 34 32 32 31 29 27 26 26 26 25 23 22 22 21 19 19 18 17 16 17 17 17 16
64 60 57 55 55 53 49 47 47 48 48 47 47 46 46 45 44 44 42 39 36 35 34 33 31 30 28 28 28 26 24 23 22 21 21 20 18 17 18 19 18 17

ECMWFNIL_250_spd_117.txt.gz
Wind_Speed
6 6 7 7 6 5 4 3 3 3 4 4 5 5 6 7 8 10 11 13 14 15 16 17 18 18 19 19 18 17 16 15 13 12 11 11 10 9 8 8 8 8
7 6 6 7 6 6 5 3 2 2 3 4 4 3 4 4 5 7 8 9 11 12 13 14 15 16 16 17 17 17 16 15 14 13 12 11 10 9 9 8 7 7
10 8 7 7 6 6 5 4 3 3 3 3 4 3 3 3 3 4 5 6 7 8 9 11 12 12 13 14 14 15 15 15 14 13 13 12 11 10 9 8 8 7
15 12 10 8 8 7 5 4 4 3 3 4 4 4 3 3 2 2 2 3 4 5 6 7 8 9 10 11 12 12 13 13 13 13 13 12 11 10 9 8 7 7
18 16 13 11 10 8 6 5 5 4 4 5 5 5 5 5 4 3 2 1 2 3 3 4 5 6 7 8 9 10 11 11 12 12 12 12 11 10 9 8 8 7
20 19 17 15 13 11 10 8 7 6 6 6 7 7 7 6 6 5 4 3 2 1 1 2 2 3 4 5 6 7 9 10 11 11 12 12 11 11 10 9 8 8
20 21 20 19 17 15 14 12 10 9 8 8 9 9 8 8 8 7 6 5 4 3 2 1 0 0 1 2 4 5 6 8 9 10 11 11 11 11 10 10 9 9
20 21 21 22 21 19 18 16 14 13 12 11 11 11 10 10 10 9 9 8 7 6 5 4 3 2 2 2 3 3 5 6 8 9 10 10 11 11 11 11 10 10
22 20 20 21 22 22 21 19 18 17 16 14 14 14 13 12 12 12 11 11 10 9 8 7 6 5 5 4 4 4 5 5 7 8 9 10 11 11 11 11 11 11
23 22 21 20 20 22 22 22 21 20 19 18 17 17 16 15 14 14 14 13 13 12 11 10 9 8 7 7 7 6 6 6 7 8 9 10 11 12 12 12 12 12
25 24 23 22 21 22 22 22 22 22 21 20 20 19 19 18 17 17 16 16 15 15 14 13 12 11 10 9 9 9 8 8 8 9 10 11 11 12 13 13 13 13
27 26 26 25 23 21 21 21 22 22 22 22 22 22 21 21 20 19 19 19 18 18 17 15 14 13 12 11 11 11 10 10 10 10 11 11 12 13 13 14 14 14
30 29 28 27 24 22 22 21 21 21 22 22 23 23 23 23 23 22 21 22 21 20 19 19 17 16 14 13 13 12 12 12 12 11 12 12 13 13 14 14 14 14
32 31 31 29 27 25 25 24 22 21 21 22 22 23 24 24 24 25 24 24 24 23 22 21 20 18 17 16 15 14 14 13 13 13 13 13 13 14 14 14 15 14
34 33 33 33 30 29 30 28 26 24 21 21 21 21 22 24 25 26 27 27 27 26 25 24 22 21 19 18 17 16 15 14 14 13 13 14 14 14 14 14 14 14
36 36 36 36 34 33 34 32 30 26 22 21 21 20 20 21 21 22 24 27 28 28 27 26 25 23 21 20 19 18 17 16 15 14 14 14 14 14 14 14 13 13
38 39 39 39 37 35 34 34 33 31 27 25 24 22 21 20 19 18 18 21 25 28 29 28 26 24 22 21 19 18 18 17 16 15 15 15 15 14 13 13 12 12
40 42 42 41 38 36 35 34 35 35 33 30 27 25 23 22 21 19 18 18 21 24 26 27 26 25 23 21 20 19 19 18 17 16 16 15 15 14 13 12 11 10
40 43 45 42 39 38 37 36 36 36 36 35 31 27 26 26 26 24 22 21 20 20 20 22 24 25 24 22 20 20 19 19 18 17 17 16 15 14 13 11 10 9
40 44 46 44 41 41 40 39 38 37 36 36 34 31 29 30 31 30 28 26 23 20 19 19 21 22 23 22 21 21 20 20 19 18 18 17 16 15 14 12 11 10
46 48 47 46 44 43 41 41 41 40 38 37 36 34 34 35 36 36 33 31 30 26 23 22 21 20 19 19 19 20 20 20 19 18 17 16 16 15 14 13 12 11
50 52 49 47 46 45 43 42 42 41 40 38 37 37 37 38 40 39 36 35 34 32 28 26 24 21 18 17 17 18 19 19 18 17 16 15 15 14 13 13 13 12
53 55 53 50 49 48 45 43 41 39 39 40 40 40 40 41 42 42 40 38 36 35 31 27 23 20 18 16 15 15 17 18 19 18 18 16 15 14 14 13 13 13
56 57 57 54 53 51 49 45 42 39 38 38 39 41 42 43 44 45 43 40 38 37 35 31 25 21 19 18 17 16 16 17 18 19 19 18 16 14 15 15 15 15
59 60 61 59 57 56 53 50 47 44 40 36 36 38 39 42 45 46 45 42 40 39 38 36 31 25 22 21 19 18 18 18 18 19 20 19 16 15 16 16 17 17
63 63 64 63 61 60 59 56 53 50 46 38 33 34 38 42 44 46 46 43 42 41 41 38 34 29 26 24 22 22 21 21 21 22 22 20 19 19 18 18 19 19

ECMWFNIL_250_spd_120.txt.gz
Wind_Speed
4 3 4 4 5 4 4 4 4 4 3 4 5 6 7 8 9 11 12 13 14 15 16 17 17 18 18 17 18 17 17 16 15 14 14 13 12 12 12 12 12 12
7 6 5 5 5 4 4 4 4 4 4 3 4 4 5 6 8 9 10 11 12 13 14 15 16 17 17 17 18 17 17 17 16 15 15 14 13 13 12 12 12 12
10 9 8 7 6 5 5 4 4 4 5 4 4 4 4 5 6 7 8 9 10 12 13 14 15 15 16 17 17 17 17 17 17 16 15 15 14 14 13 13 12 12
13 12 10 9 9 8 6 5 5 5 5 6 5 5 5 5 5 6 7 8 9 10 11 12 13 14 14 15 16 17 17 17 16 16 16 16 15 15 14 14 13 13
14 14 13 12 12 11 10 8 7 6 6 6 6 7 7 7 6 6 6 7 7 8 10 11 12 13 13 14 15 15 16 16 16 16 16 16 16 16 15 15 14 14
15 15 14 14 14 14 13 12 10 9 8 7 7 8 8 8 8 8 8 7 7 7 8 9 10 11 12 13 13 14 14 14 15 15 15 15 15 15 15 15 15 14
14 15 16 16 16 16 16 15 14 12 11 10 9 8 8 8 9 10 10 9 8 7 7 8 8 9 10 11 11 12 13 13 13 14 14 15 15 15 15 15 15 14
14 15 16 17 17 18 18 17 16 15 14 12 11 10 9 8 9 10 11 11 11 9 8 8 8 9 9 9 10 11 12 12 13 13 14 14 15 15 15 15 15 14
15 15 15 17 18 19 19 19 19 19 17 15 14 12 11 10 9 10 11 12 12 12 11 10 9 9 9 10 10 10 11 12 12 13 14 14 14 15 15 15 15 15
15 15 16 17 18 19 20 21 22 22 21 19 18 16 14 13 12 11 11 12 13 13 13 12 12 11 11 11 11 11 11 12 12 13 13 13 14 14 15 15 15 15
15 14 16 18 19 20 22 23 23 24 24 23 22 20 18 15 14 14 14 14 15 15 14 13 13 13 13 12 12 12 12 12 13 13 13 13 13 13 14 14 15 15
21 18 19 20 22 23 23 24 25 25 25 25 24 23 22 20 18 16 16 16 17 17 16 15 14 14 14 14 13 13 13 13 13 14 14 14 13 13 13 13 14 14
27 25 21 19 22 25 25 25 25 26 26 26 26 25 24 23 22 20 19 18 18 18 18 18 16 15 15 15 14 14 14 14 14 14 14 14 14 14 13 13 13 13
31 29 24 20 21 24 25 26 26 26 27 27 26 25 24 24 23 23 22 21 20 20 20 20 19 17 16 16 16 16 16 15 15 14 14 14 15 15 14 14 13 13
32 29 27 26 24 23 25 27 26 26 27 27 27 25 23 23 23 24 24 23 22 21 21 21 22 21 19 18 18 17 17 16 16 15 14 14 15 15 15 15 14 14
33 32 32 31 28 26 26 28 29 28 27 27 27 26 23 21 22 23 24 24 23 22 21 21 22 23 23 21 21 19 18 17 17 16 15 14 14 15 15 15 15 14
31 31 35 38 35 30 28 29 32 32 31 30 29 28 27 24 22 22 22 23 23 22 22 20 20 22 24 24 23 22 20 19 18 17 16 15 15 14 14 14 14 13
33 30 34 40 40 35 30 29 32 34 34 34 32 31 30 28 26 25 24 24 23 23 23 20 17 18 21 23 24 24 22 21 19 18 18 17 16 15 14 14 13 12
42 38 37 39 41 39 33 31 33 35 35 36 35 33 32 32 31 30 29 28 26 24 24 21 18 16 17 19 21 22 22 22 21 20 19 18 17 16 15 13 12 11
47 45 43 41 41 41 38 36 37 39 40 41 38 36 34 33 34 34 34 32 30 28 26 24 22 20 19 18 18 19 20 21 21 20 20 19 18 16 15 13 12 11
49 47 45 42 41 42 42 42 42 43 45 45 41 38 36 34 34 35 35 35 34 32 30 28 26 25 23 22 20 19 20 20 20 20 20 19 19 17 15 13 12 11
52 49 47 44 43 43 44 44 42 41 44 45 42 39 38 37 36 35 35 36 37 36 33 31 30 27 25 24 23 21 20 20 19 19 20 20 19 18 16 15 13 12
53 51 50 48 47 46 45 43 39 37 39 42 43 41 40 41 39 37 37 37 38 38 36 33 31 29 27 26 24 22 21 21 20 20 20 21 20 18 17 16 15 14
55 53 53 53 52 51 49 46 44 42 40 41 44 44 44 44 42 40 39 39 39 40 39 36 33 31 30 29 27 26 24 23 21 21 22 22 21 20 19 18 17 17
63 61 60 58 57 57 56 54 53 52 48 45 46 48 48 47 45 43 42 41 42 42 42 41 38 35 33 32 31 30 29 27 25 23 24 24 22 21 20 20 20 19
73 69 66 64 63 61 61 60 59 57 54 51 50 51 52 51 48 46 44 43 43 43 42 42 41 39 38 36 35 34 32 30 28 27 26 25 23 22 22 22 21 20

ECMWFNIL_250_spd_123.txt.gz
Wind_Speed
12 11 11 11 11 12 12 12 12 12 12 12 11 11 12 13 14 15 17 18 19 20 20 21 22 21 21 21 20 19 19 18 18 18 17 17 16 16 15 15 15 14
12 13 12 11 11 11 11 12 12 11 11 11 11 11 11 11 12 13 14 15 16 17 18 19 20 20 20 21 20 20 20 20 19 19 18 18 17 16 16 15 15 15
12 13 13 13 12 12 12 12 12 11 11 11 10 10 10 10 10 10 11 12 13 14 15 16 17 18 19 19 20 20 20 20 20 20 19 18 18 17 17 16 16 15
10 12 13 13 13 13 12 12 12 11 11 10 10 10 10 9 8 8 9 9 10 11 12 13 14 16 17 17 18 19 20 20 20 20 20 19 19 18 18 17 17 16
8 10 12 13 13 13 12 12 12 12 11 11 10 10 9 9 8 8 7 7 8 8 9 10 11 13 14 15 16 17 18 19 19 20 20 20 19 19 18 18 17 17
8 9 11 12 12 12 12 12 12 13 13 12 12 11 10 9 8 8 8 7 6 6 7 8 9 10 11 12 13 15 16 17 17 18 18 19 19 19 18 18 17 17
11 9 10 12 12 12 12 12 12 13 14 14 14 13 13 12 10 9 9 8 7 6 6 6 7 7 8 9 11 12 13 14 15 15 16 16 17 17 17 17 17 16
13 12 11 12 12 11 11 12 12 13 14 15 15 15 15 15 14 13 12 11 10 8 7 7 6 6 7 8 8 9 11 11 12 13 14 14 14 15 15 15 15 15
16 15 14 13 13 11 9 10 12 12 14 15 15 16 16 17 18 17 16 15 14 12 10 9 8 7 7 7 7 7 8 9 10 11 12 12 13 13 14 14 14 14
20 18 16 15 14 12 10 10 11 11 12 13 14 15 16 17 19 19 19 19 18 17 15 13 11 10 9 9 8 8 8 8 9 10 11 11 12 13 13 14 15 15
23 21 19 16 14 13 13 13 13 12 12 13 13 14 15 16 17 19 20 20 20 19 19 17 16 14 13 12 11 10 10 9 10 10 11 11 12 12 13 14 15 15
22 20 20 19 17 17 17 16 15 15 14 13 13 13 14 15 16 17 19 20 20 20 20 20 19 18 17 15 14 13 13 12 11 11 11 12 12 12 12 13 14 15
22 20 20 21 22 22 22 19 16 16 16 15 14 13 14 14 15 16 17 18 19 20 20 20 20 20 19 18 17 17 16 15 14 13 13 13 13 12 12 12 13 13
25 25 24 25 24 24 24 21 17 16 17 17 17 15 15 15 15 16 16 17 18 19 19 19 19 19 19 20 19 19 18 18 16 15 14 14 14 14 14 13 13 13
28 27 27 28 27 24 24 24 22 21 20 20 19 18 17 17 17 17 16 16 17 19 19 19 19 18 18 19 20 20 19 19 18 17 16 15 15 15 15 15 14 14
31 28 27 28 28 26 25 26 26 26 24 22 22 22 20 18 18 18 18 17 17 18 19 19 19 18 17 17 18 19 19 19 18 18 17 17 16 16 16 16 16 15
33 30 29 28 28 27 28 29 31 30 26 23 25 25 23 22 21 21 21 20 19 19 20 19 19 18 18 16 16 16 17 18 18 18 18 18 17 17 16 17 17 17
38 34 32 30 29 29 30 31 32 31 27 23 24 26 27 28 26 24 24 23 22 22 21 21 20 20 19 17 16 15 15 16 17 18 19 19 19 18 17 17 17 18
43 38 36 35 32 31 31 31 33 34 30 24 25 26 27 28 28 26 26 26 25 24 24 24 24 23 21 20 18 17 15 14 15 16 17 18 19 19 19 18 18 18
46 42 38 37 36 33 31 29 30 32 31 27 27 30 30 29 29 28 28 28 28 27 26 27 28 27 26 24 22 20 19 17 16 15 15 16 18 19 19 19 19 19
46 45 40 38 37 36 34 31 29 28 28 27 30 33 34 31 30 30 30 30 31 32 31 30 30 29 28 27 26 24 23 21 20 18 17 17 17 18 19 19 19 19
46 46 43 41 38 37 37 36 32 27 25 26 30 35 36 33 30 29 29 29 33 38 37 34 33 31 29 29 29 27 27 25 23 22 21 20 19 18 19 19 20 20
50 48 46 44 41 40 41 39 33 27 25 26 29 34 38 36 31 29 29 29 34 42 44 39 36 34 32 31 30 29 29 28 27 26 24 23 21 20 19 20 21 21
53 51 50 49 46 44 45 43 37 34 34 35 34 34 37 40 36 31 30 29 32 43 48 44 39 37 35 33 32 31 31 30 30 30 28 26 24 23 22 21 21 22
59 56 54 53 52 50 50 51 50 48 48 48 46 41 41 44 42 37 34 32 32 40 47 45 42 40 38 37 35 33 33 33 33 33 32 29 28 26 25 24 23 22
70 65 61 59 58 56 55 56 59 60 61 59 57 52 49 49 48 45 41 36 34 38 43 45 45 43 41 40 39 37 37 37 37 37 35 33 31 29 28 26 25 24